Time,TemperatureF,DewpointF,PressureIn,WindDirection,WindDirectionDegrees,WindSpeedMPH,WindSpeedGustMPH,Humidity,HourlyPrecipIn,Conditions,Clouds,dailyrainin,SoftwareType,DateUTC
2013-04-08 00:00:00,57.0,35.9,29.41,WSW,248,4.0,4.0,45,0.00,,,0.00,VWS V14.01,2013-04-08 04:00:00,
2013-04-08 00:01:00,56.8,35.7,29.41,SSW,202,1.6,1.6,45,0.00,,,0.00,VWS V14.01,2013-04-08 04:01:00,
2013-04-08 00:02:00,56.8,35.7,29.41,SSW,202,3.1,3.1,45,0.00,,,0.00,VWS V14.01,2013-04-08 04:02:00,
2013-04-08 00:03:00,56.8,35.7,29.41,SSW,202,0.0,0.0,45,0.00,,,0.00,VWS V14.01,2013-04-08 04:03:00,
2013-04-08 00:04:00,56.8,35.7,29.41,SSW,202,2.9,2.9,45,0.00,,,0.00,VWS V14.01,2013-04-08 04:04:00,
2013-04-08 00:05:00,56.8,35.7,29.41,SSW,202,2.9,2.9,45,0.00,,,0.00,VWS V14.01,2013-04-08 04:05:00,
2013-04-08 00:06:00,56.8,35.7,29.41,WSW,248,1.6,1.6,45,0.00,,,0.00,VWS V14.01,2013-04-08 04:06:00,
2013-04-08 00:07:00,56.8,35.7,29.41,WSW,248,2.7,2.7,45,0.00,,,0.00,VWS V14.01,2013-04-08 04:07:00,
2013-04-08 00:08:00,56.8,35.7,29.41,SSW,202,2.0,2.0,45,0.00,,,0.00,VWS V14.01,2013-04-08 04:08:00,
2013-04-08 00:09:00,56.8,35.7,29.41,SSW,202,2.2,2.2,45,0.00,,,0.00,VWS V14.01,2013-04-08 04:09:00,
2013-04-08 00:10:00,56.8,35.7,29.41,SSW,202,2.0,2.0,45,0.00,,,0.00,VWS V14.01,2013-04-08 04:10:00,
2013-04-08 00:11:00,56.8,35.7,29.41,SW,225,3.4,3.4,45,0.00,,,0.00,VWS V14.01,2013-04-08 04:11:00,
2013-04-08 00:12:00,56.8,35.7,29.41,SW,225,2.5,2.5,45,0.00,,,0.00,VWS V14.01,2013-04-08 04:12:00,
2013-04-08 00:13:00,56.8,35.7,29.41,SSW,202,4.0,4.0,45,0.00,,,0.00,VWS V14.01,2013-04-08 04:13:00,
2013-04-08 00:14:00,56.7,35.6,29.41,SSW,202,4.3,4.3,45,0.00,,,0.00,VWS V14.01,2013-04-08 04:14:00,
2013-04-08 00:15:00,56.7,36.1,29.44,SW,225,2.9,2.9,46,0.00,,,0.00,VWS V14.01,2013-04-08 04:15:00,
2013-04-08 00:16:00,56.7,35.6,29.44,SW,225,2.5,2.5,45,0.00,,,0.00,VWS V14.01,2013-04-08 04:16:00,
2013-04-08 00:17:00,56.7,35.6,29.44,South,180,2.0,2.0,45,0.00,,,0.00,VWS V14.01,2013-04-08 04:17:00,
2013-04-08 00:18:00,56.7,35.6,29.44,SSW,202,2.7,2.7,45,0.00,,,0.00,VWS V14.01,2013-04-08 04:18:00,
2013-04-08 00:19:00,56.5,35.4,29.44,SSW,202,3.1,3.1,45,0.00,,,0.00,VWS V14.01,2013-04-08 04:19:00,
2013-04-08 00:20:00,56.5,35.4,29.44,South,180,2.9,2.9,45,0.00,,,0.00,VWS V14.01,2013-04-08 04:20:00,
2013-04-08 00:21:00,56.5,35.4,29.44,SW,225,2.7,2.7,45,0.00,,,0.00,VWS V14.01,2013-04-08 04:21:00,
2013-04-08 00:22:00,56.3,35.2,29.44,South,180,2.2,2.2,45,0.00,,,0.00,VWS V14.01,2013-04-08 04:22:00,
2013-04-08 00:23:00,56.3,35.8,29.44,WSW,248,1.3,1.3,46,0.00,,,0.00,VWS V14.01,2013-04-08 04:23:00,
2013-04-08 00:24:00,56.3,35.8,29.44,SSW,202,1.1,1.1,46,0.00,,,0.00,VWS V14.01,2013-04-08 04:24:00,
2013-04-08 00:25:00,56.3,35.8,29.44,South,180,2.9,2.9,46,0.00,,,0.00,VWS V14.01,2013-04-08 04:25:00,
2013-04-08 00:26:00,56.3,35.8,29.44,SSW,202,0.9,0.9,46,0.00,,,0.00,VWS V14.01,2013-04-08 04:26:00,
2013-04-08 00:27:00,56.1,35.6,29.44,NW,315,0.9,0.9,46,0.00,,,0.00,VWS V14.01,2013-04-08 04:27:00,
2013-04-08 00:28:00,56.1,35.6,29.44,NW,315,2.7,2.7,46,0.00,,,0.00,VWS V14.01,2013-04-08 04:28:00,
2013-04-08 00:29:00,56.1,35.6,29.44,NNW,338,2.2,2.2,46,0.00,,,0.00,VWS V14.01,2013-04-08 04:29:00,
2013-04-08 00:30:00,55.9,35.5,29.44,NNW,338,2.5,2.5,46,0.00,,,0.00,VWS V14.01,2013-04-08 04:30:00,
2013-04-08 00:31:00,55.9,35.5,29.44,West,270,0.0,0.0,46,0.00,,,0.00,VWS V14.01,2013-04-08 04:31:00,
2013-04-08 00:32:00,55.9,35.5,29.44,West,270,0.0,0.0,46,0.00,,,0.00,VWS V14.01,2013-04-08 04:32:00,
2013-04-08 00:33:00,55.9,35.5,29.44,West,270,1.3,1.3,46,0.00,,,0.00,VWS V14.01,2013-04-08 04:33:00,
2013-04-08 00:34:00,55.9,35.5,29.44,West,270,0.0,0.0,46,0.00,,,0.00,VWS V14.01,2013-04-08 04:34:00,
2013-04-08 00:35:00,55.9,35.5,29.44,SSW,202,1.6,1.6,46,0.00,,,0.00,VWS V14.01,2013-04-08 04:35:00,
2013-04-08 00:36:00,55.9,35.5,29.44,SW,225,1.1,1.1,46,0.00,,,0.00,VWS V14.01,2013-04-08 04:36:00,
2013-04-08 00:37:00,55.8,35.3,29.44,WSW,248,0.0,0.0,46,0.00,,,0.00,VWS V14.01,2013-04-08 04:37:00,
2013-04-08 00:38:00,55.8,35.3,29.44,WNW,292,1.3,1.3,46,0.00,,,0.00,VWS V14.01,2013-04-08 04:38:00,
2013-04-08 00:39:00,55.8,35.3,29.44,WNW,292,0.0,0.0,46,0.00,,,0.00,VWS V14.01,2013-04-08 04:39:00,
2013-04-08 00:40:00,55.6,35.2,29.44,WNW,292,0.0,0.0,46,0.00,,,0.00,VWS V14.01,2013-04-08 04:40:00,
2013-04-08 00:41:00,55.6,35.2,29.44,WNW,292,0.0,0.0,46,0.00,,,0.00,VWS V14.01,2013-04-08 04:41:00,
2013-04-08 00:42:00,55.6,35.2,29.44,West,270,0.0,0.0,46,0.00,,,0.00,VWS V14.01,2013-04-08 04:42:00,
2013-04-08 00:43:00,55.6,35.2,29.44,WNW,292,1.1,1.1,46,0.00,,,0.00,VWS V14.01,2013-04-08 04:43:00,
2013-04-08 00:44:00,55.4,35.0,29.44,NNW,338,2.9,2.9,46,0.00,,,0.00,VWS V14.01,2013-04-08 04:44:00,
2013-04-08 00:45:00,55.4,35.0,29.44,NNW,338,3.6,3.6,46,0.00,,,0.00,VWS V14.01,2013-04-08 04:45:00,
2013-04-08 00:46:00,55.4,35.0,29.44,NNW,338,3.1,3.1,46,0.00,,,0.00,VWS V14.01,2013-04-08 04:46:00,
2013-04-08 00:47:00,55.2,35.4,29.44,NNW,338,2.0,2.0,47,0.00,,,0.00,VWS V14.01,2013-04-08 04:47:00,
2013-04-08 00:48:00,55.2,35.4,29.44,NNW,338,0.0,0.0,47,0.00,,,0.00,VWS V14.01,2013-04-08 04:48:00,
2013-04-08 00:49:00,55.2,35.4,29.44,NNW,338,0.0,0.0,47,0.00,,,0.00,VWS V14.01,2013-04-08 04:49:00,
2013-04-08 00:50:00,55.0,35.2,29.44,NNW,338,0.0,0.0,47,0.00,,,0.00,VWS V14.01,2013-04-08 04:50:00,
2013-04-08 00:51:00,55.0,35.2,29.44,NNW,338,0.0,0.0,47,0.00,,,0.00,VWS V14.01,2013-04-08 04:51:00,
2013-04-08 00:52:00,55.0,35.2,29.44,NNW,338,0.0,0.0,47,0.00,,,0.00,VWS V14.01,2013-04-08 04:52:00,
2013-04-08 00:53:00,54.9,35.0,29.44,NNW,338,0.0,0.0,47,0.00,,,0.00,VWS V14.01,2013-04-08 04:53:00,
2013-04-08 00:54:00,54.9,35.0,29.44,NNW,338,0.0,0.0,47,0.00,,,0.00,VWS V14.01,2013-04-08 04:54:00,
2013-04-08 00:55:00,54.9,35.0,29.44,NNW,338,0.0,0.0,47,0.00,,,0.00,VWS V14.01,2013-04-08 04:55:00,
2013-04-08 00:56:00,54.9,35.0,29.44,NNW,338,0.0,0.0,47,0.00,,,0.00,VWS V14.01,2013-04-08 04:56:00,
2013-04-08 00:57:00,54.9,35.0,29.44,NNW,338,1.3,1.3,47,0.00,,,0.00,VWS V14.01,2013-04-08 04:57:00,
2013-04-08 00:58:00,54.9,35.0,29.44,NNW,338,1.1,1.1,47,0.00,,,0.00,VWS V14.01,2013-04-08 04:58:00,
2013-04-08 00:59:00,54.9,35.0,29.44,NNW,338,1.3,1.3,47,0.00,,,0.00,VWS V14.01,2013-04-08 04:59:00,
2013-04-08 01:00:00,54.9,35.0,29.44,NNW,338,1.6,1.6,47,0.00,,,0.00,VWS V14.01,2013-04-08 05:00:00,
2013-04-08 01:01:00,54.9,35.0,29.44,NNW,338,0.0,0.0,47,0.00,,,0.00,VWS V14.01,2013-04-08 05:01:00,
2013-04-08 01:02:00,54.9,35.0,29.44,NNW,338,0.0,0.0,47,0.00,,,0.00,VWS V14.01,2013-04-08 05:02:00,
2013-04-08 01:03:00,54.9,35.0,29.44,NNW,338,0.0,0.0,47,0.00,,,0.00,VWS V14.01,2013-04-08 05:03:00,
2013-04-08 01:04:00,54.9,35.0,29.44,NNW,338,0.0,0.0,47,0.00,,,0.00,VWS V14.01,2013-04-08 05:04:00,
2013-04-08 01:05:00,54.9,35.0,29.44,NNW,338,0.0,0.0,47,0.00,,,0.00,VWS V14.01,2013-04-08 05:05:00,
2013-04-08 01:06:00,54.9,35.0,29.44,NNW,338,0.0,0.0,47,0.00,,,0.00,VWS V14.01,2013-04-08 05:06:00,
2013-04-08 01:07:00,54.7,35.4,29.44,NNW,338,0.0,0.0,48,0.00,,,0.00,VWS V14.01,2013-04-08 05:07:00,
2013-04-08 01:08:00,54.7,34.9,29.44,NNW,338,0.0,0.0,47,0.00,,,0.00,VWS V14.01,2013-04-08 05:08:00,
2013-04-08 01:09:00,54.5,34.7,29.44,NNW,338,0.0,0.0,47,0.00,,,0.00,VWS V14.01,2013-04-08 05:09:00,
2013-04-08 01:10:00,54.5,35.2,29.44,NNW,338,0.0,0.0,48,0.00,,,0.00,VWS V14.01,2013-04-08 05:10:00,
2013-04-08 01:11:00,54.5,35.2,29.44,South,180,1.6,1.6,48,0.00,,,0.00,VWS V14.01,2013-04-08 05:11:00,
2013-04-08 01:12:00,54.5,34.7,29.44,South,180,2.0,2.0,47,0.00,,,0.00,VWS V14.01,2013-04-08 05:12:00,
2013-04-08 01:13:00,54.5,35.2,29.44,SSW,202,1.6,1.6,48,0.00,,,0.00,VWS V14.01,2013-04-08 05:13:00,
2013-04-08 01:14:00,54.3,35.1,29.44,SW,225,1.3,1.3,48,0.00,,,0.00,VWS V14.01,2013-04-08 05:14:00,
2013-04-08 01:15:00,54.3,35.6,29.44,WSW,248,1.6,1.6,49,0.00,,,0.00,VWS V14.01,2013-04-08 05:15:00,
2013-04-08 01:16:00,54.1,35.4,29.44,WSW,248,2.2,2.2,49,0.00,,,0.00,VWS V14.01,2013-04-08 05:16:00,
2013-04-08 01:17:00,54.1,35.4,29.44,SW,225,2.5,2.5,49,0.00,,,0.00,VWS V14.01,2013-04-08 05:17:00,
2013-04-08 01:18:00,54.1,35.4,29.44,SW,225,2.5,2.5,49,0.00,,,0.00,VWS V14.01,2013-04-08 05:18:00,
2013-04-08 01:19:00,54.0,35.2,29.44,SW,225,1.6,1.6,49,0.00,,,0.00,VWS V14.01,2013-04-08 05:19:00,
2013-04-08 01:20:00,54.0,35.2,29.44,SW,225,1.3,1.3,49,0.00,,,0.00,VWS V14.01,2013-04-08 05:20:00,
2013-04-08 01:21:00,54.0,35.2,29.44,SW,225,2.5,2.5,49,0.00,,,0.00,VWS V14.01,2013-04-08 05:21:00,
2013-04-08 01:22:00,53.8,35.1,29.44,SSW,202,1.6,1.6,49,0.00,,,0.00,VWS V14.01,2013-04-08 05:22:00,
2013-04-08 01:23:00,53.8,35.1,29.44,SSW,202,0.0,0.0,49,0.00,,,0.00,VWS V14.01,2013-04-08 05:23:00,
2013-04-08 01:24:00,53.6,34.9,29.44,SSW,202,0.9,0.9,49,0.00,,,0.00,VWS V14.01,2013-04-08 05:24:00,
2013-04-08 01:25:00,53.6,34.9,29.44,SSW,202,1.3,1.3,49,0.00,,,0.00,VWS V14.01,2013-04-08 05:25:00,
2013-04-08 01:26:00,53.4,34.8,29.44,SSW,202,2.5,2.5,49,0.00,,,0.00,VWS V14.01,2013-04-08 05:26:00,
2013-04-08 01:27:00,53.4,34.8,29.44,SW,225,2.7,2.7,49,0.00,,,0.00,VWS V14.01,2013-04-08 05:27:00,
2013-04-08 01:28:00,53.4,34.8,29.44,SW,225,2.7,2.7,49,0.00,,,0.00,VWS V14.01,2013-04-08 05:28:00,
2013-04-08 01:29:00,53.2,34.6,29.44,SW,225,2.9,2.9,49,0.00,,,0.00,VWS V14.01,2013-04-08 05:29:00,
2013-04-08 01:30:00,53.2,35.1,29.44,SW,225,3.1,3.1,50,0.00,,,0.00,VWS V14.01,2013-04-08 05:30:00,
2013-04-08 01:31:00,53.2,34.6,29.44,SSW,202,3.1,3.1,49,0.00,,,0.00,VWS V14.01,2013-04-08 05:31:00,
2013-04-08 01:32:00,53.1,34.9,29.44,SW,225,2.5,2.5,50,0.00,,,0.00,VWS V14.01,2013-04-08 05:32:00,
2013-04-08 01:33:00,53.1,34.9,29.44,SW,225,2.5,2.5,50,0.00,,,0.00,VWS V14.01,2013-04-08 05:33:00,
2013-04-08 01:34:00,53.1,34.9,29.44,SW,225,2.7,2.7,50,0.00,,,0.00,VWS V14.01,2013-04-08 05:34:00,
2013-04-08 01:35:00,53.1,34.9,29.44,SW,225,2.5,2.5,50,0.00,,,0.00,VWS V14.01,2013-04-08 05:35:00,
2013-04-08 01:36:00,53.1,34.9,29.44,SW,225,2.0,2.0,50,0.00,,,0.00,VWS V14.01,2013-04-08 05:36:00,
2013-04-08 01:37:00,53.1,34.9,29.44,SW,225,2.0,2.0,50,0.00,,,0.00,VWS V14.01,2013-04-08 05:37:00,
2013-04-08 01:38:00,53.1,34.9,29.44,SSW,202,2.0,2.0,50,0.00,,,0.00,VWS V14.01,2013-04-08 05:38:00,
2013-04-08 01:39:00,52.9,34.8,29.44,SSW,202,2.2,2.2,50,0.00,,,0.00,VWS V14.01,2013-04-08 05:39:00,
2013-04-08 01:40:00,52.9,34.8,29.44,SSW,202,2.0,2.0,50,0.00,,,0.00,VWS V14.01,2013-04-08 05:40:00,
2013-04-08 01:41:00,52.9,34.8,29.44,SW,225,1.6,1.6,50,0.00,,,0.00,VWS V14.01,2013-04-08 05:41:00,
2013-04-08 01:42:00,52.9,34.8,29.44,SSW,202,2.5,2.5,50,0.00,,,0.00,VWS V14.01,2013-04-08 05:42:00,
2013-04-08 01:43:00,52.7,34.6,29.44,SW,225,2.0,2.0,50,0.00,,,0.00,VWS V14.01,2013-04-08 05:43:00,
2013-04-08 01:44:00,52.7,34.6,29.44,WSW,248,1.6,1.6,50,0.00,,,0.00,VWS V14.01,2013-04-08 05:44:00,
2013-04-08 01:45:00,52.7,34.6,29.41,WSW,248,1.3,1.3,50,0.00,,,0.00,VWS V14.01,2013-04-08 05:45:00,
2013-04-08 01:46:00,52.5,34.9,29.41,SW,225,1.6,1.6,51,0.00,,,0.00,VWS V14.01,2013-04-08 05:46:00,
2013-04-08 01:47:00,52.5,34.4,29.41,SSW,202,1.6,1.6,50,0.00,,,0.00,VWS V14.01,2013-04-08 05:47:00,
2013-04-08 01:48:00,52.5,34.4,29.41,SW,225,1.3,1.3,50,0.00,,,0.00,VWS V14.01,2013-04-08 05:48:00,
2013-04-08 01:49:00,52.5,34.4,29.41,SW,225,0.0,0.0,50,0.00,,,0.00,VWS V14.01,2013-04-08 05:49:00,
2013-04-08 01:50:00,52.3,34.8,29.41,WSW,248,0.0,0.0,51,0.00,,,0.00,VWS V14.01,2013-04-08 05:50:00,
2013-04-08 01:51:00,52.3,34.8,29.41,WSW,248,0.0,0.0,51,0.00,,,0.00,VWS V14.01,2013-04-08 05:51:00,
2013-04-08 01:52:00,52.3,34.8,29.41,WSW,248,0.0,0.0,51,0.00,,,0.00,VWS V14.01,2013-04-08 05:52:00,
2013-04-08 01:53:00,52.3,34.8,29.41,WSW,248,0.0,0.0,51,0.00,,,0.00,VWS V14.01,2013-04-08 05:53:00,
2013-04-08 01:54:00,52.2,34.6,29.41,WSW,248,0.0,0.0,51,0.00,,,0.00,VWS V14.01,2013-04-08 05:54:00,
2013-04-08 01:55:00,52.2,34.6,29.41,WSW,248,0.0,0.0,51,0.00,,,0.00,VWS V14.01,2013-04-08 05:55:00,
2013-04-08 01:56:00,52.2,34.6,29.41,WSW,248,0.0,0.0,51,0.00,,,0.00,VWS V14.01,2013-04-08 05:56:00,
2013-04-08 01:57:00,52.0,34.4,29.41,WSW,248,0.0,0.0,51,0.00,,,0.00,VWS V14.01,2013-04-08 05:57:00,
2013-04-08 01:58:00,52.0,34.4,29.41,WSW,248,0.0,0.0,51,0.00,,,0.00,VWS V14.01,2013-04-08 05:58:00,
2013-04-08 01:59:00,52.0,34.4,29.41,WSW,248,0.0,0.0,51,0.00,,,0.00,VWS V14.01,2013-04-08 05:59:00,
2013-04-08 02:00:00,52.0,34.4,29.44,WSW,248,0.0,0.0,51,0.00,,,0.00,VWS V14.01,2013-04-08 06:00:00,
2013-04-08 02:01:00,52.0,34.4,29.44,WSW,248,0.0,0.0,51,0.00,,,0.00,VWS V14.01,2013-04-08 06:01:00,
2013-04-08 02:02:00,52.0,34.4,29.44,WSW,248,0.0,0.0,51,0.00,,,0.00,VWS V14.01,2013-04-08 06:02:00,
2013-04-08 02:03:00,51.8,34.3,29.44,WSW,248,0.0,0.0,51,0.00,,,0.00,VWS V14.01,2013-04-08 06:03:00,
2013-04-08 02:04:00,51.8,34.3,29.44,WSW,248,0.0,0.0,51,0.00,,,0.00,VWS V14.01,2013-04-08 06:04:00,
2013-04-08 02:05:00,51.8,34.3,29.44,WSW,248,0.0,0.0,51,0.00,,,0.00,VWS V14.01,2013-04-08 06:05:00,
2013-04-08 02:06:00,51.8,34.3,29.44,WSW,248,0.0,0.0,51,0.00,,,0.00,VWS V14.01,2013-04-08 06:06:00,
2013-04-08 02:07:00,51.8,34.3,29.44,WSW,248,0.0,0.0,51,0.00,,,0.00,VWS V14.01,2013-04-08 06:07:00,
2013-04-08 02:08:00,51.8,34.3,29.44,WSW,248,0.0,0.0,51,0.00,,,0.00,VWS V14.01,2013-04-08 06:08:00,
2013-04-08 02:09:00,51.8,34.3,29.44,WSW,248,0.0,0.0,51,0.00,,,0.00,VWS V14.01,2013-04-08 06:09:00,
2013-04-08 02:10:00,51.6,34.6,29.44,NE,45,1.1,1.1,52,0.00,,,0.00,VWS V14.01,2013-04-08 06:10:00,
2013-04-08 02:11:00,51.6,34.1,29.44,NE,45,0.0,0.0,51,0.00,,,0.00,VWS V14.01,2013-04-08 06:11:00,
2013-04-08 02:12:00,51.6,34.1,29.44,NE,45,1.6,1.6,51,0.00,,,0.00,VWS V14.01,2013-04-08 06:12:00,
2013-04-08 02:13:00,51.4,33.9,29.44,NE,45,1.3,1.3,51,0.00,,,0.00,VWS V14.01,2013-04-08 06:13:00,
2013-04-08 02:14:00,51.4,33.9,29.44,NE,45,0.0,0.0,51,0.00,,,0.00,VWS V14.01,2013-04-08 06:14:00,
2013-04-08 02:15:00,51.3,33.8,29.47,NE,45,0.0,0.0,51,0.00,,,0.00,VWS V14.01,2013-04-08 06:15:00,
2013-04-08 02:16:00,51.1,34.1,29.47,NE,45,0.0,0.0,52,0.00,,,0.00,VWS V14.01,2013-04-08 06:16:00,
2013-04-08 02:17:00,51.1,34.1,29.47,NE,45,0.0,0.0,52,0.00,,,0.00,VWS V14.01,2013-04-08 06:17:00,
2013-04-08 02:18:00,51.1,34.1,29.47,NE,45,1.1,1.1,52,0.00,,,0.00,VWS V14.01,2013-04-08 06:18:00,
2013-04-08 02:19:00,50.9,33.9,29.47,NE,45,1.1,1.1,52,0.00,,,0.00,VWS V14.01,2013-04-08 06:19:00,
2013-04-08 02:20:00,50.9,33.9,29.47,NE,45,0.0,0.0,52,0.00,,,0.00,VWS V14.01,2013-04-08 06:20:00,
2013-04-08 02:21:00,50.9,33.9,29.47,NE,45,0.0,0.0,52,0.00,,,0.00,VWS V14.01,2013-04-08 06:21:00,
2013-04-08 02:22:00,50.9,33.9,29.47,NE,45,0.0,0.0,52,0.00,,,0.00,VWS V14.01,2013-04-08 06:22:00,
2013-04-08 02:23:00,50.9,34.4,29.47,NE,45,1.1,1.1,53,0.00,,,0.00,VWS V14.01,2013-04-08 06:23:00,
2013-04-08 02:24:00,50.9,33.9,29.47,NE,45,1.6,1.6,52,0.00,,,0.00,VWS V14.01,2013-04-08 06:24:00,
2013-04-08 02:25:00,50.9,34.4,29.47,NE,45,0.0,0.0,53,0.00,,,0.00,VWS V14.01,2013-04-08 06:25:00,
2013-04-08 02:26:00,50.9,34.4,29.47,NNE,22,1.3,1.3,53,0.00,,,0.00,VWS V14.01,2013-04-08 06:26:00,
2013-04-08 02:27:00,50.9,34.4,29.47,NNE,22,0.9,0.9,53,0.00,,,0.00,VWS V14.01,2013-04-08 06:27:00,
2013-04-08 02:28:00,50.9,34.4,29.47,NNE,22,0.0,0.0,53,0.00,,,0.00,VWS V14.01,2013-04-08 06:28:00,
2013-04-08 02:29:00,50.9,34.4,29.47,NNE,22,0.0,0.0,53,0.00,,,0.00,VWS V14.01,2013-04-08 06:29:00,
2013-04-08 02:30:00,50.9,34.4,29.44,NNE,22,0.0,0.0,53,0.00,,,0.00,VWS V14.01,2013-04-08 06:30:00,
2013-04-08 02:31:00,50.7,34.2,29.44,NNE,22,0.0,0.0,53,0.00,,,0.00,VWS V14.01,2013-04-08 06:31:00,
2013-04-08 02:32:00,50.7,34.2,29.44,NNE,22,0.0,0.0,53,0.00,,,0.00,VWS V14.01,2013-04-08 06:32:00,
2013-04-08 02:33:00,50.7,34.2,29.44,East,90,0.9,0.9,53,0.00,,,0.00,VWS V14.01,2013-04-08 06:33:00,
2013-04-08 02:34:00,50.7,34.2,29.44,East,90,0.0,0.0,53,0.00,,,0.00,VWS V14.01,2013-04-08 06:34:00,
2013-04-08 02:35:00,50.5,34.1,29.44,East,90,0.0,0.0,53,0.00,,,0.00,VWS V14.01,2013-04-08 06:35:00,
2013-04-08 02:36:00,50.5,34.1,29.44,East,90,0.0,0.0,53,0.00,,,0.00,VWS V14.01,2013-04-08 06:36:00,
2013-04-08 02:37:00,50.5,34.1,29.44,East,90,0.0,0.0,53,0.00,,,0.00,VWS V14.01,2013-04-08 06:37:00,
2013-04-08 02:38:00,50.4,33.9,29.44,East,90,0.0,0.0,53,0.00,,,0.00,VWS V14.01,2013-04-08 06:38:00,
2013-04-08 02:39:00,50.4,33.9,29.44,ENE,68,0.0,0.0,53,0.00,,,0.00,VWS V14.01,2013-04-08 06:39:00,
2013-04-08 02:40:00,50.4,34.4,29.44,ENE,68,0.0,0.0,54,0.00,,,0.00,VWS V14.01,2013-04-08 06:40:00,
2013-04-08 02:41:00,50.4,34.4,29.44,ENE,68,0.0,0.0,54,0.00,,,0.00,VWS V14.01,2013-04-08 06:41:00,
2013-04-08 02:42:00,50.4,34.4,29.44,East,90,2.7,2.7,54,0.00,,,0.00,VWS V14.01,2013-04-08 06:42:00,
2013-04-08 02:43:00,50.4,34.4,29.44,East,90,2.5,2.5,54,0.00,,,0.00,VWS V14.01,2013-04-08 06:43:00,
2013-04-08 02:44:00,50.4,34.4,29.44,East,90,1.3,1.3,54,0.00,,,0.00,VWS V14.01,2013-04-08 06:44:00,
2013-04-08 02:45:00,50.2,34.2,29.47,East,90,2.0,2.0,54,0.00,,,0.00,VWS V14.01,2013-04-08 06:45:00,
2013-04-08 02:46:00,50.0,33.6,29.47,ENE,68,2.0,2.0,53,0.00,,,0.00,VWS V14.01,2013-04-08 06:46:00,
2013-04-08 02:47:00,49.8,33.9,29.47,ENE,68,1.3,1.3,54,0.00,,,0.00,VWS V14.01,2013-04-08 06:47:00,
2013-04-08 02:48:00,49.8,33.9,29.47,ENE,68,1.1,1.1,54,0.00,,,0.00,VWS V14.01,2013-04-08 06:48:00,
2013-04-08 02:49:00,49.6,33.7,29.47,ENE,68,1.3,1.3,54,0.00,,,0.00,VWS V14.01,2013-04-08 06:49:00,
2013-04-08 02:50:00,49.5,33.5,29.47,ENE,68,2.0,2.0,54,0.00,,,0.00,VWS V14.01,2013-04-08 06:50:00,
2013-04-08 02:51:00,49.5,33.5,29.47,ENE,68,2.5,2.5,54,0.00,,,0.00,VWS V14.01,2013-04-08 06:51:00,
2013-04-08 02:52:00,49.5,33.5,29.47,ENE,68,2.5,2.5,54,0.00,,,0.00,VWS V14.01,2013-04-08 06:52:00,
2013-04-08 02:53:00,49.5,33.5,29.47,East,90,2.0,2.0,54,0.00,,,0.00,VWS V14.01,2013-04-08 06:53:00,
2013-04-08 02:54:00,49.3,33.8,29.47,East,90,2.0,2.0,55,0.00,,,0.00,VWS V14.01,2013-04-08 06:54:00,
2013-04-08 02:55:00,49.3,33.8,29.47,East,90,1.3,1.3,55,0.00,,,0.00,VWS V14.01,2013-04-08 06:55:00,
2013-04-08 02:56:00,49.3,33.8,29.47,East,90,0.0,0.0,55,0.00,,,0.00,VWS V14.01,2013-04-08 06:56:00,
2013-04-08 02:57:00,49.3,33.8,29.47,East,90,0.0,0.0,55,0.00,,,0.00,VWS V14.01,2013-04-08 06:57:00,
2013-04-08 02:58:00,49.3,33.8,29.47,SSW,202,0.0,0.0,55,0.00,,,0.00,VWS V14.01,2013-04-08 06:58:00,
2013-04-08 02:59:00,49.3,34.7,29.47,WSW,248,2.9,2.9,57,0.00,,,0.00,VWS V14.01,2013-04-08 06:59:00,
2013-04-08 03:00:00,49.3,35.1,29.47,SW,225,3.1,3.1,58,0.00,,,0.00,VWS V14.01,2013-04-08 07:00:00,
2013-04-08 03:01:00,49.3,35.1,29.47,SSW,202,2.5,2.5,58,0.00,,,0.00,VWS V14.01,2013-04-08 07:01:00,
2013-04-08 03:02:00,48.9,34.8,29.47,South,180,2.7,2.7,58,0.00,,,0.00,VWS V14.01,2013-04-08 07:02:00,
2013-04-08 03:03:00,48.7,33.8,29.47,SSE,158,1.3,1.3,56,0.00,,,0.00,VWS V14.01,2013-04-08 07:03:00,
2013-04-08 03:04:00,48.7,33.8,29.47,ESE,112,1.3,1.3,56,0.00,,,0.00,VWS V14.01,2013-04-08 07:04:00,
2013-04-08 03:05:00,48.7,33.8,29.47,SE,135,2.0,2.0,56,0.00,,,0.00,VWS V14.01,2013-04-08 07:05:00,
2013-04-08 03:06:00,48.7,33.8,29.47,SSE,158,2.0,2.0,56,0.00,,,0.00,VWS V14.01,2013-04-08 07:06:00,
2013-04-08 03:07:00,48.9,33.9,29.47,SSE,158,1.3,1.3,56,0.00,,,0.00,VWS V14.01,2013-04-08 07:07:00,
2013-04-08 03:08:00,48.9,33.9,29.47,WSW,248,2.2,2.2,56,0.00,,,0.00,VWS V14.01,2013-04-08 07:08:00,
2013-04-08 03:09:00,48.9,34.8,29.47,WSW,248,2.9,2.9,58,0.00,,,0.00,VWS V14.01,2013-04-08 07:09:00,
2013-04-08 03:10:00,48.7,35.9,29.47,SW,225,3.8,3.8,61,0.00,,,0.00,VWS V14.01,2013-04-08 07:10:00,
2013-04-08 03:11:00,48.7,35.5,29.47,SSW,202,2.9,2.9,60,0.00,,,0.00,VWS V14.01,2013-04-08 07:11:00,
2013-04-08 03:12:00,48.6,34.9,29.47,SSW,202,3.1,3.1,59,0.00,,,0.00,VWS V14.01,2013-04-08 07:12:00,
2013-04-08 03:13:00,48.6,34.5,29.47,SSW,202,2.9,2.9,58,0.00,,,0.00,VWS V14.01,2013-04-08 07:13:00,
2013-04-08 03:14:00,48.6,34.5,29.47,South,180,2.2,2.2,58,0.00,,,0.00,VWS V14.01,2013-04-08 07:14:00,
2013-04-08 03:15:00,48.6,34.0,29.47,SSE,158,2.0,2.0,57,0.00,,,0.00,VWS V14.01,2013-04-08 07:15:00,
2013-04-08 03:16:00,48.6,34.0,29.47,SSE,158,0.9,0.9,57,0.00,,,0.00,VWS V14.01,2013-04-08 07:16:00,
2013-04-08 03:17:00,48.6,34.5,29.47,SW,225,0.0,0.0,58,0.00,,,0.00,VWS V14.01,2013-04-08 07:17:00,
2013-04-08 03:18:00,48.6,34.9,29.47,WSW,248,1.6,1.6,59,0.00,,,0.00,VWS V14.01,2013-04-08 07:18:00,
2013-04-08 03:19:00,48.6,35.3,29.47,WSW,248,2.7,2.7,60,0.00,,,0.00,VWS V14.01,2013-04-08 07:19:00,
2013-04-08 03:20:00,48.6,36.2,29.47,SSW,202,2.9,2.9,62,0.00,,,0.00,VWS V14.01,2013-04-08 07:20:00,
2013-04-08 03:21:00,48.4,35.6,29.47,SSW,202,3.4,3.4,61,0.00,,,0.00,VWS V14.01,2013-04-08 07:21:00,
2013-04-08 03:22:00,48.4,35.2,29.47,SSW,202,2.7,2.7,60,0.00,,,0.00,VWS V14.01,2013-04-08 07:22:00,
2013-04-08 03:23:00,48.4,34.7,29.47,South,180,2.5,2.5,59,0.00,,,0.00,VWS V14.01,2013-04-08 07:23:00,
2013-04-08 03:24:00,48.4,34.3,29.47,South,180,1.1,1.1,58,0.00,,,0.00,VWS V14.01,2013-04-08 07:24:00,
2013-04-08 03:25:00,48.6,34.5,29.47,ESE,112,0.0,0.0,58,0.00,,,0.00,VWS V14.01,2013-04-08 07:25:00,
2013-04-08 03:26:00,48.6,34.9,29.47,ESE,112,0.0,0.0,59,0.00,,,0.00,VWS V14.01,2013-04-08 07:26:00,
2013-04-08 03:27:00,48.6,34.5,29.47,ESE,112,0.0,0.0,58,0.00,,,0.00,VWS V14.01,2013-04-08 07:27:00,
2013-04-08 03:28:00,48.6,34.5,29.47,SE,135,0.0,0.0,58,0.00,,,0.00,VWS V14.01,2013-04-08 07:28:00,
2013-04-08 03:29:00,48.6,34.9,29.47,SE,135,0.0,0.0,59,0.00,,,0.00,VWS V14.01,2013-04-08 07:29:00,
2013-04-08 03:30:00,48.6,34.9,29.47,SE,135,0.0,0.0,59,0.00,,,0.00,VWS V14.01,2013-04-08 07:30:00,
2013-04-08 03:31:00,48.6,34.9,29.47,SE,135,0.0,0.0,59,0.00,,,0.00,VWS V14.01,2013-04-08 07:31:00,
2013-04-08 03:32:00,48.7,35.1,29.47,SE,135,0.0,0.0,59,0.00,,,0.00,VWS V14.01,2013-04-08 07:32:00,
2013-04-08 03:33:00,48.7,34.6,29.47,SE,135,0.0,0.0,58,0.00,,,0.00,VWS V14.01,2013-04-08 07:33:00,
2013-04-08 03:34:00,48.7,34.6,29.47,SE,135,0.0,0.0,58,0.00,,,0.00,VWS V14.01,2013-04-08 07:34:00,
2013-04-08 03:35:00,48.7,35.1,29.47,SE,135,0.0,0.0,59,0.00,,,0.00,VWS V14.01,2013-04-08 07:35:00,
2013-04-08 03:36:00,48.7,35.1,29.47,SE,135,0.0,0.0,59,0.00,,,0.00,VWS V14.01,2013-04-08 07:36:00,
2013-04-08 03:37:00,48.9,35.2,29.47,SE,135,0.0,0.0,59,0.00,,,0.00,VWS V14.01,2013-04-08 07:37:00,
2013-04-08 03:38:00,48.9,35.2,29.47,SE,135,0.0,0.0,59,0.00,,,0.00,VWS V14.01,2013-04-08 07:38:00,
2013-04-08 03:39:00,48.9,35.2,29.47,SE,135,0.0,0.0,59,0.00,,,0.00,VWS V14.01,2013-04-08 07:39:00,
2013-04-08 03:40:00,48.9,34.8,29.47,SE,135,0.0,0.0,58,0.00,,,0.00,VWS V14.01,2013-04-08 07:40:00,
2013-04-08 03:41:00,49.1,35.0,29.47,SE,135,0.0,0.0,58,0.00,,,0.00,VWS V14.01,2013-04-08 07:41:00,
2013-04-08 03:42:00,49.1,35.0,29.47,SE,135,0.0,0.0,58,0.00,,,0.00,VWS V14.01,2013-04-08 07:42:00,
2013-04-08 03:43:00,49.1,35.0,29.47,SE,135,0.0,0.0,58,0.00,,,0.00,VWS V14.01,2013-04-08 07:43:00,
2013-04-08 03:44:00,49.1,35.0,29.47,SE,135,0.0,0.0,58,0.00,,,0.00,VWS V14.01,2013-04-08 07:44:00,
2013-04-08 03:45:00,49.1,35.0,29.47,SE,135,0.0,0.0,58,0.00,,,0.00,VWS V14.01,2013-04-08 07:45:00,
2013-04-08 03:46:00,49.1,35.0,29.47,SSW,202,2.0,2.0,58,0.00,,,0.00,VWS V14.01,2013-04-08 07:46:00,
2013-04-08 03:47:00,49.1,35.8,29.47,SSW,202,2.2,2.2,60,0.00,,,0.00,VWS V14.01,2013-04-08 07:47:00,
2013-04-08 03:48:00,48.9,36.1,29.47,SSW,202,2.9,2.9,61,0.00,,,0.00,VWS V14.01,2013-04-08 07:48:00,
2013-04-08 03:49:00,48.7,35.5,29.47,SSW,202,2.7,2.7,60,0.00,,,0.00,VWS V14.01,2013-04-08 07:49:00,
2013-04-08 03:50:00,48.7,35.5,29.47,SSW,202,2.5,2.5,60,0.00,,,0.00,VWS V14.01,2013-04-08 07:50:00,
2013-04-08 03:51:00,48.7,35.5,29.47,SSW,202,2.5,2.5,60,0.00,,,0.00,VWS V14.01,2013-04-08 07:51:00,
2013-04-08 03:52:00,48.7,35.5,29.47,SSW,202,2.0,2.0,60,0.00,,,0.00,VWS V14.01,2013-04-08 07:52:00,
2013-04-08 03:53:00,48.7,35.5,29.47,SSW,202,2.7,2.7,60,0.00,,,0.00,VWS V14.01,2013-04-08 07:53:00,
2013-04-08 03:54:00,48.7,35.5,29.47,SSW,202,2.5,2.5,60,0.00,,,0.00,VWS V14.01,2013-04-08 07:54:00,
2013-04-08 03:55:00,48.7,35.5,29.47,SSW,202,2.5,2.5,60,0.00,,,0.00,VWS V14.01,2013-04-08 07:55:00,
2013-04-08 03:56:00,48.6,35.3,29.47,SSW,202,1.6,1.6,60,0.00,,,0.00,VWS V14.01,2013-04-08 07:56:00,
2013-04-08 03:57:00,48.6,35.3,29.47,SSW,202,1.1,1.1,60,0.00,,,0.00,VWS V14.01,2013-04-08 07:57:00,
2013-04-08 03:58:00,48.6,35.3,29.47,SSW,202,2.0,2.0,60,0.00,,,0.00,VWS V14.01,2013-04-08 07:58:00,
2013-04-08 03:59:00,48.6,35.3,29.47,SSW,202,2.2,2.2,60,0.00,,,0.00,VWS V14.01,2013-04-08 07:59:00,
2013-04-08 04:00:00,48.6,35.3,29.47,SSW,202,2.5,2.5,60,0.00,,,0.00,VWS V14.01,2013-04-08 08:00:00,
2013-04-08 04:01:00,48.6,35.3,29.47,SW,225,2.9,2.9,60,0.00,,,0.00,VWS V14.01,2013-04-08 08:01:00,
2013-04-08 04:02:00,48.4,35.6,29.47,SSW,202,1.6,1.6,61,0.00,,,0.00,VWS V14.01,2013-04-08 08:02:00,
2013-04-08 04:03:00,48.6,35.7,29.47,SW,225,1.6,1.6,61,0.00,,,0.00,VWS V14.01,2013-04-08 08:03:00,
2013-04-08 04:04:00,48.6,35.7,29.47,SW,225,0.0,0.0,61,0.00,,,0.00,VWS V14.01,2013-04-08 08:04:00,
2013-04-08 04:05:00,48.6,35.7,29.47,WSW,248,0.9,0.9,61,0.00,,,0.00,VWS V14.01,2013-04-08 08:05:00,
2013-04-08 04:06:00,48.4,35.6,29.47,WSW,248,0.0,0.0,61,0.00,,,0.00,VWS V14.01,2013-04-08 08:06:00,
2013-04-08 04:07:00,48.4,35.6,29.47,WSW,248,2.0,2.0,61,0.00,,,0.00,VWS V14.01,2013-04-08 08:07:00,
2013-04-08 04:08:00,48.4,35.6,29.47,WSW,248,1.6,1.6,61,0.00,,,0.00,VWS V14.01,2013-04-08 08:08:00,
2013-04-08 04:09:00,48.4,35.6,29.47,WSW,248,0.0,0.0,61,0.00,,,0.00,VWS V14.01,2013-04-08 08:09:00,
2013-04-08 04:10:00,48.4,35.6,29.47,WNW,292,0.0,0.0,61,0.00,,,0.00,VWS V14.01,2013-04-08 08:10:00,
2013-04-08 04:11:00,48.2,35.0,29.47,WNW,292,0.0,0.0,60,0.00,,,0.00,VWS V14.01,2013-04-08 08:11:00,
2013-04-08 04:12:00,48.2,35.0,29.47,NW,315,0.0,0.0,60,0.00,,,0.00,VWS V14.01,2013-04-08 08:12:00,
2013-04-08 04:13:00,48.0,35.2,29.47,North,0,0.0,0.0,61,0.00,,,0.00,VWS V14.01,2013-04-08 08:13:00,
2013-04-08 04:14:00,47.8,35.1,29.47,NNE,22,0.0,0.0,61,0.00,,,0.00,VWS V14.01,2013-04-08 08:14:00,
2013-04-08 04:15:00,47.8,35.1,29.47,NNE,22,0.0,0.0,61,0.00,,,0.00,VWS V14.01,2013-04-08 08:15:00,
2013-04-08 04:16:00,47.7,34.5,29.47,NNE,22,2.7,2.7,60,0.00,,,0.00,VWS V14.01,2013-04-08 08:16:00,
2013-04-08 04:17:00,47.7,34.5,29.47,NE,45,1.6,1.6,60,0.00,,,0.00,VWS V14.01,2013-04-08 08:17:00,
2013-04-08 04:18:00,47.7,34.5,29.47,NE,45,1.6,1.6,60,0.00,,,0.00,VWS V14.01,2013-04-08 08:18:00,
2013-04-08 04:19:00,47.5,34.3,29.47,NE,45,2.5,2.5,60,0.00,,,0.00,VWS V14.01,2013-04-08 08:19:00,
2013-04-08 04:20:00,47.5,34.3,29.47,NE,45,2.0,2.0,60,0.00,,,0.00,VWS V14.01,2013-04-08 08:20:00,
2013-04-08 04:21:00,47.5,34.3,29.47,NE,45,2.7,2.7,60,0.00,,,0.00,VWS V14.01,2013-04-08 08:21:00,
2013-04-08 04:22:00,47.5,34.3,29.47,NE,45,2.9,2.9,60,0.00,,,0.00,VWS V14.01,2013-04-08 08:22:00,
2013-04-08 04:23:00,47.3,34.1,29.47,NE,45,3.1,3.1,60,0.00,,,0.00,VWS V14.01,2013-04-08 08:23:00,
2013-04-08 04:24:00,47.3,34.1,29.47,NE,45,1.6,1.6,60,0.00,,,0.00,VWS V14.01,2013-04-08 08:24:00,
2013-04-08 04:25:00,47.1,34.4,29.47,NE,45,0.0,0.0,61,0.00,,,0.00,VWS V14.01,2013-04-08 08:25:00,
2013-04-08 04:26:00,47.1,34.4,29.47,NE,45,1.6,1.6,61,0.00,,,0.00,VWS V14.01,2013-04-08 08:26:00,
2013-04-08 04:27:00,46.9,34.2,29.47,NE,45,3.1,3.1,61,0.00,,,0.00,VWS V14.01,2013-04-08 08:27:00,
2013-04-08 04:28:00,46.9,33.8,29.47,NNE,22,3.8,3.8,60,0.00,,,0.00,VWS V14.01,2013-04-08 08:28:00,
2013-04-08 04:29:00,46.8,33.6,29.47,ENE,68,2.0,2.0,60,0.00,,,0.00,VWS V14.01,2013-04-08 08:29:00,
2013-04-08 04:30:00,46.8,33.6,29.47,ENE,68,2.0,2.0,60,0.00,,,0.00,VWS V14.01,2013-04-08 08:30:00,
2013-04-08 04:31:00,46.8,34.0,29.47,ENE,68,0.0,0.0,61,0.00,,,0.00,VWS V14.01,2013-04-08 08:31:00,
2013-04-08 04:32:00,46.6,33.9,29.47,NE,45,0.0,0.0,61,0.00,,,0.00,VWS V14.01,2013-04-08 08:32:00,
2013-04-08 04:33:00,46.6,33.5,29.47,NE,45,4.3,4.3,60,0.00,,,0.00,VWS V14.01,2013-04-08 08:33:00,
2013-04-08 04:34:00,46.4,33.3,29.47,ENE,68,2.2,2.2,60,0.00,,,0.00,VWS V14.01,2013-04-08 08:34:00,
2013-04-08 04:35:00,46.4,33.7,29.47,East,90,1.1,1.1,61,0.00,,,0.00,VWS V14.01,2013-04-08 08:35:00,
2013-04-08 04:36:00,46.4,34.1,29.47,ENE,68,0.0,0.0,62,0.00,,,0.00,VWS V14.01,2013-04-08 08:36:00,
2013-04-08 04:37:00,46.4,34.1,29.47,NE,45,0.0,0.0,62,0.00,,,0.00,VWS V14.01,2013-04-08 08:37:00,
2013-04-08 04:38:00,46.4,34.1,29.47,SE,135,0.0,0.0,62,0.00,,,0.00,VWS V14.01,2013-04-08 08:38:00,
2013-04-08 04:39:00,46.2,34.3,29.47,SE,135,1.1,1.1,63,0.00,,,0.00,VWS V14.01,2013-04-08 08:39:00,
2013-04-08 04:40:00,46.2,34.3,29.47,SE,135,0.0,0.0,63,0.00,,,0.00,VWS V14.01,2013-04-08 08:40:00,
2013-04-08 04:41:00,46.2,34.3,29.47,ENE,68,0.0,0.0,63,0.00,,,0.00,VWS V14.01,2013-04-08 08:41:00,
2013-04-08 04:42:00,46.2,34.3,29.47,ENE,68,0.0,0.0,63,0.00,,,0.00,VWS V14.01,2013-04-08 08:42:00,
2013-04-08 04:43:00,46.2,34.3,29.47,East,90,1.1,1.1,63,0.00,,,0.00,VWS V14.01,2013-04-08 08:43:00,
2013-04-08 04:44:00,46.2,34.3,29.47,East,90,0.0,0.0,63,0.00,,,0.00,VWS V14.01,2013-04-08 08:44:00,
2013-04-08 04:45:00,46.2,34.3,29.50,East,90,0.0,0.0,63,0.00,,,0.00,VWS V14.01,2013-04-08 08:45:00,
2013-04-08 04:46:00,46.2,34.3,29.50,East,90,0.0,0.0,63,0.00,,,0.00,VWS V14.01,2013-04-08 08:46:00,
2013-04-08 04:47:00,46.2,34.7,29.50,East,90,0.0,0.0,64,0.00,,,0.00,VWS V14.01,2013-04-08 08:47:00,
2013-04-08 04:48:00,46.2,34.7,29.50,East,90,0.0,0.0,64,0.00,,,0.00,VWS V14.01,2013-04-08 08:48:00,
2013-04-08 04:49:00,46.2,34.7,29.50,East,90,0.0,0.0,64,0.00,,,0.00,VWS V14.01,2013-04-08 08:49:00,
2013-04-08 04:50:00,46.2,34.7,29.50,SE,135,0.0,0.0,64,0.00,,,0.00,VWS V14.01,2013-04-08 08:50:00,
2013-04-08 04:51:00,46.2,34.7,29.50,SE,135,0.0,0.0,64,0.00,,,0.00,VWS V14.01,2013-04-08 08:51:00,
2013-04-08 04:52:00,46.2,34.7,29.50,East,90,0.0,0.0,64,0.00,,,0.00,VWS V14.01,2013-04-08 08:52:00,
2013-04-08 04:53:00,46.2,34.7,29.50,East,90,0.0,0.0,64,0.00,,,0.00,VWS V14.01,2013-04-08 08:53:00,
2013-04-08 04:54:00,46.0,34.6,29.50,East,90,0.0,0.0,64,0.00,,,0.00,VWS V14.01,2013-04-08 08:54:00,
2013-04-08 04:55:00,46.0,34.6,29.50,East,90,0.0,0.0,64,0.00,,,0.00,VWS V14.01,2013-04-08 08:55:00,
2013-04-08 04:56:00,46.0,34.2,29.50,SSE,158,2.5,2.5,63,0.00,,,0.00,VWS V14.01,2013-04-08 08:56:00,
2013-04-08 04:57:00,46.0,34.2,29.50,SSE,158,1.6,1.6,63,0.00,,,0.00,VWS V14.01,2013-04-08 08:57:00,
2013-04-08 04:58:00,46.0,34.2,29.50,SSE,158,0.0,0.0,63,0.00,,,0.00,VWS V14.01,2013-04-08 08:58:00,
2013-04-08 04:59:00,46.0,34.6,29.50,WSW,248,1.3,1.3,64,0.00,,,0.00,VWS V14.01,2013-04-08 08:59:00,
2013-04-08 05:00:00,45.9,34.8,29.50,SW,225,1.1,1.1,65,0.00,,,0.00,VWS V14.01,2013-04-08 09:00:00,
2013-04-08 05:01:00,45.9,35.2,29.50,SW,225,0.9,0.9,66,0.00,,,0.00,VWS V14.01,2013-04-08 09:01:00,
2013-04-08 05:02:00,45.7,34.6,29.50,SSW,202,2.5,2.5,65,0.00,,,0.00,VWS V14.01,2013-04-08 09:02:00,
2013-04-08 05:03:00,45.5,34.0,29.50,SSW,202,2.0,2.0,64,0.00,,,0.00,VWS V14.01,2013-04-08 09:03:00,
2013-04-08 05:04:00,45.5,34.0,29.50,SSW,202,0.0,0.0,64,0.00,,,0.00,VWS V14.01,2013-04-08 09:04:00,
2013-04-08 05:05:00,45.5,34.0,29.50,SSW,202,0.0,0.0,64,0.00,,,0.00,VWS V14.01,2013-04-08 09:05:00,
2013-04-08 05:06:00,45.5,34.0,29.50,South,180,2.0,2.0,64,0.00,,,0.00,VWS V14.01,2013-04-08 09:06:00,
2013-04-08 05:07:00,45.3,33.9,29.50,South,180,2.0,2.0,64,0.00,,,0.00,VWS V14.01,2013-04-08 09:07:00,
2013-04-08 05:08:00,45.5,34.0,29.50,South,180,0.9,0.9,64,0.00,,,0.00,VWS V14.01,2013-04-08 09:08:00,
2013-04-08 05:09:00,45.3,33.9,29.50,South,180,0.0,0.0,64,0.00,,,0.00,VWS V14.01,2013-04-08 09:09:00,
2013-04-08 05:10:00,45.3,34.3,29.50,WSW,248,0.0,0.0,65,0.00,,,0.00,VWS V14.01,2013-04-08 09:10:00,
2013-04-08 05:11:00,45.3,34.6,29.50,WSW,248,1.3,1.3,66,0.00,,,0.00,VWS V14.01,2013-04-08 09:11:00,
2013-04-08 05:12:00,45.3,34.6,29.50,WSW,248,1.3,1.3,66,0.00,,,0.00,VWS V14.01,2013-04-08 09:12:00,
2013-04-08 05:13:00,45.5,35.6,29.50,SSW,202,1.3,1.3,68,0.00,,,0.00,VWS V14.01,2013-04-08 09:13:00,
2013-04-08 05:14:00,45.3,35.4,29.50,SSW,202,1.6,1.6,68,0.00,,,0.00,VWS V14.01,2013-04-08 09:14:00,
2013-04-08 05:15:00,45.3,35.0,29.50,SSW,202,1.6,1.6,67,0.00,,,0.00,VWS V14.01,2013-04-08 09:15:00,
2013-04-08 05:16:00,45.3,34.6,29.50,SSW,202,2.2,2.2,66,0.00,,,0.00,VWS V14.01,2013-04-08 09:16:00,
2013-04-08 05:17:00,45.3,34.6,29.50,SW,225,1.6,1.6,66,0.00,,,0.00,VWS V14.01,2013-04-08 09:17:00,
2013-04-08 05:18:00,45.3,35.0,29.50,WSW,248,1.3,1.3,67,0.00,,,0.00,VWS V14.01,2013-04-08 09:18:00,
2013-04-08 05:19:00,45.3,35.0,29.50,WSW,248,0.0,0.0,67,0.00,,,0.00,VWS V14.01,2013-04-08 09:19:00,
2013-04-08 05:20:00,45.3,35.0,29.50,WSW,248,0.0,0.0,67,0.00,,,0.00,VWS V14.01,2013-04-08 09:20:00,
2013-04-08 05:21:00,45.3,35.4,29.50,SW,225,0.0,0.0,68,0.00,,,0.00,VWS V14.01,2013-04-08 09:21:00,
2013-04-08 05:22:00,45.3,35.4,29.50,SW,225,0.0,0.0,68,0.00,,,0.00,VWS V14.01,2013-04-08 09:22:00,
2013-04-08 05:23:00,45.3,35.0,29.50,SW,225,0.0,0.0,67,0.00,,,0.00,VWS V14.01,2013-04-08 09:23:00,
2013-04-08 05:24:00,45.3,35.0,29.50,SW,225,0.0,0.0,67,0.00,,,0.00,VWS V14.01,2013-04-08 09:24:00,
2013-04-08 05:25:00,45.3,34.6,29.50,SSW,202,0.0,0.0,66,0.00,,,0.00,VWS V14.01,2013-04-08 09:25:00,
2013-04-08 05:26:00,45.3,34.6,29.50,SSW,202,0.0,0.0,66,0.00,,,0.00,VWS V14.01,2013-04-08 09:26:00,
2013-04-08 05:27:00,45.3,35.0,29.50,SSW,202,0.0,0.0,67,0.00,,,0.00,VWS V14.01,2013-04-08 09:27:00,
2013-04-08 05:28:00,45.3,35.0,29.50,SSW,202,0.0,0.0,67,0.00,,,0.00,VWS V14.01,2013-04-08 09:28:00,
2013-04-08 05:29:00,45.1,34.5,29.50,SSW,202,0.0,0.0,66,0.00,,,0.00,VWS V14.01,2013-04-08 09:29:00,
2013-04-08 05:30:00,45.1,34.5,29.50,East,90,0.0,0.0,66,0.00,,,0.00,VWS V14.01,2013-04-08 09:30:00,
2013-04-08 05:31:00,45.1,34.5,29.50,ENE,68,0.0,0.0,66,0.00,,,0.00,VWS V14.01,2013-04-08 09:31:00,
2013-04-08 05:32:00,45.1,34.5,29.50,ENE,68,0.0,0.0,66,0.00,,,0.00,VWS V14.01,2013-04-08 09:32:00,
2013-04-08 05:33:00,45.1,34.5,29.50,ENE,68,0.0,0.0,66,0.00,,,0.00,VWS V14.01,2013-04-08 09:33:00,
2013-04-08 05:34:00,45.1,34.5,29.50,ENE,68,0.0,0.0,66,0.00,,,0.00,VWS V14.01,2013-04-08 09:34:00,
2013-04-08 05:35:00,45.1,34.5,29.50,ENE,68,0.0,0.0,66,0.00,,,0.00,VWS V14.01,2013-04-08 09:35:00,
2013-04-08 05:36:00,45.1,34.5,29.50,ENE,68,0.0,0.0,66,0.00,,,0.00,VWS V14.01,2013-04-08 09:36:00,
2013-04-08 05:37:00,45.1,34.5,29.50,ENE,68,0.0,0.0,66,0.00,,,0.00,VWS V14.01,2013-04-08 09:37:00,
2013-04-08 05:38:00,45.1,34.5,29.50,ENE,68,0.0,0.0,66,0.00,,,0.00,VWS V14.01,2013-04-08 09:38:00,
2013-04-08 05:39:00,45.1,34.5,29.50,ENE,68,0.0,0.0,66,0.00,,,0.00,VWS V14.01,2013-04-08 09:39:00,
2013-04-08 05:40:00,45.1,34.8,29.50,ENE,68,0.0,0.0,67,0.00,,,0.00,VWS V14.01,2013-04-08 09:40:00,
2013-04-08 05:41:00,45.3,35.0,29.50,NE,45,0.0,0.0,67,0.00,,,0.00,VWS V14.01,2013-04-08 09:41:00,
2013-04-08 05:42:00,45.1,34.8,29.50,NE,45,0.0,0.0,67,0.00,,,0.00,VWS V14.01,2013-04-08 09:42:00,
2013-04-08 05:43:00,45.1,34.8,29.50,NE,45,0.0,0.0,67,0.00,,,0.00,VWS V14.01,2013-04-08 09:43:00,
2013-04-08 05:44:00,45.1,35.6,29.50,SW,225,2.7,2.7,69,0.00,,,0.00,VWS V14.01,2013-04-08 09:44:00,
2013-04-08 05:45:00,45.1,35.6,29.50,WSW,248,2.5,2.5,69,0.00,,,0.00,VWS V14.01,2013-04-08 09:45:00,
2013-04-08 05:46:00,45.0,35.4,29.50,SW,225,3.4,3.4,69,0.00,,,0.00,VWS V14.01,2013-04-08 09:46:00,
2013-04-08 05:47:00,44.8,35.6,29.50,SW,225,2.2,2.2,70,0.00,,,0.00,VWS V14.01,2013-04-08 09:47:00,
2013-04-08 05:48:00,44.8,35.2,29.50,SSW,202,2.5,2.5,69,0.00,,,0.00,VWS V14.01,2013-04-08 09:48:00,
2013-04-08 05:49:00,44.8,35.6,29.50,SSW,202,2.7,2.7,70,0.00,,,0.00,VWS V14.01,2013-04-08 09:49:00,
2013-04-08 05:50:00,44.8,35.2,29.50,SSW,202,3.8,3.8,69,0.00,,,0.00,VWS V14.01,2013-04-08 09:50:00,
2013-04-08 05:51:00,44.8,36.0,29.50,SW,225,3.1,3.1,71,0.00,,,0.00,VWS V14.01,2013-04-08 09:51:00,
2013-04-08 05:52:00,44.8,36.3,29.50,SSW,202,3.4,3.4,72,0.00,,,0.00,VWS V14.01,2013-04-08 09:52:00,
2013-04-08 05:53:00,44.8,36.3,29.50,SW,225,2.7,2.7,72,0.00,,,0.00,VWS V14.01,2013-04-08 09:53:00,
2013-04-08 05:54:00,44.8,36.0,29.50,SW,225,2.5,2.5,71,0.00,,,0.00,VWS V14.01,2013-04-08 09:54:00,
2013-04-08 05:55:00,44.6,35.8,29.50,SSW,202,3.1,3.1,71,0.00,,,0.00,VWS V14.01,2013-04-08 09:55:00,
2013-04-08 05:56:00,44.4,35.6,29.50,SW,225,3.1,3.1,71,0.00,,,0.00,VWS V14.01,2013-04-08 09:56:00,
2013-04-08 05:57:00,44.4,36.0,29.50,SW,225,2.7,2.7,72,0.00,,,0.00,VWS V14.01,2013-04-08 09:57:00,
2013-04-08 05:58:00,44.2,35.8,29.50,WSW,248,2.5,2.5,72,0.00,,,0.00,VWS V14.01,2013-04-08 09:58:00,
2013-04-08 05:59:00,44.2,36.2,29.50,WSW,248,2.9,2.9,73,0.00,,,0.00,VWS V14.01,2013-04-08 09:59:00,
2013-04-08 06:00:00,44.2,36.2,29.50,WSW,248,2.5,2.5,73,0.00,,,0.00,VWS V14.01,2013-04-08 10:00:00,
2013-04-08 06:01:00,44.2,35.8,29.50,WSW,248,2.5,2.5,72,0.00,,,0.00,VWS V14.01,2013-04-08 10:01:00,
2013-04-08 06:02:00,44.2,35.8,29.50,SW,225,2.5,2.5,72,0.00,,,0.00,VWS V14.01,2013-04-08 10:02:00,
2013-04-08 06:03:00,44.4,35.6,29.50,WSW,248,2.2,2.2,71,0.00,,,0.00,VWS V14.01,2013-04-08 10:03:00,
2013-04-08 06:04:00,44.6,36.2,29.50,WSW,248,2.0,2.0,72,0.00,,,0.00,VWS V14.01,2013-04-08 10:04:00,
2013-04-08 06:05:00,44.6,36.2,29.50,WSW,248,2.5,2.5,72,0.00,,,0.00,VWS V14.01,2013-04-08 10:05:00,
2013-04-08 06:06:00,44.6,36.5,29.50,SW,225,2.5,2.5,73,0.00,,,0.00,VWS V14.01,2013-04-08 10:06:00,
2013-04-08 06:07:00,44.8,36.3,29.50,SW,225,1.6,1.6,72,0.00,,,0.00,VWS V14.01,2013-04-08 10:07:00,
2013-04-08 06:08:00,44.8,36.3,29.50,SW,225,1.1,1.1,72,0.00,,,0.00,VWS V14.01,2013-04-08 10:08:00,
2013-04-08 06:09:00,44.8,36.3,29.50,SSW,202,0.0,0.0,72,0.00,,,0.00,VWS V14.01,2013-04-08 10:09:00,
2013-04-08 06:10:00,44.8,36.3,29.50,SSW,202,0.0,0.0,72,0.00,,,0.00,VWS V14.01,2013-04-08 10:10:00,
2013-04-08 06:11:00,44.8,36.0,29.50,SSW,202,0.0,0.0,71,0.00,,,0.00,VWS V14.01,2013-04-08 10:11:00,
2013-04-08 06:12:00,44.8,36.0,29.50,SSW,202,0.0,0.0,71,0.00,,,0.00,VWS V14.01,2013-04-08 10:12:00,
2013-04-08 06:13:00,44.8,35.6,29.50,SSW,202,0.0,0.0,70,0.00,,,0.00,VWS V14.01,2013-04-08 10:13:00,
2013-04-08 06:14:00,44.8,35.6,29.50,SSW,202,0.0,0.0,70,0.00,,,0.00,VWS V14.01,2013-04-08 10:14:00,
2013-04-08 06:15:00,44.8,35.6,29.50,SSW,202,0.0,0.0,70,0.00,,,0.00,VWS V14.01,2013-04-08 10:15:00,
2013-04-08 06:16:00,44.8,35.6,29.50,NE,45,2.7,2.7,70,0.00,,,0.00,VWS V14.01,2013-04-08 10:16:00,
2013-04-08 06:17:00,44.8,35.2,29.50,NE,45,0.9,0.9,69,0.00,,,0.00,VWS V14.01,2013-04-08 10:17:00,
2013-04-08 06:18:00,44.8,35.2,29.50,NE,45,1.6,1.6,69,0.00,,,0.00,VWS V14.01,2013-04-08 10:18:00,
2013-04-08 06:19:00,44.8,35.2,29.50,ENE,68,2.7,2.7,69,0.00,,,0.00,VWS V14.01,2013-04-08 10:19:00,
2013-04-08 06:20:00,44.6,35.1,29.50,ENE,68,0.0,0.0,69,0.00,,,0.00,VWS V14.01,2013-04-08 10:20:00,
2013-04-08 06:21:00,44.6,35.1,29.50,ENE,68,0.0,0.0,69,0.00,,,0.00,VWS V14.01,2013-04-08 10:21:00,
2013-04-08 06:22:00,44.6,35.1,29.50,SE,135,0.0,0.0,69,0.00,,,0.00,VWS V14.01,2013-04-08 10:22:00,
2013-04-08 06:23:00,44.6,35.1,29.50,SSE,158,0.0,0.0,69,0.00,,,0.00,VWS V14.01,2013-04-08 10:23:00,
2013-04-08 06:24:00,44.4,35.3,29.50,SSE,158,0.0,0.0,70,0.00,,,0.00,VWS V14.01,2013-04-08 10:24:00,
2013-04-08 06:25:00,44.4,35.3,29.50,SSE,158,2.5,2.5,70,0.00,,,0.00,VWS V14.01,2013-04-08 10:25:00,
2013-04-08 06:26:00,44.4,34.9,29.50,SSE,158,2.0,2.0,69,0.00,,,0.00,VWS V14.01,2013-04-08 10:26:00,
2013-04-08 06:27:00,44.4,35.3,29.50,SSE,158,1.1,1.1,70,0.00,,,0.00,VWS V14.01,2013-04-08 10:27:00,
2013-04-08 06:28:00,44.2,35.1,29.50,SE,135,0.0,0.0,70,0.00,,,0.00,VWS V14.01,2013-04-08 10:28:00,
2013-04-08 06:29:00,44.2,35.1,29.50,SE,135,1.1,1.1,70,0.00,,,0.00,VWS V14.01,2013-04-08 10:29:00,
2013-04-08 06:30:00,44.2,35.1,29.50,SE,135,1.6,1.6,70,0.00,,,0.00,VWS V14.01,2013-04-08 10:30:00,
2013-04-08 06:31:00,44.2,35.1,29.50,SE,135,1.1,1.1,70,0.00,,,0.00,VWS V14.01,2013-04-08 10:31:00,
2013-04-08 06:32:00,44.2,35.1,29.50,SE,135,1.3,1.3,70,0.00,,,0.00,VWS V14.01,2013-04-08 10:32:00,
2013-04-08 06:33:00,44.2,35.1,29.50,SSE,158,1.3,1.3,70,0.00,,,0.00,VWS V14.01,2013-04-08 10:33:00,
2013-04-08 06:34:00,44.2,35.1,29.50,SSE,158,0.0,0.0,70,0.00,,,0.00,VWS V14.01,2013-04-08 10:34:00,
2013-04-08 06:35:00,44.4,35.3,29.50,SSE,158,0.0,0.0,70,0.00,,,0.00,VWS V14.01,2013-04-08 10:35:00,
2013-04-08 06:36:00,44.4,35.3,29.50,SSE,158,0.0,0.0,70,0.00,,,0.00,VWS V14.01,2013-04-08 10:36:00,
2013-04-08 06:37:00,44.4,35.3,29.50,ESE,112,0.0,0.0,70,0.00,,,0.00,VWS V14.01,2013-04-08 10:37:00,
2013-04-08 06:38:00,44.4,35.3,29.50,ESE,112,0.0,0.0,70,0.00,,,0.00,VWS V14.01,2013-04-08 10:38:00,
2013-04-08 06:39:00,44.4,35.3,29.50,ESE,112,0.0,0.0,70,0.00,,,0.00,VWS V14.01,2013-04-08 10:39:00,
2013-04-08 06:40:00,44.4,35.3,29.50,NE,45,0.0,0.0,70,0.00,,,0.00,VWS V14.01,2013-04-08 10:40:00,
2013-04-08 06:41:00,44.4,35.3,29.50,NNE,22,2.5,2.5,70,0.00,,,0.00,VWS V14.01,2013-04-08 10:41:00,
2013-04-08 06:42:00,44.2,35.1,29.50,NNE,22,3.1,3.1,70,0.00,,,0.00,VWS V14.01,2013-04-08 10:42:00,
2013-04-08 06:43:00,44.2,35.1,29.50,NNE,22,2.9,2.9,70,0.00,,,0.00,VWS V14.01,2013-04-08 10:43:00,
2013-04-08 06:44:00,44.1,34.6,29.50,NNE,22,4.3,4.3,69,0.00,,,0.00,VWS V14.01,2013-04-08 10:44:00,
2013-04-08 06:45:00,44.1,34.6,29.53,NNE,22,3.1,3.1,69,0.00,,,0.00,VWS V14.01,2013-04-08 10:45:00,
2013-04-08 06:46:00,44.1,34.6,29.53,NNE,22,3.1,3.1,69,0.00,,,0.00,VWS V14.01,2013-04-08 10:46:00,
2013-04-08 06:47:00,43.9,34.4,29.53,NNE,22,3.6,3.6,69,0.00,,,0.00,VWS V14.01,2013-04-08 10:47:00,
2013-04-08 06:48:00,43.9,34.0,29.53,NNE,22,2.2,2.2,68,0.00,,,0.00,VWS V14.01,2013-04-08 10:48:00,
2013-04-08 06:49:00,43.7,34.2,29.53,NNE,22,2.7,2.7,69,0.00,,,0.00,VWS V14.01,2013-04-08 10:49:00,
2013-04-08 06:50:00,43.7,34.2,29.53,North,0,0.0,0.0,69,0.00,,,0.00,VWS V14.01,2013-04-08 10:50:00,
2013-04-08 06:51:00,43.7,34.6,29.53,North,0,2.5,2.5,70,0.00,,,0.00,VWS V14.01,2013-04-08 10:51:00,
2013-04-08 06:52:00,43.9,34.7,29.53,North,0,2.7,2.7,70,0.00,,,0.00,VWS V14.01,2013-04-08 10:52:00,
2013-04-08 06:53:00,43.9,34.7,29.53,NW,315,2.7,2.7,70,0.00,,,0.00,VWS V14.01,2013-04-08 10:53:00,
2013-04-08 06:54:00,43.9,34.7,29.53,NNW,338,2.0,2.0,70,0.00,,,0.00,VWS V14.01,2013-04-08 10:54:00,
2013-04-08 06:55:00,43.9,34.7,29.53,NNW,338,1.6,1.6,70,0.00,,,0.00,VWS V14.01,2013-04-08 10:55:00,
2013-04-08 06:56:00,44.1,34.9,29.53,NNW,338,1.6,1.6,70,0.00,,,0.00,VWS V14.01,2013-04-08 10:56:00,
2013-04-08 06:57:00,44.1,34.9,29.53,NNW,338,1.6,1.6,70,0.00,,,0.00,VWS V14.01,2013-04-08 10:57:00,
2013-04-08 06:58:00,44.1,35.3,29.53,NNW,338,2.0,2.0,71,0.00,,,0.00,VWS V14.01,2013-04-08 10:58:00,
2013-04-08 06:59:00,44.1,35.3,29.53,NNW,338,0.9,0.9,71,0.00,,,0.00,VWS V14.01,2013-04-08 10:59:00,
2013-04-08 07:00:00,44.1,35.3,29.53,NNW,338,0.0,0.0,71,0.00,,,0.00,VWS V14.01,2013-04-08 11:00:00,
2013-04-08 07:01:00,44.2,35.5,29.53,NNW,338,0.0,0.0,71,0.00,,,0.00,VWS V14.01,2013-04-08 11:01:00,
2013-04-08 07:02:00,44.2,35.5,29.53,NNW,338,0.0,0.0,71,0.00,,,0.00,VWS V14.01,2013-04-08 11:02:00,
2013-04-08 07:03:00,44.2,35.5,29.53,NNW,338,0.0,0.0,71,0.00,,,0.00,VWS V14.01,2013-04-08 11:03:00,
2013-04-08 07:04:00,44.2,35.5,29.53,NNW,338,0.0,0.0,71,0.00,,,0.00,VWS V14.01,2013-04-08 11:04:00,
2013-04-08 07:05:00,44.4,35.3,29.53,NNW,338,0.0,0.0,70,0.00,,,0.00,VWS V14.01,2013-04-08 11:05:00,
2013-04-08 07:06:00,44.4,35.3,29.53,North,0,0.0,0.0,70,0.00,,,0.00,VWS V14.01,2013-04-08 11:06:00,
2013-04-08 07:07:00,44.4,35.3,29.53,North,0,1.6,1.6,70,0.00,,,0.00,VWS V14.01,2013-04-08 11:07:00,
2013-04-08 07:08:00,44.4,35.3,29.53,NNE,22,2.5,2.5,70,0.00,,,0.00,VWS V14.01,2013-04-08 11:08:00,
2013-04-08 07:09:00,44.4,35.3,29.53,NNE,22,2.7,2.7,70,0.00,,,0.00,VWS V14.01,2013-04-08 11:09:00,
2013-04-08 07:10:00,44.4,35.3,29.53,NNE,22,2.7,2.7,70,0.00,,,0.00,VWS V14.01,2013-04-08 11:10:00,
2013-04-08 07:11:00,44.4,35.3,29.53,NNE,22,2.5,2.5,70,0.00,,,0.00,VWS V14.01,2013-04-08 11:11:00,
2013-04-08 07:12:00,44.4,35.3,29.53,NNE,22,1.3,1.3,70,0.00,,,0.00,VWS V14.01,2013-04-08 11:12:00,
2013-04-08 07:13:00,44.4,35.3,29.53,NNE,22,0.0,0.0,70,0.00,,,0.00,VWS V14.01,2013-04-08 11:13:00,
2013-04-08 07:14:00,44.6,35.4,29.53,NNE,22,0.0,0.0,70,0.00,,,0.00,VWS V14.01,2013-04-08 11:14:00,
2013-04-08 07:15:00,44.6,35.4,29.56,NNE,22,0.0,0.0,70,0.00,,,0.00,VWS V14.01,2013-04-08 11:15:00,
2013-04-08 07:16:00,44.6,35.4,29.56,West,270,0.0,0.0,70,0.00,,,0.00,VWS V14.01,2013-04-08 11:16:00,
2013-04-08 07:17:00,44.6,35.4,29.56,West,270,0.0,0.0,70,0.00,,,0.00,VWS V14.01,2013-04-08 11:17:00,
2013-04-08 07:18:00,44.6,35.8,29.56,West,270,0.0,0.0,71,0.00,,,0.00,VWS V14.01,2013-04-08 11:18:00,
2013-04-08 07:19:00,44.6,35.8,29.56,West,270,0.0,0.0,71,0.00,,,0.00,VWS V14.01,2013-04-08 11:19:00,
2013-04-08 07:20:00,44.6,35.8,29.56,West,270,0.0,0.0,71,0.00,,,0.00,VWS V14.01,2013-04-08 11:20:00,
2013-04-08 07:21:00,44.8,36.0,29.56,West,270,0.0,0.0,71,0.00,,,0.00,VWS V14.01,2013-04-08 11:21:00,
2013-04-08 07:22:00,44.8,36.0,29.56,WNW,292,0.0,0.0,71,0.00,,,0.00,VWS V14.01,2013-04-08 11:22:00,
2013-04-08 07:23:00,44.8,36.0,29.56,WNW,292,0.0,0.0,71,0.00,,,0.00,VWS V14.01,2013-04-08 11:23:00,
2013-04-08 07:24:00,45.0,36.5,29.56,WNW,292,0.0,0.0,72,0.00,,,0.00,VWS V14.01,2013-04-08 11:24:00,
2013-04-08 07:25:00,45.0,36.5,29.56,WNW,292,1.3,1.3,72,0.00,,,0.00,VWS V14.01,2013-04-08 11:25:00,
2013-04-08 07:26:00,45.0,36.5,29.56,WNW,292,1.3,1.3,72,0.00,,,0.00,VWS V14.01,2013-04-08 11:26:00,
2013-04-08 07:27:00,45.0,36.5,29.56,WNW,292,0.9,0.9,72,0.00,,,0.00,VWS V14.01,2013-04-08 11:27:00,
2013-04-08 07:28:00,45.1,36.7,29.56,NW,315,0.0,0.0,72,0.00,,,0.00,VWS V14.01,2013-04-08 11:28:00,
2013-04-08 07:29:00,45.1,36.7,29.56,NW,315,0.0,0.0,72,0.00,,,0.00,VWS V14.01,2013-04-08 11:29:00,
2013-04-08 07:30:00,45.3,36.5,29.56,NW,315,0.0,0.0,71,0.00,,,0.00,VWS V14.01,2013-04-08 11:30:00,
2013-04-08 07:31:00,45.3,36.5,29.56,NW,315,0.0,0.0,71,0.00,,,0.00,VWS V14.01,2013-04-08 11:31:00,
2013-04-08 07:32:00,45.3,36.5,29.56,NW,315,0.0,0.0,71,0.00,,,0.00,VWS V14.01,2013-04-08 11:32:00,
2013-04-08 07:33:00,45.5,36.7,29.56,NNW,338,0.0,0.0,71,0.00,,,0.00,VWS V14.01,2013-04-08 11:33:00,
2013-04-08 07:34:00,45.5,36.7,29.56,NNW,338,0.0,0.0,71,0.00,,,0.00,VWS V14.01,2013-04-08 11:34:00,
2013-04-08 07:35:00,45.7,36.8,29.56,NNW,338,0.0,0.0,71,0.00,,,0.00,VWS V14.01,2013-04-08 11:35:00,
2013-04-08 07:36:00,45.7,36.8,29.56,NNW,338,0.0,0.0,71,0.00,,,0.00,VWS V14.01,2013-04-08 11:36:00,
2013-04-08 07:37:00,45.9,37.0,29.56,NNW,338,0.0,0.0,71,0.00,,,0.00,VWS V14.01,2013-04-08 11:37:00,
2013-04-08 07:38:00,45.9,37.0,29.56,NNW,338,0.0,0.0,71,0.00,,,0.00,VWS V14.01,2013-04-08 11:38:00,
2013-04-08 07:39:00,45.9,37.0,29.56,NNW,338,1.1,1.1,71,0.00,,,0.00,VWS V14.01,2013-04-08 11:39:00,
2013-04-08 07:40:00,46.0,37.2,29.56,North,0,1.6,1.6,71,0.00,,,0.00,VWS V14.01,2013-04-08 11:40:00,
2013-04-08 07:41:00,46.0,37.2,29.56,NNE,22,1.6,1.6,71,0.00,,,0.00,VWS V14.01,2013-04-08 11:41:00,
2013-04-08 07:42:00,46.0,37.2,29.56,NNE,22,2.5,2.5,71,0.00,,,0.00,VWS V14.01,2013-04-08 11:42:00,
2013-04-08 07:43:00,46.2,37.3,29.56,NNE,22,3.1,3.1,71,0.00,,,0.00,VWS V14.01,2013-04-08 11:43:00,
2013-04-08 07:44:00,46.2,37.3,29.56,NNE,22,2.2,2.2,71,0.00,,,0.00,VWS V14.01,2013-04-08 11:44:00,
2013-04-08 07:45:00,46.2,37.3,29.56,NNE,22,2.0,2.0,71,0.00,,,0.00,VWS V14.01,2013-04-08 11:45:00,
2013-04-08 07:46:00,46.4,37.2,29.53,NNE,22,1.3,1.3,70,0.00,,,0.00,VWS V14.01,2013-04-08 11:46:00,
2013-04-08 07:47:00,46.4,37.2,29.53,NNE,22,1.6,1.6,70,0.00,,,0.00,VWS V14.01,2013-04-08 11:47:00,
2013-04-08 07:48:00,46.4,37.2,29.53,NNE,22,1.3,1.3,70,0.00,,,0.00,VWS V14.01,2013-04-08 11:48:00,
2013-04-08 07:49:00,46.6,37.3,29.53,NNE,22,1.1,1.1,70,0.00,,,0.00,VWS V14.01,2013-04-08 11:49:00,
2013-04-08 07:50:00,46.6,37.3,29.53,NNE,22,0.0,0.0,70,0.00,,,0.00,VWS V14.01,2013-04-08 11:50:00,
2013-04-08 07:51:00,46.8,37.5,29.53,NNE,22,0.0,0.0,70,0.00,,,0.00,VWS V14.01,2013-04-08 11:51:00,
2013-04-08 07:52:00,46.8,37.5,29.53,NNE,22,0.0,0.0,70,0.00,,,0.00,VWS V14.01,2013-04-08 11:52:00,
2013-04-08 07:53:00,46.8,37.5,29.53,NNE,22,1.1,1.1,70,0.00,,,0.00,VWS V14.01,2013-04-08 11:53:00,
2013-04-08 07:54:00,46.8,37.5,29.53,NNE,22,0.0,0.0,70,0.00,,,0.00,VWS V14.01,2013-04-08 11:54:00,
2013-04-08 07:55:00,46.9,37.7,29.53,NNE,22,0.9,0.9,70,0.00,,,0.00,VWS V14.01,2013-04-08 11:55:00,
2013-04-08 07:56:00,46.9,37.7,29.53,NNE,22,1.1,1.1,70,0.00,,,0.00,VWS V14.01,2013-04-08 11:56:00,
2013-04-08 07:57:00,46.9,37.7,29.53,NNE,22,0.0,0.0,70,0.00,,,0.00,VWS V14.01,2013-04-08 11:57:00,
2013-04-08 07:58:00,47.1,37.8,29.53,NNE,22,0.0,0.0,70,0.00,,,0.00,VWS V14.01,2013-04-08 11:58:00,
2013-04-08 07:59:00,47.1,37.8,29.53,NNE,22,1.6,1.6,70,0.00,,,0.00,VWS V14.01,2013-04-08 11:59:00,
2013-04-08 08:00:00,47.1,37.8,29.56,NNE,22,2.2,2.2,70,0.00,,,0.00,VWS V14.01,2013-04-08 12:00:00,
2013-04-08 08:01:00,47.3,38.0,29.56,NNE,22,2.5,2.5,70,0.00,,,0.00,VWS V14.01,2013-04-08 12:01:00,
2013-04-08 08:02:00,47.3,38.0,29.56,NNE,22,3.1,3.1,70,0.00,,,0.00,VWS V14.01,2013-04-08 12:02:00,
2013-04-08 08:03:00,47.3,38.0,29.56,NNE,22,2.7,2.7,70,0.00,,,0.00,VWS V14.01,2013-04-08 12:03:00,
2013-04-08 08:04:00,47.3,38.0,29.56,NNE,22,2.9,2.9,70,0.00,,,0.00,VWS V14.01,2013-04-08 12:04:00,
2013-04-08 08:05:00,47.5,38.2,29.56,NNE,22,3.4,3.4,70,0.00,,,0.00,VWS V14.01,2013-04-08 12:05:00,
2013-04-08 08:06:00,47.5,38.2,29.56,NNE,22,3.8,3.8,70,0.00,,,0.00,VWS V14.01,2013-04-08 12:06:00,
2013-04-08 08:07:00,47.7,38.4,29.56,NNE,22,4.3,4.3,70,0.00,,,0.00,VWS V14.01,2013-04-08 12:07:00,
2013-04-08 08:08:00,47.7,38.4,29.56,NNE,22,3.4,3.4,70,0.00,,,0.00,VWS V14.01,2013-04-08 12:08:00,
2013-04-08 08:09:00,47.7,38.4,29.56,NNE,22,2.9,2.9,70,0.00,,,0.00,VWS V14.01,2013-04-08 12:09:00,
2013-04-08 08:10:00,47.8,38.5,29.56,NE,45,2.9,2.9,70,0.00,,,0.00,VWS V14.01,2013-04-08 12:10:00,
2013-04-08 08:11:00,47.8,38.9,29.56,NNE,22,3.1,3.1,71,0.00,,,0.00,VWS V14.01,2013-04-08 12:11:00,
2013-04-08 08:12:00,47.8,38.9,29.56,NE,45,3.6,3.6,71,0.00,,,0.00,VWS V14.01,2013-04-08 12:12:00,
2013-04-08 08:13:00,48.0,38.7,29.56,East,90,3.1,3.1,70,0.00,,,0.00,VWS V14.01,2013-04-08 12:13:00,
2013-04-08 08:14:00,48.2,38.9,29.56,ENE,68,1.3,1.3,70,0.00,,,0.00,VWS V14.01,2013-04-08 12:14:00,
2013-04-08 08:15:00,48.2,38.9,29.53,East,90,3.1,3.1,70,0.00,,,0.00,VWS V14.01,2013-04-08 12:15:00,
2013-04-08 08:16:00,48.2,38.9,29.53,ENE,68,3.6,3.6,70,0.00,,,0.00,VWS V14.01,2013-04-08 12:16:00,
2013-04-08 08:17:00,48.4,38.7,29.53,ENE,68,3.1,3.1,69,0.00,,,0.00,VWS V14.01,2013-04-08 12:17:00,
2013-04-08 08:18:00,48.4,38.7,29.53,East,90,3.4,3.4,69,0.00,,,0.00,VWS V14.01,2013-04-08 12:18:00,
2013-04-08 08:19:00,48.6,38.9,29.53,East,90,3.1,3.1,69,0.00,,,0.00,VWS V14.01,2013-04-08 12:19:00,
2013-04-08 08:20:00,48.6,38.9,29.53,East,90,1.6,1.6,69,0.00,,,0.00,VWS V14.01,2013-04-08 12:20:00,
2013-04-08 08:21:00,48.7,39.0,29.53,NE,45,3.4,3.4,69,0.00,,,0.00,VWS V14.01,2013-04-08 12:21:00,
2013-04-08 08:22:00,48.7,39.0,29.53,ENE,68,2.7,2.7,69,0.00,,,0.00,VWS V14.01,2013-04-08 12:22:00,
2013-04-08 08:23:00,48.9,39.2,29.53,ENE,68,3.1,3.1,69,0.00,,,0.00,VWS V14.01,2013-04-08 12:23:00,
2013-04-08 08:24:00,48.9,39.2,29.53,ENE,68,4.9,4.9,69,0.00,,,0.00,VWS V14.01,2013-04-08 12:24:00,
2013-04-08 08:25:00,49.1,39.4,29.53,ESE,112,5.6,5.6,69,0.00,,,0.00,VWS V14.01,2013-04-08 12:25:00,
2013-04-08 08:26:00,49.1,39.4,29.53,ESE,112,3.6,3.6,69,0.00,,,0.00,VWS V14.01,2013-04-08 12:26:00,
2013-04-08 08:27:00,49.3,39.5,29.53,East,90,3.6,3.6,69,0.00,,,0.00,VWS V14.01,2013-04-08 12:27:00,
2013-04-08 08:28:00,49.3,39.2,29.53,ENE,68,5.6,5.6,68,0.00,,,0.00,VWS V14.01,2013-04-08 12:28:00,
2013-04-08 08:29:00,49.5,39.3,29.53,East,90,4.0,4.0,68,0.00,,,0.00,VWS V14.01,2013-04-08 12:29:00,
2013-04-08 08:30:00,49.5,39.3,29.53,NE,45,3.6,3.6,68,0.00,,,0.00,VWS V14.01,2013-04-08 12:30:00,
2013-04-08 08:31:00,49.5,39.3,29.53,East,90,4.3,4.3,68,0.00,,,0.00,VWS V14.01,2013-04-08 12:31:00,
2013-04-08 08:32:00,49.6,39.5,29.53,ENE,68,3.4,3.4,68,0.00,,,0.00,VWS V14.01,2013-04-08 12:32:00,
2013-04-08 08:33:00,49.6,39.5,29.53,East,90,2.7,2.7,68,0.00,,,0.00,VWS V14.01,2013-04-08 12:33:00,
2013-04-08 08:34:00,49.8,39.7,29.53,ENE,68,2.9,2.9,68,0.00,,,0.00,VWS V14.01,2013-04-08 12:34:00,
2013-04-08 08:35:00,49.8,39.7,29.53,East,90,3.8,3.8,68,0.00,,,0.00,VWS V14.01,2013-04-08 12:35:00,
2013-04-08 08:36:00,50.0,39.9,29.53,ENE,68,4.0,4.0,68,0.00,,,0.00,VWS V14.01,2013-04-08 12:36:00,
2013-04-08 08:37:00,50.2,40.0,29.53,NNE,22,3.1,3.1,68,0.00,,,0.00,VWS V14.01,2013-04-08 12:37:00,
2013-04-08 08:38:00,50.2,40.0,29.53,ENE,68,2.7,2.7,68,0.00,,,0.00,VWS V14.01,2013-04-08 12:38:00,
2013-04-08 08:39:00,50.2,40.0,29.53,NE,45,3.6,3.6,68,0.00,,,0.00,VWS V14.01,2013-04-08 12:39:00,
2013-04-08 08:40:00,50.2,40.0,29.53,NE,45,4.3,4.3,68,0.00,,,0.00,VWS V14.01,2013-04-08 12:40:00,
2013-04-08 08:41:00,50.4,40.2,29.53,ENE,68,5.4,5.4,68,0.00,,,0.00,VWS V14.01,2013-04-08 12:41:00,
2013-04-08 08:42:00,50.4,40.2,29.53,NE,45,3.8,3.8,68,0.00,,,0.00,VWS V14.01,2013-04-08 12:42:00,
2013-04-08 08:43:00,50.5,40.0,29.53,East,90,4.7,4.7,67,0.00,,,0.00,VWS V14.01,2013-04-08 12:43:00,
2013-04-08 08:44:00,50.7,40.2,29.53,NNE,22,5.8,5.8,67,0.00,,,0.00,VWS V14.01,2013-04-08 12:44:00,
2013-04-08 08:45:00,50.7,40.2,29.56,ENE,68,5.4,5.4,67,0.00,,,0.00,VWS V14.01,2013-04-08 12:45:00,
2013-04-08 08:46:00,50.9,40.3,29.56,NE,45,5.6,5.6,67,0.00,,,0.00,VWS V14.01,2013-04-08 12:46:00,
2013-04-08 08:47:00,50.9,40.3,29.56,NE,45,6.5,6.5,67,0.00,,,0.00,VWS V14.01,2013-04-08 12:47:00,
2013-04-08 08:48:00,51.1,40.5,29.56,NE,45,5.4,5.4,67,0.00,,,0.00,VWS V14.01,2013-04-08 12:48:00,
2013-04-08 08:49:00,51.1,40.5,29.56,ESE,112,4.0,4.0,67,0.00,,,0.00,VWS V14.01,2013-04-08 12:49:00,
2013-04-08 08:50:00,51.1,40.5,29.56,ESE,112,6.5,6.5,67,0.00,,,0.00,VWS V14.01,2013-04-08 12:50:00,
2013-04-08 08:51:00,51.3,40.7,29.56,NE,45,3.8,3.8,67,0.00,,,0.00,VWS V14.01,2013-04-08 12:51:00,
2013-04-08 08:52:00,51.4,40.5,29.56,NE,45,3.6,3.6,66,0.00,,,0.00,VWS V14.01,2013-04-08 12:52:00,
2013-04-08 08:53:00,51.4,40.5,29.56,ENE,68,7.6,7.6,66,0.00,,,0.00,VWS V14.01,2013-04-08 12:53:00,
2013-04-08 08:54:00,51.4,40.5,29.56,NE,45,7.4,7.4,66,0.00,,,0.00,VWS V14.01,2013-04-08 12:54:00,
2013-04-08 08:55:00,51.6,40.7,29.56,East,90,4.9,4.9,66,0.00,,,0.00,VWS V14.01,2013-04-08 12:55:00,
2013-04-08 08:56:00,51.6,40.7,29.56,ENE,68,4.3,4.3,66,0.00,,,0.00,VWS V14.01,2013-04-08 12:56:00,
2013-04-08 08:57:00,51.6,40.7,29.56,NE,45,8.1,8.1,66,0.00,,,0.00,VWS V14.01,2013-04-08 12:57:00,
2013-04-08 08:58:00,51.8,40.4,29.56,ENE,68,8.5,8.5,65,0.00,,,0.00,VWS V14.01,2013-04-08 12:58:00,
2013-04-08 08:59:00,52.0,40.2,29.56,ENE,68,6.3,6.3,64,0.00,,,0.00,VWS V14.01,2013-04-08 12:59:00,
2013-04-08 09:00:00,52.0,40.2,29.53,NE,45,4.3,4.3,64,0.00,,,0.00,VWS V14.01,2013-04-08 13:00:00,
2013-04-08 09:01:00,52.2,40.4,29.53,ENE,68,4.3,4.3,64,0.00,,,0.00,VWS V14.01,2013-04-08 13:01:00,
2013-04-08 09:02:00,52.2,40.4,29.53,NE,45,6.5,6.5,64,0.00,,,0.00,VWS V14.01,2013-04-08 13:02:00,
2013-04-08 09:03:00,52.2,40.0,29.53,ENE,68,6.9,6.9,63,0.00,,,0.00,VWS V14.01,2013-04-08 13:03:00,
2013-04-08 09:04:00,52.3,40.1,29.53,NE,45,6.3,6.3,63,0.00,,,0.00,VWS V14.01,2013-04-08 13:04:00,
2013-04-08 09:05:00,52.3,40.1,29.53,ENE,68,3.4,3.4,63,0.00,,,0.00,VWS V14.01,2013-04-08 13:05:00,
2013-04-08 09:06:00,52.5,40.3,29.53,NE,45,4.0,4.0,63,0.00,,,0.00,VWS V14.01,2013-04-08 13:06:00,
2013-04-08 09:07:00,52.7,40.9,29.53,East,90,8.1,8.1,64,0.00,,,0.00,VWS V14.01,2013-04-08 13:07:00,
2013-04-08 09:08:00,52.9,40.6,29.53,ENE,68,7.4,7.4,63,0.00,,,0.00,VWS V14.01,2013-04-08 13:08:00,
2013-04-08 09:09:00,53.1,40.8,29.53,NE,45,6.7,6.7,63,0.00,,,0.00,VWS V14.01,2013-04-08 13:09:00,
2013-04-08 09:10:00,53.1,40.8,29.53,NE,45,5.8,5.8,63,0.00,,,0.00,VWS V14.01,2013-04-08 13:10:00,
2013-04-08 09:11:00,53.1,40.8,29.53,ENE,68,7.6,7.6,63,0.00,,,0.00,VWS V14.01,2013-04-08 13:11:00,
2013-04-08 09:12:00,53.1,40.8,29.53,NE,45,5.6,5.6,63,0.00,,,0.00,VWS V14.01,2013-04-08 13:12:00,
2013-04-08 09:13:00,53.2,40.6,29.53,NE,45,6.5,6.5,62,0.00,,,0.00,VWS V14.01,2013-04-08 13:13:00,
2013-04-08 09:14:00,53.2,40.6,29.53,NE,45,6.9,6.9,62,0.00,,,0.00,VWS V14.01,2013-04-08 13:14:00,
2013-04-08 09:15:00,53.4,40.7,29.56,ENE,68,4.0,4.0,62,0.00,,,0.00,VWS V14.01,2013-04-08 13:15:00,
2013-04-08 09:16:00,53.4,40.3,29.56,East,90,4.0,4.0,61,0.00,,,0.00,VWS V14.01,2013-04-08 13:16:00,
2013-04-08 09:17:00,53.6,40.5,29.56,NE,45,8.7,8.7,61,0.00,,,0.00,VWS V14.01,2013-04-08 13:17:00,
2013-04-08 09:18:00,53.6,40.1,29.56,ENE,68,5.4,5.4,60,0.00,,,0.00,VWS V14.01,2013-04-08 13:18:00,
2013-04-08 09:19:00,53.8,40.7,29.56,NE,45,7.6,7.6,61,0.00,,,0.00,VWS V14.01,2013-04-08 13:19:00,
2013-04-08 09:20:00,54.0,40.8,29.56,NE,45,4.3,4.3,61,0.00,,,0.00,VWS V14.01,2013-04-08 13:20:00,
2013-04-08 09:21:00,54.0,40.4,29.56,East,90,6.0,6.0,60,0.00,,,0.00,VWS V14.01,2013-04-08 13:21:00,
2013-04-08 09:22:00,54.0,40.4,29.56,ENE,68,6.0,6.0,60,0.00,,,0.00,VWS V14.01,2013-04-08 13:22:00,
2013-04-08 09:23:00,54.1,40.6,29.56,ENE,68,6.0,6.0,60,0.00,,,0.00,VWS V14.01,2013-04-08 13:23:00,
2013-04-08 09:24:00,54.1,40.6,29.56,East,90,2.5,2.5,60,0.00,,,0.00,VWS V14.01,2013-04-08 13:24:00,
2013-04-08 09:25:00,54.1,40.1,29.56,ESE,112,5.4,5.4,59,0.00,,,0.00,VWS V14.01,2013-04-08 13:25:00,
2013-04-08 09:26:00,54.1,40.1,29.56,SE,135,5.8,5.8,59,0.00,,,0.00,VWS V14.01,2013-04-08 13:26:00,
2013-04-08 09:27:00,54.3,40.3,29.56,ESE,112,6.3,6.3,59,0.00,,,0.00,VWS V14.01,2013-04-08 13:27:00,
2013-04-08 09:28:00,54.3,40.8,29.56,East,90,7.8,7.8,60,0.00,,,0.00,VWS V14.01,2013-04-08 13:28:00,
2013-04-08 09:29:00,54.5,40.5,29.56,East,90,7.2,7.2,59,0.00,,,0.00,VWS V14.01,2013-04-08 13:29:00,
2013-04-08 09:30:00,54.5,40.5,29.56,ENE,68,5.6,5.6,59,0.00,,,0.00,VWS V14.01,2013-04-08 13:30:00,
2013-04-08 09:31:00,54.5,40.5,29.56,East,90,3.8,3.8,59,0.00,,,0.00,VWS V14.01,2013-04-08 13:31:00,
2013-04-08 09:32:00,54.5,40.5,29.56,East,90,3.6,3.6,59,0.00,,,0.00,VWS V14.01,2013-04-08 13:32:00,
2013-04-08 09:33:00,54.5,40.5,29.56,NE,45,3.8,3.8,59,0.00,,,0.00,VWS V14.01,2013-04-08 13:33:00,
2013-04-08 09:34:00,54.7,40.7,29.56,ESE,112,6.5,6.5,59,0.00,,,0.00,VWS V14.01,2013-04-08 13:34:00,
2013-04-08 09:35:00,54.7,40.7,29.56,ESE,112,6.5,6.5,59,0.00,,,0.00,VWS V14.01,2013-04-08 13:35:00,
2013-04-08 09:36:00,54.9,40.8,29.56,NE,45,3.4,3.4,59,0.00,,,0.00,VWS V14.01,2013-04-08 13:36:00,
2013-04-08 09:37:00,54.9,40.8,29.56,ESE,112,4.0,4.0,59,0.00,,,0.00,VWS V14.01,2013-04-08 13:37:00,
2013-04-08 09:38:00,54.9,40.8,29.56,East,90,5.8,5.8,59,0.00,,,0.00,VWS V14.01,2013-04-08 13:38:00,
2013-04-08 09:39:00,55.0,41.0,29.56,East,90,4.7,4.7,59,0.00,,,0.00,VWS V14.01,2013-04-08 13:39:00,
2013-04-08 09:40:00,55.0,41.0,29.56,ENE,68,3.6,3.6,59,0.00,,,0.00,VWS V14.01,2013-04-08 13:40:00,
2013-04-08 09:41:00,55.2,41.2,29.56,ENE,68,4.0,4.0,59,0.00,,,0.00,VWS V14.01,2013-04-08 13:41:00,
2013-04-08 09:42:00,55.2,41.2,29.56,East,90,6.5,6.5,59,0.00,,,0.00,VWS V14.01,2013-04-08 13:42:00,
2013-04-08 09:43:00,55.4,40.9,29.56,ENE,68,3.1,3.1,58,0.00,,,0.00,VWS V14.01,2013-04-08 13:43:00,
2013-04-08 09:44:00,55.4,40.9,29.56,ENE,68,5.4,5.4,58,0.00,,,0.00,VWS V14.01,2013-04-08 13:44:00,
2013-04-08 09:45:00,55.6,40.6,29.56,ENE,68,6.0,6.0,57,0.00,,,0.00,VWS V14.01,2013-04-08 13:45:00,
2013-04-08 09:46:00,55.6,40.6,29.56,ENE,68,3.4,3.4,57,0.00,,,0.00,VWS V14.01,2013-04-08 13:46:00,
2013-04-08 09:47:00,55.6,40.6,29.56,ENE,68,6.5,6.5,57,0.00,,,0.00,VWS V14.01,2013-04-08 13:47:00,
2013-04-08 09:48:00,55.6,40.6,29.56,ENE,68,6.9,6.9,57,0.00,,,0.00,VWS V14.01,2013-04-08 13:48:00,
2013-04-08 09:49:00,55.8,40.3,29.56,NNE,22,7.4,7.4,56,0.00,,,0.00,VWS V14.01,2013-04-08 13:49:00,
2013-04-08 09:50:00,55.8,40.3,29.56,ENE,68,5.4,5.4,56,0.00,,,0.00,VWS V14.01,2013-04-08 13:50:00,
2013-04-08 09:51:00,55.9,40.5,29.56,SE,135,3.4,3.4,56,0.00,,,0.00,VWS V14.01,2013-04-08 13:51:00,
2013-04-08 09:52:00,55.9,40.5,29.56,East,90,3.6,3.6,56,0.00,,,0.00,VWS V14.01,2013-04-08 13:52:00,
2013-04-08 09:53:00,55.9,40.5,29.56,ENE,68,3.6,3.6,56,0.00,,,0.00,VWS V14.01,2013-04-08 13:53:00,
2013-04-08 09:54:00,56.1,40.7,29.56,ENE,68,6.5,6.5,56,0.00,,,0.00,VWS V14.01,2013-04-08 13:54:00,
2013-04-08 09:55:00,56.1,40.7,29.56,NE,45,5.6,5.6,56,0.00,,,0.00,VWS V14.01,2013-04-08 13:55:00,
2013-04-08 09:56:00,56.3,40.8,29.56,NE,45,7.6,7.6,56,0.00,,,0.00,VWS V14.01,2013-04-08 13:56:00,
2013-04-08 09:57:00,56.3,40.4,29.56,NE,45,4.9,4.9,55,0.00,,,0.00,VWS V14.01,2013-04-08 13:57:00,
2013-04-08 09:58:00,56.3,40.4,29.56,ENE,68,6.9,6.9,55,0.00,,,0.00,VWS V14.01,2013-04-08 13:58:00,
2013-04-08 09:59:00,56.3,40.4,29.56,NE,45,3.8,3.8,55,0.00,,,0.00,VWS V14.01,2013-04-08 13:59:00,
2013-04-08 10:00:00,56.3,40.4,29.56,ENE,68,6.5,6.5,55,0.00,,,0.00,VWS V14.01,2013-04-08 14:00:00,
2013-04-08 10:01:00,56.3,40.4,29.56,ENE,68,7.4,7.4,55,0.00,,,0.00,VWS V14.01,2013-04-08 14:01:00,
2013-04-08 10:02:00,56.3,39.9,29.56,NE,45,6.3,6.3,54,0.00,,,0.00,VWS V14.01,2013-04-08 14:02:00,
2013-04-08 10:03:00,56.3,39.9,29.56,NE,45,3.8,3.8,54,0.00,,,0.00,VWS V14.01,2013-04-08 14:03:00,
2013-04-08 10:04:00,56.5,40.0,29.56,NE,45,5.4,5.4,54,0.00,,,0.00,VWS V14.01,2013-04-08 14:04:00,
2013-04-08 10:05:00,56.5,40.0,29.56,NE,45,5.6,5.6,54,0.00,,,0.00,VWS V14.01,2013-04-08 14:05:00,
2013-04-08 10:06:00,56.7,40.7,29.56,ENE,68,3.6,3.6,55,0.00,,,0.00,VWS V14.01,2013-04-08 14:06:00,
2013-04-08 10:07:00,56.7,40.7,29.56,NE,45,5.8,5.8,55,0.00,,,0.00,VWS V14.01,2013-04-08 14:07:00,
2013-04-08 10:08:00,56.7,40.2,29.56,ENE,68,6.3,6.3,54,0.00,,,0.00,VWS V14.01,2013-04-08 14:08:00,
2013-04-08 10:09:00,56.8,40.4,29.56,NE,45,6.3,6.3,54,0.00,,,0.00,VWS V14.01,2013-04-08 14:09:00,
2013-04-08 10:10:00,56.8,40.4,29.56,ENE,68,6.5,6.5,54,0.00,,,0.00,VWS V14.01,2013-04-08 14:10:00,
2013-04-08 10:11:00,56.8,40.4,29.56,ENE,68,3.6,3.6,54,0.00,,,0.00,VWS V14.01,2013-04-08 14:11:00,
2013-04-08 10:12:00,56.8,40.4,29.56,ENE,68,4.3,4.3,54,0.00,,,0.00,VWS V14.01,2013-04-08 14:12:00,
2013-04-08 10:13:00,57.0,40.1,29.56,NE,45,5.4,5.4,53,0.00,,,0.00,VWS V14.01,2013-04-08 14:13:00,
2013-04-08 10:14:00,57.0,40.1,29.56,NNE,22,2.7,2.7,53,0.00,,,0.00,VWS V14.01,2013-04-08 14:14:00,
2013-04-08 10:15:00,57.0,40.6,29.56,NNE,22,5.6,5.6,54,0.00,,,0.00,VWS V14.01,2013-04-08 14:15:00,
2013-04-08 10:16:00,57.2,40.2,29.56,NE,45,3.4,3.4,53,0.00,,,0.00,VWS V14.01,2013-04-08 14:16:00,
2013-04-08 10:17:00,57.2,40.2,29.56,NNE,22,6.3,6.3,53,0.00,,,0.00,VWS V14.01,2013-04-08 14:17:00,
2013-04-08 10:18:00,57.2,40.7,29.56,NNE,22,5.6,5.6,54,0.00,,,0.00,VWS V14.01,2013-04-08 14:18:00,
2013-04-08 10:19:00,57.2,40.7,29.56,NE,45,4.9,4.9,54,0.00,,,0.00,VWS V14.01,2013-04-08 14:19:00,
2013-04-08 10:20:00,57.4,40.9,29.56,SSW,202,2.2,2.2,54,0.00,,,0.00,VWS V14.01,2013-04-08 14:20:00,
2013-04-08 10:21:00,57.4,40.9,29.56,NNW,338,2.7,2.7,54,0.00,,,0.00,VWS V14.01,2013-04-08 14:21:00,
2013-04-08 10:22:00,57.6,41.1,29.56,NNE,22,3.8,3.8,54,0.00,,,0.00,VWS V14.01,2013-04-08 14:22:00,
2013-04-08 10:23:00,57.6,41.1,29.56,NNE,22,4.0,4.0,54,0.00,,,0.00,VWS V14.01,2013-04-08 14:23:00,
2013-04-08 10:24:00,57.6,41.1,29.56,North,0,2.7,2.7,54,0.00,,,0.00,VWS V14.01,2013-04-08 14:24:00,
2013-04-08 10:25:00,57.6,41.1,29.56,NNE,22,4.0,4.0,54,0.00,,,0.00,VWS V14.01,2013-04-08 14:25:00,
2013-04-08 10:26:00,57.7,41.2,29.56,NE,45,2.2,2.2,54,0.00,,,0.00,VWS V14.01,2013-04-08 14:26:00,
2013-04-08 10:27:00,57.7,41.2,29.56,NE,45,4.0,4.0,54,0.00,,,0.00,VWS V14.01,2013-04-08 14:27:00,
2013-04-08 10:28:00,57.7,41.2,29.56,ENE,68,1.6,1.6,54,0.00,,,0.00,VWS V14.01,2013-04-08 14:28:00,
2013-04-08 10:29:00,57.9,40.9,29.56,NE,45,4.7,4.7,53,0.00,,,0.00,VWS V14.01,2013-04-08 14:29:00,
2013-04-08 10:30:00,57.9,40.9,29.56,ENE,68,3.8,3.8,53,0.00,,,0.00,VWS V14.01,2013-04-08 14:30:00,
2013-04-08 10:31:00,57.9,40.9,29.56,NE,45,6.0,6.0,53,0.00,,,0.00,VWS V14.01,2013-04-08 14:31:00,
2013-04-08 10:32:00,58.1,41.1,29.56,ENE,68,4.9,4.9,53,0.00,,,0.00,VWS V14.01,2013-04-08 14:32:00,
2013-04-08 10:33:00,58.1,41.6,29.56,NE,45,3.1,3.1,54,0.00,,,0.00,VWS V14.01,2013-04-08 14:33:00,
2013-04-08 10:34:00,58.3,41.7,29.56,ENE,68,4.9,4.9,54,0.00,,,0.00,VWS V14.01,2013-04-08 14:34:00,
2013-04-08 10:35:00,58.3,41.7,29.56,East,90,3.8,3.8,54,0.00,,,0.00,VWS V14.01,2013-04-08 14:35:00,
2013-04-08 10:36:00,58.3,41.2,29.56,ENE,68,3.1,3.1,53,0.00,,,0.00,VWS V14.01,2013-04-08 14:36:00,
2013-04-08 10:37:00,58.5,41.4,29.56,East,90,0.0,0.0,53,0.00,,,0.00,VWS V14.01,2013-04-08 14:37:00,
2013-04-08 10:38:00,58.5,41.4,29.56,NNE,22,1.3,1.3,53,0.00,,,0.00,VWS V14.01,2013-04-08 14:38:00,
2013-04-08 10:39:00,58.5,41.4,29.56,North,0,4.9,4.9,53,0.00,,,0.00,VWS V14.01,2013-04-08 14:39:00,
2013-04-08 10:40:00,58.5,41.4,29.56,NNE,22,4.9,4.9,53,0.00,,,0.00,VWS V14.01,2013-04-08 14:40:00,
2013-04-08 10:41:00,58.5,41.4,29.56,NNE,22,3.4,3.4,53,0.00,,,0.00,VWS V14.01,2013-04-08 14:41:00,
2013-04-08 10:42:00,58.6,41.6,29.56,NNE,22,5.4,5.4,53,0.00,,,0.00,VWS V14.01,2013-04-08 14:42:00,
2013-04-08 10:43:00,58.6,41.6,29.56,NNE,22,2.7,2.7,53,0.00,,,0.00,VWS V14.01,2013-04-08 14:43:00,
2013-04-08 10:44:00,58.6,41.6,29.56,NNE,22,5.8,5.8,53,0.00,,,0.00,VWS V14.01,2013-04-08 14:44:00,
2013-04-08 10:45:00,58.6,41.1,29.56,NNE,22,3.1,3.1,52,0.00,,,0.00,VWS V14.01,2013-04-08 14:45:00,
2013-04-08 10:46:00,58.6,41.1,29.56,North,0,3.1,3.1,52,0.00,,,0.00,VWS V14.01,2013-04-08 14:46:00,
2013-04-08 10:47:00,58.8,41.2,29.56,NNE,22,6.3,6.3,52,0.00,,,0.00,VWS V14.01,2013-04-08 14:47:00,
2013-04-08 10:48:00,58.8,41.2,29.56,NE,45,3.4,3.4,52,0.00,,,0.00,VWS V14.01,2013-04-08 14:48:00,
2013-04-08 10:49:00,58.8,41.2,29.56,NNE,22,4.9,4.9,52,0.00,,,0.00,VWS V14.01,2013-04-08 14:49:00,
2013-04-08 10:50:00,59.0,41.4,29.56,NNE,22,3.4,3.4,52,0.00,,,0.00,VWS V14.01,2013-04-08 14:50:00,
2013-04-08 10:51:00,59.0,41.4,29.56,NNE,22,2.9,2.9,52,0.00,,,0.00,VWS V14.01,2013-04-08 14:51:00,
2013-04-08 10:52:00,59.0,40.9,29.56,NNE,22,3.6,3.6,51,0.00,,,0.00,VWS V14.01,2013-04-08 14:52:00,
2013-04-08 10:53:00,59.0,40.9,29.56,NNE,22,4.3,4.3,51,0.00,,,0.00,VWS V14.01,2013-04-08 14:53:00,
2013-04-08 10:54:00,59.0,40.9,29.56,NNE,22,3.4,3.4,51,0.00,,,0.00,VWS V14.01,2013-04-08 14:54:00,
2013-04-08 10:55:00,59.2,41.1,29.56,NNE,22,2.7,2.7,51,0.00,,,0.00,VWS V14.01,2013-04-08 14:55:00,
2013-04-08 10:56:00,59.2,41.1,29.56,NNE,22,6.3,6.3,51,0.00,,,0.00,VWS V14.01,2013-04-08 14:56:00,
2013-04-08 10:57:00,59.2,41.1,29.56,North,0,4.0,4.0,51,0.00,,,0.00,VWS V14.01,2013-04-08 14:57:00,
2013-04-08 10:58:00,59.2,40.6,29.56,NNW,338,2.9,2.9,50,0.00,,,0.00,VWS V14.01,2013-04-08 14:58:00,
2013-04-08 10:59:00,59.2,40.6,29.56,North,0,3.1,3.1,50,0.00,,,0.00,VWS V14.01,2013-04-08 14:59:00,
2013-04-08 11:00:00,59.2,41.1,29.56,North,0,2.9,2.9,51,0.00,,,0.00,VWS V14.01,2013-04-08 15:00:00,
2013-04-08 11:01:00,59.4,41.2,29.56,NW,315,3.6,3.6,51,0.00,,,0.00,VWS V14.01,2013-04-08 15:01:00,
2013-04-08 11:02:00,59.4,41.2,29.56,ENE,68,4.9,4.9,51,0.00,,,0.00,VWS V14.01,2013-04-08 15:02:00,
2013-04-08 11:03:00,59.5,41.4,29.56,ENE,68,5.8,5.8,51,0.00,,,0.00,VWS V14.01,2013-04-08 15:03:00,
2013-04-08 11:04:00,59.5,41.4,29.56,NE,45,3.1,3.1,51,0.00,,,0.00,VWS V14.01,2013-04-08 15:04:00,
2013-04-08 11:05:00,59.5,41.4,29.56,NNE,22,0.0,0.0,51,0.00,,,0.00,VWS V14.01,2013-04-08 15:05:00,
2013-04-08 11:06:00,59.5,40.9,29.56,ENE,68,3.1,3.1,50,0.00,,,0.00,VWS V14.01,2013-04-08 15:06:00,
2013-04-08 11:07:00,59.7,41.6,29.56,SE,135,4.5,4.5,51,0.00,,,0.00,VWS V14.01,2013-04-08 15:07:00,
2013-04-08 11:08:00,59.7,41.6,29.56,South,180,3.6,3.6,51,0.00,,,0.00,VWS V14.01,2013-04-08 15:08:00,
2013-04-08 11:09:00,59.7,41.6,29.56,SSW,202,2.7,2.7,51,0.00,,,0.00,VWS V14.01,2013-04-08 15:09:00,
2013-04-08 11:10:00,59.9,41.8,29.56,SSE,158,2.5,2.5,51,0.00,,,0.00,VWS V14.01,2013-04-08 15:10:00,
2013-04-08 11:11:00,59.9,41.8,29.56,SSW,202,6.0,6.0,51,0.00,,,0.00,VWS V14.01,2013-04-08 15:11:00,
2013-04-08 11:12:00,60.1,41.9,29.56,WSW,248,4.3,4.3,51,0.00,,,0.00,VWS V14.01,2013-04-08 15:12:00,
2013-04-08 11:13:00,60.1,41.9,29.56,SSW,202,3.4,3.4,51,0.00,,,0.00,VWS V14.01,2013-04-08 15:13:00,
2013-04-08 11:14:00,60.3,41.6,29.56,South,180,0.0,0.0,50,0.00,,,0.00,VWS V14.01,2013-04-08 15:14:00,
2013-04-08 11:15:00,60.4,41.7,29.53,SSE,158,3.4,3.4,50,0.00,,,0.00,VWS V14.01,2013-04-08 15:15:00,
2013-04-08 11:16:00,60.4,41.7,29.53,SE,135,5.8,5.8,50,0.00,,,0.00,VWS V14.01,2013-04-08 15:16:00,
2013-04-08 11:17:00,60.4,41.7,29.53,SE,135,4.3,4.3,50,0.00,,,0.00,VWS V14.01,2013-04-08 15:17:00,
2013-04-08 11:18:00,60.6,41.9,29.53,SSW,202,4.0,4.0,50,0.00,,,0.00,VWS V14.01,2013-04-08 15:18:00,
2013-04-08 11:19:00,60.6,41.9,29.53,SSW,202,3.1,3.1,50,0.00,,,0.00,VWS V14.01,2013-04-08 15:19:00,
2013-04-08 11:20:00,60.6,42.4,29.53,NE,45,1.1,1.1,51,0.00,,,0.00,VWS V14.01,2013-04-08 15:20:00,
2013-04-08 11:21:00,60.8,42.1,29.53,East,90,2.7,2.7,50,0.00,,,0.00,VWS V14.01,2013-04-08 15:21:00,
2013-04-08 11:22:00,61.0,42.2,29.53,South,180,6.3,6.3,50,0.00,,,0.00,VWS V14.01,2013-04-08 15:22:00,
2013-04-08 11:23:00,61.0,42.2,29.53,SSE,158,4.3,4.3,50,0.00,,,0.00,VWS V14.01,2013-04-08 15:23:00,
2013-04-08 11:24:00,61.2,42.4,29.53,East,90,4.9,4.9,50,0.00,,,0.00,VWS V14.01,2013-04-08 15:24:00,
2013-04-08 11:25:00,61.2,42.4,29.53,SE,135,4.9,4.9,50,0.00,,,0.00,VWS V14.01,2013-04-08 15:25:00,
2013-04-08 11:26:00,61.2,42.4,29.53,East,90,8.1,8.1,50,0.00,,,0.00,VWS V14.01,2013-04-08 15:26:00,
2013-04-08 11:27:00,61.2,42.4,29.53,ENE,68,4.0,4.0,50,0.00,,,0.00,VWS V14.01,2013-04-08 15:27:00,
2013-04-08 11:28:00,61.3,42.0,29.53,ESE,112,4.0,4.0,49,0.00,,,0.00,VWS V14.01,2013-04-08 15:28:00,
2013-04-08 11:29:00,61.3,42.0,29.53,East,90,3.6,3.6,49,0.00,,,0.00,VWS V14.01,2013-04-08 15:29:00,
2013-04-08 11:30:00,61.5,42.2,29.50,East,90,4.0,4.0,49,0.00,,,0.00,VWS V14.01,2013-04-08 15:30:00,
2013-04-08 11:31:00,61.5,42.2,29.50,SE,135,3.4,3.4,49,0.00,,,0.00,VWS V14.01,2013-04-08 15:31:00,
2013-04-08 11:32:00,61.5,42.2,29.50,NE,45,2.5,2.5,49,0.00,,,0.00,VWS V14.01,2013-04-08 15:32:00,
2013-04-08 11:33:00,61.7,42.4,29.50,SSW,202,0.9,0.9,49,0.00,,,0.00,VWS V14.01,2013-04-08 15:33:00,
2013-04-08 11:34:00,61.7,42.4,29.50,SSE,158,4.3,4.3,49,0.00,,,0.00,VWS V14.01,2013-04-08 15:34:00,
2013-04-08 11:35:00,61.9,43.1,29.50,South,180,4.7,4.7,50,0.00,,,0.00,VWS V14.01,2013-04-08 15:35:00,
2013-04-08 11:36:00,61.9,43.1,29.50,East,90,4.0,4.0,50,0.00,,,0.00,VWS V14.01,2013-04-08 15:36:00,
2013-04-08 11:37:00,62.1,43.2,29.50,ESE,112,3.6,3.6,50,0.00,,,0.00,VWS V14.01,2013-04-08 15:37:00,
2013-04-08 11:38:00,62.2,43.4,29.50,East,90,4.9,4.9,50,0.00,,,0.00,VWS V14.01,2013-04-08 15:38:00,
2013-04-08 11:39:00,62.4,43.0,29.50,ESE,112,8.1,8.1,49,0.00,,,0.00,VWS V14.01,2013-04-08 15:39:00,
2013-04-08 11:40:00,62.4,43.0,29.50,East,90,5.6,5.6,49,0.00,,,0.00,VWS V14.01,2013-04-08 15:40:00,
2013-04-08 11:41:00,62.6,43.2,29.50,South,180,5.4,5.4,49,0.00,,,0.00,VWS V14.01,2013-04-08 15:41:00,
2013-04-08 11:42:00,62.6,42.7,29.50,ESE,112,2.2,2.2,48,0.00,,,0.00,VWS V14.01,2013-04-08 15:42:00,
2013-04-08 11:43:00,62.6,42.7,29.50,East,90,5.8,5.8,48,0.00,,,0.00,VWS V14.01,2013-04-08 15:43:00,
2013-04-08 11:44:00,62.8,42.8,29.50,ESE,112,7.8,7.8,48,0.00,,,0.00,VWS V14.01,2013-04-08 15:44:00,
2013-04-08 11:45:00,62.8,42.8,29.50,ESE,112,6.5,6.5,48,0.00,,,0.00,VWS V14.01,2013-04-08 15:45:00,
2013-04-08 11:46:00,63.0,43.0,29.50,SSE,158,4.9,4.9,48,0.00,,,0.00,VWS V14.01,2013-04-08 15:46:00,
2013-04-08 11:47:00,63.0,43.5,29.50,SSE,158,5.6,5.6,49,0.00,,,0.00,VWS V14.01,2013-04-08 15:47:00,
2013-04-08 11:48:00,63.1,43.7,29.50,SE,135,5.8,5.8,49,0.00,,,0.00,VWS V14.01,2013-04-08 15:48:00,
2013-04-08 11:49:00,63.1,43.2,29.50,ENE,68,3.8,3.8,48,0.00,,,0.00,VWS V14.01,2013-04-08 15:49:00,
2013-04-08 11:50:00,63.1,43.2,29.50,East,90,4.0,4.0,48,0.00,,,0.00,VWS V14.01,2013-04-08 15:50:00,
2013-04-08 11:51:00,63.1,43.2,29.50,SSE,158,3.6,3.6,48,0.00,,,0.00,VWS V14.01,2013-04-08 15:51:00,
2013-04-08 11:52:00,63.1,42.6,29.50,SSW,202,2.2,2.2,47,0.00,,,0.00,VWS V14.01,2013-04-08 15:52:00,
2013-04-08 11:53:00,63.1,42.6,29.50,NE,45,7.6,7.6,47,0.00,,,0.00,VWS V14.01,2013-04-08 15:53:00,
2013-04-08 11:54:00,63.1,42.6,29.50,ESE,112,5.8,5.8,47,0.00,,,0.00,VWS V14.01,2013-04-08 15:54:00,
2013-04-08 11:55:00,63.3,42.8,29.50,SE,135,3.1,3.1,47,0.00,,,0.00,VWS V14.01,2013-04-08 15:55:00,
2013-04-08 11:56:00,63.3,42.8,29.50,SSE,158,1.3,1.3,47,0.00,,,0.00,VWS V14.01,2013-04-08 15:56:00,
2013-04-08 11:57:00,63.3,42.8,29.50,SSE,158,4.9,4.9,47,0.00,,,0.00,VWS V14.01,2013-04-08 15:57:00,
2013-04-08 11:58:00,63.3,42.8,29.50,NE,45,1.6,1.6,47,0.00,,,0.00,VWS V14.01,2013-04-08 15:58:00,
2013-04-08 11:59:00,63.5,42.9,29.50,SE,135,2.5,2.5,47,0.00,,,0.00,VWS V14.01,2013-04-08 15:59:00,
2013-04-08 12:00:00,63.5,42.9,29.50,East,90,3.4,3.4,47,0.00,,,0.00,VWS V14.01,2013-04-08 16:00:00,
2013-04-08 12:01:00,63.5,42.4,29.50,NE,45,3.4,3.4,46,0.00,,,0.00,VWS V14.01,2013-04-08 16:01:00,
2013-04-08 12:02:00,63.7,42.5,29.50,NNE,22,3.6,3.6,46,0.00,,,0.00,VWS V14.01,2013-04-08 16:02:00,
2013-04-08 12:03:00,63.7,42.5,29.50,NE,45,2.2,2.2,46,0.00,,,0.00,VWS V14.01,2013-04-08 16:03:00,
2013-04-08 12:04:00,63.7,42.0,29.50,NNE,22,0.0,0.0,45,0.00,,,0.00,VWS V14.01,2013-04-08 16:04:00,
2013-04-08 12:05:00,63.7,42.0,29.50,NW,315,3.1,3.1,45,0.00,,,0.00,VWS V14.01,2013-04-08 16:05:00,
2013-04-08 12:06:00,63.7,42.0,29.50,NW,315,2.5,2.5,45,0.00,,,0.00,VWS V14.01,2013-04-08 16:06:00,
2013-04-08 12:07:00,63.7,42.0,29.50,NW,315,0.0,0.0,45,0.00,,,0.00,VWS V14.01,2013-04-08 16:07:00,
2013-04-08 12:08:00,63.7,42.0,29.50,East,90,2.7,2.7,45,0.00,,,0.00,VWS V14.01,2013-04-08 16:08:00,
2013-04-08 12:09:00,63.7,42.5,29.50,SSW,202,3.6,3.6,46,0.00,,,0.00,VWS V14.01,2013-04-08 16:09:00,
2013-04-08 12:10:00,63.7,42.0,29.50,SSE,158,1.6,1.6,45,0.00,,,0.00,VWS V14.01,2013-04-08 16:10:00,
2013-04-08 12:11:00,63.7,42.0,29.50,South,180,2.7,2.7,45,0.00,,,0.00,VWS V14.01,2013-04-08 16:11:00,
2013-04-08 12:12:00,63.9,42.1,29.50,NE,45,1.3,1.3,45,0.00,,,0.00,VWS V14.01,2013-04-08 16:12:00,
2013-04-08 12:13:00,63.9,42.1,29.50,West,270,3.8,3.8,45,0.00,,,0.00,VWS V14.01,2013-04-08 16:13:00,
2013-04-08 12:14:00,64.0,41.7,29.50,West,270,3.4,3.4,44,0.00,,,0.00,VWS V14.01,2013-04-08 16:14:00,
2013-04-08 12:15:00,64.0,41.7,29.50,SW,225,1.1,1.1,44,0.00,,,0.00,VWS V14.01,2013-04-08 16:15:00,
2013-04-08 12:16:00,64.2,42.5,29.50,WNW,292,1.1,1.1,45,0.00,,,0.00,VWS V14.01,2013-04-08 16:16:00,
2013-04-08 12:17:00,64.2,42.5,29.50,NNE,22,2.2,2.2,45,0.00,,,0.00,VWS V14.01,2013-04-08 16:17:00,
2013-04-08 12:18:00,64.2,42.5,29.50,South,180,2.5,2.5,45,0.00,,,0.00,VWS V14.01,2013-04-08 16:18:00,
2013-04-08 12:19:00,64.2,42.5,29.50,ESE,112,1.1,1.1,45,0.00,,,0.00,VWS V14.01,2013-04-08 16:19:00,
2013-04-08 12:20:00,64.4,42.6,29.50,South,180,0.0,0.0,45,0.00,,,0.00,VWS V14.01,2013-04-08 16:20:00,
2013-04-08 12:21:00,64.4,42.0,29.50,SE,135,3.4,3.4,44,0.00,,,0.00,VWS V14.01,2013-04-08 16:21:00,
2013-04-08 12:22:00,64.6,42.2,29.50,SSW,202,3.1,3.1,44,0.00,,,0.00,VWS V14.01,2013-04-08 16:22:00,
2013-04-08 12:23:00,64.6,42.2,29.50,ENE,68,0.0,0.0,44,0.00,,,0.00,VWS V14.01,2013-04-08 16:23:00,
2013-04-08 12:24:00,64.6,42.2,29.50,WNW,292,2.7,2.7,44,0.00,,,0.00,VWS V14.01,2013-04-08 16:24:00,
2013-04-08 12:25:00,64.6,42.2,29.50,North,0,0.0,0.0,44,0.00,,,0.00,VWS V14.01,2013-04-08 16:25:00,
2013-04-08 12:26:00,64.6,42.2,29.50,WSW,248,2.7,2.7,44,0.00,,,0.00,VWS V14.01,2013-04-08 16:26:00,
2013-04-08 12:27:00,64.6,42.2,29.50,WSW,248,0.0,0.0,44,0.00,,,0.00,VWS V14.01,2013-04-08 16:27:00,
2013-04-08 12:28:00,64.6,42.2,29.50,SW,225,2.5,2.5,44,0.00,,,0.00,VWS V14.01,2013-04-08 16:28:00,
2013-04-08 12:29:00,64.8,41.8,29.50,WNW,292,3.4,3.4,43,0.00,,,0.00,VWS V14.01,2013-04-08 16:29:00,
2013-04-08 12:30:00,64.9,42.5,29.50,West,270,3.6,3.6,44,0.00,,,0.00,VWS V14.01,2013-04-08 16:30:00,
2013-04-08 12:31:00,65.3,41.6,29.50,WSW,248,4.3,4.3,42,0.00,,,0.00,VWS V14.01,2013-04-08 16:31:00,
2013-04-08 12:32:00,65.3,42.2,29.50,SSW,202,3.8,3.8,43,0.00,,,0.00,VWS V14.01,2013-04-08 16:32:00,
2013-04-08 12:33:00,65.5,41.8,29.50,NE,45,0.0,0.0,42,0.00,,,0.00,VWS V14.01,2013-04-08 16:33:00,
2013-04-08 12:34:00,65.7,42.0,29.50,WNW,292,3.4,3.4,42,0.00,,,0.00,VWS V14.01,2013-04-08 16:34:00,
2013-04-08 12:35:00,65.7,42.6,29.50,West,270,2.7,2.7,43,0.00,,,0.00,VWS V14.01,2013-04-08 16:35:00,
2013-04-08 12:36:00,65.8,42.7,29.50,WSW,248,3.8,3.8,43,0.00,,,0.00,VWS V14.01,2013-04-08 16:36:00,
2013-04-08 12:37:00,65.8,42.7,29.50,WSW,248,1.3,1.3,43,0.00,,,0.00,VWS V14.01,2013-04-08 16:37:00,
2013-04-08 12:38:00,65.8,42.1,29.50,WSW,248,0.9,0.9,42,0.00,,,0.00,VWS V14.01,2013-04-08 16:38:00,
2013-04-08 12:39:00,65.8,42.1,29.50,WSW,248,0.0,0.0,42,0.00,,,0.00,VWS V14.01,2013-04-08 16:39:00,
2013-04-08 12:40:00,65.8,41.5,29.50,ESE,112,3.6,3.6,41,0.00,,,0.00,VWS V14.01,2013-04-08 16:40:00,
2013-04-08 12:41:00,65.8,42.1,29.50,NE,45,2.5,2.5,42,0.00,,,0.00,VWS V14.01,2013-04-08 16:41:00,
2013-04-08 12:42:00,65.8,42.1,29.50,SSE,158,1.1,1.1,42,0.00,,,0.00,VWS V14.01,2013-04-08 16:42:00,
2013-04-08 12:43:00,66.0,42.3,29.50,South,180,4.3,4.3,42,0.00,,,0.00,VWS V14.01,2013-04-08 16:43:00,
2013-04-08 12:44:00,66.0,42.9,29.50,South,180,6.5,6.5,43,0.00,,,0.00,VWS V14.01,2013-04-08 16:44:00,
2013-04-08 12:45:00,66.0,42.9,29.47,SE,135,8.1,8.1,43,0.00,,,0.00,VWS V14.01,2013-04-08 16:45:00,
2013-04-08 12:46:00,66.2,43.1,29.47,SSW,202,3.8,3.8,43,0.00,,,0.00,VWS V14.01,2013-04-08 16:46:00,
2013-04-08 12:47:00,66.4,42.6,29.47,SW,225,2.7,2.7,42,0.00,,,0.00,VWS V14.01,2013-04-08 16:47:00,
2013-04-08 12:48:00,66.6,42.8,29.47,SSE,158,2.7,2.7,42,0.00,,,0.00,VWS V14.01,2013-04-08 16:48:00,
2013-04-08 12:49:00,66.6,42.8,29.47,SSE,158,7.6,7.6,42,0.00,,,0.00,VWS V14.01,2013-04-08 16:49:00,
2013-04-08 12:50:00,66.7,42.9,29.47,WSW,248,0.0,0.0,42,0.00,,,0.00,VWS V14.01,2013-04-08 16:50:00,
2013-04-08 12:51:00,66.9,43.1,29.47,SE,135,2.9,2.9,42,0.00,,,0.00,VWS V14.01,2013-04-08 16:51:00,
2013-04-08 12:52:00,66.9,42.5,29.47,ENE,68,3.6,3.6,41,0.00,,,0.00,VWS V14.01,2013-04-08 16:52:00,
2013-04-08 12:53:00,66.9,42.5,29.47,ENE,68,3.6,3.6,41,0.00,,,0.00,VWS V14.01,2013-04-08 16:53:00,
2013-04-08 12:54:00,66.9,41.8,29.47,NE,45,3.4,3.4,40,0.00,,,0.00,VWS V14.01,2013-04-08 16:54:00,
2013-04-08 12:55:00,67.1,42.0,29.47,NE,45,2.7,2.7,40,0.00,,,0.00,VWS V14.01,2013-04-08 16:55:00,
2013-04-08 12:56:00,67.1,42.0,29.47,SSW,202,1.3,1.3,40,0.00,,,0.00,VWS V14.01,2013-04-08 16:56:00,
2013-04-08 12:57:00,67.1,42.0,29.47,SSW,202,2.2,2.2,40,0.00,,,0.00,VWS V14.01,2013-04-08 16:57:00,
2013-04-08 12:58:00,67.1,42.0,29.47,WSW,248,5.4,5.4,40,0.00,,,0.00,VWS V14.01,2013-04-08 16:58:00,
2013-04-08 12:59:00,67.3,42.2,29.47,SSE,158,7.2,7.2,40,0.00,,,0.00,VWS V14.01,2013-04-08 16:59:00,
2013-04-08 13:00:00,67.3,42.2,29.47,WSW,248,4.3,4.3,40,0.00,,,0.00,VWS V14.01,2013-04-08 17:00:00,
2013-04-08 13:01:00,67.6,41.8,29.47,South,180,4.9,4.9,39,0.00,,,0.00,VWS V14.01,2013-04-08 17:01:00,
2013-04-08 13:02:00,67.8,42.6,29.47,WSW,248,4.0,4.0,40,0.00,,,0.00,VWS V14.01,2013-04-08 17:02:00,
2013-04-08 13:03:00,67.8,41.3,29.47,WSW,248,4.7,4.7,38,0.00,,,0.00,VWS V14.01,2013-04-08 17:03:00,
2013-04-08 13:04:00,68.0,41.5,29.47,WNW,292,2.2,2.2,38,0.00,,,0.00,VWS V14.01,2013-04-08 17:04:00,
2013-04-08 13:05:00,68.0,41.5,29.47,WSW,248,2.0,2.0,38,0.00,,,0.00,VWS V14.01,2013-04-08 17:05:00,
2013-04-08 13:06:00,68.0,41.5,29.47,WSW,248,3.4,3.4,38,0.00,,,0.00,VWS V14.01,2013-04-08 17:06:00,
2013-04-08 13:07:00,68.0,41.5,29.47,WSW,248,4.0,4.0,38,0.00,,,0.00,VWS V14.01,2013-04-08 17:07:00,
2013-04-08 13:08:00,68.0,41.5,29.47,ESE,112,4.3,4.3,38,0.00,,,0.00,VWS V14.01,2013-04-08 17:08:00,
2013-04-08 13:09:00,68.0,41.5,29.47,ESE,112,2.7,2.7,38,0.00,,,0.00,VWS V14.01,2013-04-08 17:09:00,
2013-04-08 13:10:00,68.2,41.6,29.47,SE,135,3.6,3.6,38,0.00,,,0.00,VWS V14.01,2013-04-08 17:10:00,
2013-04-08 13:11:00,68.2,41.6,29.47,South,180,6.5,6.5,38,0.00,,,0.00,VWS V14.01,2013-04-08 17:11:00,
2013-04-08 13:12:00,68.2,41.6,29.47,South,180,2.0,2.0,38,0.00,,,0.00,VWS V14.01,2013-04-08 17:12:00,
2013-04-08 13:13:00,68.2,41.6,29.47,South,180,2.7,2.7,38,0.00,,,0.00,VWS V14.01,2013-04-08 17:13:00,
2013-04-08 13:14:00,68.4,41.8,29.47,SE,135,1.1,1.1,38,0.00,,,0.00,VWS V14.01,2013-04-08 17:14:00,
2013-04-08 13:15:00,68.4,41.8,29.47,South,180,2.9,2.9,38,0.00,,,0.00,VWS V14.01,2013-04-08 17:15:00,
2013-04-08 13:16:00,68.5,42.0,29.47,WSW,248,4.3,4.3,38,0.00,,,0.00,VWS V14.01,2013-04-08 17:16:00,
2013-04-08 13:17:00,68.5,42.0,29.47,SSW,202,6.5,6.5,38,0.00,,,0.00,VWS V14.01,2013-04-08 17:17:00,
2013-04-08 13:18:00,68.7,42.1,29.47,ENE,68,1.6,1.6,38,0.00,,,0.00,VWS V14.01,2013-04-08 17:18:00,
2013-04-08 13:19:00,68.9,42.3,29.47,NNE,22,2.5,2.5,38,0.00,,,0.00,VWS V14.01,2013-04-08 17:19:00,
2013-04-08 13:20:00,68.9,42.3,29.47,NNE,22,1.6,1.6,38,0.00,,,0.00,VWS V14.01,2013-04-08 17:20:00,
2013-04-08 13:21:00,68.9,42.3,29.47,SSW,202,2.0,2.0,38,0.00,,,0.00,VWS V14.01,2013-04-08 17:21:00,
2013-04-08 13:22:00,68.9,41.6,29.47,SSE,158,3.6,3.6,37,0.00,,,0.00,VWS V14.01,2013-04-08 17:22:00,
2013-04-08 13:23:00,68.9,42.3,29.47,WSW,248,6.0,6.0,38,0.00,,,0.00,VWS V14.01,2013-04-08 17:23:00,
2013-04-08 13:24:00,69.1,41.7,29.47,SSW,202,10.5,10.5,37,0.00,,,0.00,VWS V14.01,2013-04-08 17:24:00,
2013-04-08 13:25:00,69.3,41.9,29.47,SW,225,7.6,7.6,37,0.00,,,0.00,VWS V14.01,2013-04-08 17:25:00,
2013-04-08 13:26:00,69.4,41.3,29.47,West,270,5.8,5.8,36,0.00,,,0.00,VWS V14.01,2013-04-08 17:26:00,
2013-04-08 13:27:00,69.6,41.5,29.47,ESE,112,3.1,3.1,36,0.00,,,0.00,VWS V14.01,2013-04-08 17:27:00,
2013-04-08 13:28:00,69.6,42.2,29.47,SSE,158,5.4,5.4,37,0.00,,,0.00,VWS V14.01,2013-04-08 17:28:00,
2013-04-08 13:29:00,69.6,42.2,29.47,ENE,68,4.3,4.3,37,0.00,,,0.00,VWS V14.01,2013-04-08 17:29:00,
2013-04-08 13:30:00,69.6,42.2,29.44,ENE,68,3.8,3.8,37,0.00,,,0.00,VWS V14.01,2013-04-08 17:30:00,
2013-04-08 13:31:00,69.6,42.2,29.44,WSW,248,3.1,3.1,37,0.00,,,0.00,VWS V14.01,2013-04-08 17:31:00,
2013-04-08 13:32:00,69.8,41.7,29.44,South,180,4.5,4.5,36,0.00,,,0.00,VWS V14.01,2013-04-08 17:32:00,
2013-04-08 13:33:00,69.8,41.7,29.44,SSW,202,5.6,5.6,36,0.00,,,0.00,VWS V14.01,2013-04-08 17:33:00,
2013-04-08 13:34:00,70.0,41.8,29.44,SSW,202,2.7,2.7,36,0.00,,,0.00,VWS V14.01,2013-04-08 17:34:00,
2013-04-08 13:35:00,70.0,41.8,29.44,South,180,5.4,5.4,36,0.00,,,0.00,VWS V14.01,2013-04-08 17:35:00,
2013-04-08 13:36:00,70.2,42.0,29.44,SSW,202,3.6,3.6,36,0.00,,,0.00,VWS V14.01,2013-04-08 17:36:00,
2013-04-08 13:37:00,70.2,42.0,29.44,SE,135,2.7,2.7,36,0.00,,,0.00,VWS V14.01,2013-04-08 17:37:00,
2013-04-08 13:38:00,70.2,42.0,29.44,WSW,248,5.8,5.8,36,0.00,,,0.00,VWS V14.01,2013-04-08 17:38:00,
2013-04-08 13:39:00,70.3,41.4,29.44,WSW,248,6.9,6.9,35,0.00,,,0.00,VWS V14.01,2013-04-08 17:39:00,
2013-04-08 13:40:00,70.3,41.4,29.44,SSW,202,7.8,7.8,35,0.00,,,0.00,VWS V14.01,2013-04-08 17:40:00,
2013-04-08 13:41:00,70.5,42.3,29.44,SSW,202,6.0,6.0,36,0.00,,,0.00,VWS V14.01,2013-04-08 17:41:00,
2013-04-08 13:42:00,70.7,41.7,29.44,West,270,6.3,6.3,35,0.00,,,0.00,VWS V14.01,2013-04-08 17:42:00,
2013-04-08 13:43:00,70.7,41.0,29.44,West,270,4.9,4.9,34,0.00,,,0.00,VWS V14.01,2013-04-08 17:43:00,
2013-04-08 13:44:00,70.7,41.0,29.44,WSW,248,4.7,4.7,34,0.00,,,0.00,VWS V14.01,2013-04-08 17:44:00,
2013-04-08 13:45:00,70.9,41.9,29.44,West,270,5.4,5.4,35,0.00,,,0.00,VWS V14.01,2013-04-08 17:45:00,
2013-04-08 13:46:00,70.7,41.0,29.44,WNW,292,2.0,2.0,34,0.00,,,0.00,VWS V14.01,2013-04-08 17:46:00,
2013-04-08 13:47:00,70.7,41.7,29.44,West,270,5.6,5.6,35,0.00,,,0.00,VWS V14.01,2013-04-08 17:47:00,
2013-04-08 13:48:00,70.7,41.0,29.44,SSW,202,2.2,2.2,34,0.00,,,0.00,VWS V14.01,2013-04-08 17:48:00,
2013-04-08 13:49:00,70.7,41.7,29.44,West,270,2.0,2.0,35,0.00,,,0.00,VWS V14.01,2013-04-08 17:49:00,
2013-04-08 13:50:00,70.7,41.7,29.44,West,270,1.6,1.6,35,0.00,,,0.00,VWS V14.01,2013-04-08 17:50:00,
2013-04-08 13:51:00,70.7,41.7,29.44,SSW,202,1.3,1.3,35,0.00,,,0.00,VWS V14.01,2013-04-08 17:51:00,
2013-04-08 13:52:00,70.9,41.9,29.44,South,180,5.4,5.4,35,0.00,,,0.00,VWS V14.01,2013-04-08 17:52:00,
2013-04-08 13:53:00,70.9,41.9,29.44,South,180,6.3,6.3,35,0.00,,,0.00,VWS V14.01,2013-04-08 17:53:00,
2013-04-08 13:54:00,71.1,42.0,29.44,South,180,7.4,7.4,35,0.00,,,0.00,VWS V14.01,2013-04-08 17:54:00,
2013-04-08 13:55:00,71.1,42.0,29.44,South,180,4.3,4.3,35,0.00,,,0.00,VWS V14.01,2013-04-08 17:55:00,
2013-04-08 13:56:00,71.2,42.2,29.44,SE,135,3.8,3.8,35,0.00,,,0.00,VWS V14.01,2013-04-08 17:56:00,
2013-04-08 13:57:00,71.2,42.2,29.44,SSW,202,0.9,0.9,35,0.00,,,0.00,VWS V14.01,2013-04-08 17:57:00,
2013-04-08 13:58:00,71.2,41.5,29.44,SSW,202,5.4,5.4,34,0.00,,,0.00,VWS V14.01,2013-04-08 17:58:00,
2013-04-08 13:59:00,71.4,42.4,29.44,SSE,158,4.3,4.3,35,0.00,,,0.00,VWS V14.01,2013-04-08 17:59:00,
2013-04-08 14:00:00,71.4,42.4,29.41,SSW,202,7.4,7.4,35,0.00,,,0.00,VWS V14.01,2013-04-08 18:00:00,
2013-04-08 14:01:00,71.6,42.5,29.41,SW,225,3.6,3.6,35,0.00,,,0.00,VWS V14.01,2013-04-08 18:01:00,
2013-04-08 14:02:00,71.8,41.9,29.41,SSW,202,10.1,10.1,34,0.00,,,0.00,VWS V14.01,2013-04-08 18:02:00,
2013-04-08 14:03:00,72.0,42.1,29.41,South,180,6.0,6.0,34,0.00,,,0.00,VWS V14.01,2013-04-08 18:03:00,
2013-04-08 14:04:00,72.0,42.1,29.41,SSW,202,3.4,3.4,34,0.00,,,0.00,VWS V14.01,2013-04-08 18:04:00,
2013-04-08 14:05:00,72.0,42.1,29.41,SSW,202,5.8,5.8,34,0.00,,,0.00,VWS V14.01,2013-04-08 18:05:00,
2013-04-08 14:06:00,72.1,42.2,29.41,SSW,202,4.5,4.5,34,0.00,,,0.00,VWS V14.01,2013-04-08 18:06:00,
2013-04-08 14:07:00,72.3,42.4,29.41,SSE,158,3.1,3.1,34,0.00,,,0.00,VWS V14.01,2013-04-08 18:07:00,
2013-04-08 14:08:00,72.3,42.4,29.41,NNE,22,1.1,1.1,34,0.00,,,0.00,VWS V14.01,2013-04-08 18:08:00,
2013-04-08 14:09:00,72.3,42.4,29.41,ESE,112,2.0,2.0,34,0.00,,,0.00,VWS V14.01,2013-04-08 18:09:00,
2013-04-08 14:10:00,72.1,42.2,29.41,South,180,4.9,4.9,34,0.00,,,0.00,VWS V14.01,2013-04-08 18:10:00,
2013-04-08 14:11:00,72.1,42.2,29.41,SSE,158,4.7,4.7,34,0.00,,,0.00,VWS V14.01,2013-04-08 18:11:00,
2013-04-08 14:12:00,72.1,42.2,29.41,SE,135,4.9,4.9,34,0.00,,,0.00,VWS V14.01,2013-04-08 18:12:00,
2013-04-08 14:13:00,72.1,42.2,29.41,South,180,3.8,3.8,34,0.00,,,0.00,VWS V14.01,2013-04-08 18:13:00,
2013-04-08 14:14:00,72.1,42.2,29.41,SE,135,5.8,5.8,34,0.00,,,0.00,VWS V14.01,2013-04-08 18:14:00,
2013-04-08 14:15:00,72.1,42.2,29.44,SE,135,4.3,4.3,34,0.00,,,0.00,VWS V14.01,2013-04-08 18:15:00,
2013-04-08 14:16:00,72.3,42.4,29.44,South,180,4.7,4.7,34,0.00,,,0.00,VWS V14.01,2013-04-08 18:16:00,
2013-04-08 14:17:00,72.5,43.3,29.44,WSW,248,2.5,2.5,35,0.00,,,0.00,VWS V14.01,2013-04-08 18:17:00,
2013-04-08 14:18:00,72.7,43.5,29.44,NNE,22,3.8,3.8,35,0.00,,,0.00,VWS V14.01,2013-04-08 18:18:00,
2013-04-08 14:19:00,72.7,42.7,29.44,South,180,3.4,3.4,34,0.00,,,0.00,VWS V14.01,2013-04-08 18:19:00,
2013-04-08 14:20:00,72.7,43.5,29.44,West,270,1.3,1.3,35,0.00,,,0.00,VWS V14.01,2013-04-08 18:20:00,
2013-04-08 14:21:00,72.7,42.7,29.44,SSW,202,3.6,3.6,34,0.00,,,0.00,VWS V14.01,2013-04-08 18:21:00,
2013-04-08 14:22:00,72.7,42.7,29.44,SSE,158,4.0,4.0,34,0.00,,,0.00,VWS V14.01,2013-04-08 18:22:00,
2013-04-08 14:23:00,72.7,42.7,29.44,West,270,5.4,5.4,34,0.00,,,0.00,VWS V14.01,2013-04-08 18:23:00,
2013-04-08 14:24:00,73.0,43.0,29.44,SSE,158,8.5,8.5,34,0.00,,,0.00,VWS V14.01,2013-04-08 18:24:00,
2013-04-08 14:25:00,73.2,44.0,29.44,SSE,158,11.0,11.0,35,0.00,,,0.00,VWS V14.01,2013-04-08 18:25:00,
2013-04-08 14:26:00,73.4,43.3,29.44,South,180,4.0,4.0,34,0.00,,,0.00,VWS V14.01,2013-04-08 18:26:00,
2013-04-08 14:27:00,73.4,43.3,29.44,SSE,158,5.6,5.6,34,0.00,,,0.00,VWS V14.01,2013-04-08 18:27:00,
2013-04-08 14:28:00,73.6,43.5,29.44,SSE,158,6.3,6.3,34,0.00,,,0.00,VWS V14.01,2013-04-08 18:28:00,
2013-04-08 14:29:00,73.8,43.7,29.44,SE,135,3.1,3.1,34,0.00,,,0.00,VWS V14.01,2013-04-08 18:29:00,
2013-04-08 14:30:00,73.8,43.7,29.44,SSW,202,2.9,2.9,34,0.00,,,0.00,VWS V14.01,2013-04-08 18:30:00,
2013-04-08 14:31:00,73.9,43.8,29.44,SSE,158,4.9,4.9,34,0.00,,,0.00,VWS V14.01,2013-04-08 18:31:00,
2013-04-08 14:32:00,74.3,44.1,29.44,South,180,1.3,1.3,34,0.00,,,0.00,VWS V14.01,2013-04-08 18:32:00,
2013-04-08 14:33:00,74.3,44.1,29.44,WSW,248,6.3,6.3,34,0.00,,,0.00,VWS V14.01,2013-04-08 18:33:00,
2013-04-08 14:34:00,74.5,43.5,29.44,West,270,4.0,4.0,33,0.00,,,0.00,VWS V14.01,2013-04-08 18:34:00,
2013-04-08 14:35:00,74.5,43.5,29.44,ENE,68,2.7,2.7,33,0.00,,,0.00,VWS V14.01,2013-04-08 18:35:00,
2013-04-08 14:36:00,74.7,44.5,29.44,NNE,22,2.7,2.7,34,0.00,,,0.00,VWS V14.01,2013-04-08 18:36:00,
2013-04-08 14:37:00,74.5,43.5,29.44,NNE,22,1.3,1.3,33,0.00,,,0.00,VWS V14.01,2013-04-08 18:37:00,
2013-04-08 14:38:00,74.5,44.3,29.44,NE,45,2.0,2.0,34,0.00,,,0.00,VWS V14.01,2013-04-08 18:38:00,
2013-04-08 14:39:00,74.5,44.3,29.44,NE,45,3.4,3.4,34,0.00,,,0.00,VWS V14.01,2013-04-08 18:39:00,
2013-04-08 14:40:00,74.3,43.4,29.44,SSW,202,4.3,4.3,33,0.00,,,0.00,VWS V14.01,2013-04-08 18:40:00,
2013-04-08 14:41:00,74.1,43.2,29.44,SE,135,3.8,3.8,33,0.00,,,0.00,VWS V14.01,2013-04-08 18:41:00,
2013-04-08 14:42:00,74.1,43.2,29.44,SW,225,4.7,4.7,33,0.00,,,0.00,VWS V14.01,2013-04-08 18:42:00,
2013-04-08 14:43:00,74.1,43.2,29.44,SSW,202,4.9,4.9,33,0.00,,,0.00,VWS V14.01,2013-04-08 18:43:00,
2013-04-08 14:44:00,74.1,42.4,29.44,WSW,248,4.9,4.9,32,0.00,,,0.00,VWS V14.01,2013-04-08 18:44:00,
2013-04-08 14:45:00,74.1,42.4,29.41,SW,225,2.0,2.0,32,0.00,,,0.00,VWS V14.01,2013-04-08 18:45:00,
2013-04-08 14:46:00,73.9,42.2,29.41,South,180,3.8,3.8,32,0.00,,,0.00,VWS V14.01,2013-04-08 18:46:00,
2013-04-08 14:47:00,73.9,42.2,29.41,SSW,202,3.1,3.1,32,0.00,,,0.00,VWS V14.01,2013-04-08 18:47:00,
2013-04-08 14:48:00,73.9,42.2,29.41,SSW,202,5.4,5.4,32,0.00,,,0.00,VWS V14.01,2013-04-08 18:48:00,
2013-04-08 14:49:00,74.1,43.2,29.41,WSW,248,5.8,5.8,33,0.00,,,0.00,VWS V14.01,2013-04-08 18:49:00,
2013-04-08 14:50:00,74.1,42.4,29.41,SSW,202,6.3,6.3,32,0.00,,,0.00,VWS V14.01,2013-04-08 18:50:00,
2013-04-08 14:51:00,74.1,43.2,29.41,South,180,1.6,1.6,33,0.00,,,0.00,VWS V14.01,2013-04-08 18:51:00,
2013-04-08 14:52:00,74.1,43.2,29.41,SSE,158,2.9,2.9,33,0.00,,,0.00,VWS V14.01,2013-04-08 18:52:00,
2013-04-08 14:53:00,74.1,43.2,29.41,West,270,2.9,2.9,33,0.00,,,0.00,VWS V14.01,2013-04-08 18:53:00,
2013-04-08 14:54:00,74.1,43.2,29.41,West,270,2.9,2.9,33,0.00,,,0.00,VWS V14.01,2013-04-08 18:54:00,
2013-04-08 14:55:00,73.9,42.2,29.41,WNW,292,3.4,3.4,32,0.00,,,0.00,VWS V14.01,2013-04-08 18:55:00,
2013-04-08 14:56:00,73.9,42.2,29.41,SE,135,1.3,1.3,32,0.00,,,0.00,VWS V14.01,2013-04-08 18:56:00,
2013-04-08 14:57:00,73.8,42.1,29.41,SE,135,4.3,4.3,32,0.00,,,0.00,VWS V14.01,2013-04-08 18:57:00,
2013-04-08 14:58:00,73.8,42.1,29.41,SSE,158,4.7,4.7,32,0.00,,,0.00,VWS V14.01,2013-04-08 18:58:00,
2013-04-08 14:59:00,73.8,42.9,29.41,SSW,202,6.3,6.3,33,0.00,,,0.00,VWS V14.01,2013-04-08 18:59:00,
2013-04-08 15:00:00,73.8,42.9,29.41,SSE,158,5.4,5.4,33,0.00,,,0.00,VWS V14.01,2013-04-08 19:00:00,
2013-04-08 15:01:00,73.8,42.9,29.41,SE,135,5.4,5.4,33,0.00,,,0.00,VWS V14.01,2013-04-08 19:01:00,
2013-04-08 15:02:00,73.6,42.7,29.41,SSW,202,4.9,4.9,33,0.00,,,0.00,VWS V14.01,2013-04-08 19:02:00,
2013-04-08 15:03:00,73.6,42.7,29.41,SSW,202,5.8,5.8,33,0.00,,,0.00,VWS V14.01,2013-04-08 19:03:00,
2013-04-08 15:04:00,73.6,41.9,29.41,South,180,6.0,6.0,32,0.00,,,0.00,VWS V14.01,2013-04-08 19:04:00,
2013-04-08 15:05:00,73.6,41.9,29.41,South,180,6.3,6.3,32,0.00,,,0.00,VWS V14.01,2013-04-08 19:05:00,
2013-04-08 15:06:00,73.4,41.8,29.41,SSW,202,2.7,2.7,32,0.00,,,0.00,VWS V14.01,2013-04-08 19:06:00,
2013-04-08 15:07:00,73.4,41.8,29.41,South,180,5.4,5.4,32,0.00,,,0.00,VWS V14.01,2013-04-08 19:07:00,
2013-04-08 15:08:00,73.4,41.8,29.41,SW,225,2.9,2.9,32,0.00,,,0.00,VWS V14.01,2013-04-08 19:08:00,
2013-04-08 15:09:00,73.4,41.8,29.41,WSW,248,2.7,2.7,32,0.00,,,0.00,VWS V14.01,2013-04-08 19:09:00,
2013-04-08 15:10:00,73.4,41.8,29.41,WSW,248,3.6,3.6,32,0.00,,,0.00,VWS V14.01,2013-04-08 19:10:00,
2013-04-08 15:11:00,73.4,41.8,29.41,South,180,1.3,1.3,32,0.00,,,0.00,VWS V14.01,2013-04-08 19:11:00,
2013-04-08 15:12:00,73.4,41.8,29.41,SSW,202,5.8,5.8,32,0.00,,,0.00,VWS V14.01,2013-04-08 19:12:00,
2013-04-08 15:13:00,73.2,42.4,29.41,South,180,3.1,3.1,33,0.00,,,0.00,VWS V14.01,2013-04-08 19:13:00,
2013-04-08 15:14:00,73.2,42.4,29.41,South,180,4.9,4.9,33,0.00,,,0.00,VWS V14.01,2013-04-08 19:14:00,
2013-04-08 15:15:00,73.2,42.4,29.38,SSE,158,3.8,3.8,33,0.00,,,0.00,VWS V14.01,2013-04-08 19:15:00,
2013-04-08 15:16:00,73.2,42.4,29.38,SSW,202,6.7,6.7,33,0.00,,,0.00,VWS V14.01,2013-04-08 19:16:00,
2013-04-08 15:17:00,73.2,42.4,29.38,SE,135,2.5,2.5,33,0.00,,,0.00,VWS V14.01,2013-04-08 19:17:00,
2013-04-08 15:18:00,73.2,42.4,29.38,SSE,158,2.9,2.9,33,0.00,,,0.00,VWS V14.01,2013-04-08 19:18:00,
2013-04-08 15:19:00,73.2,42.4,29.38,South,180,4.0,4.0,33,0.00,,,0.00,VWS V14.01,2013-04-08 19:19:00,
2013-04-08 15:20:00,73.2,42.4,29.38,SSW,202,4.3,4.3,33,0.00,,,0.00,VWS V14.01,2013-04-08 19:20:00,
2013-04-08 15:21:00,73.2,42.4,29.38,SSE,158,7.8,7.8,33,0.00,,,0.00,VWS V14.01,2013-04-08 19:21:00,
2013-04-08 15:22:00,73.4,42.6,29.38,SSW,202,6.3,6.3,33,0.00,,,0.00,VWS V14.01,2013-04-08 19:22:00,
2013-04-08 15:23:00,73.4,42.6,29.38,SSW,202,10.3,10.3,33,0.00,,,0.00,VWS V14.01,2013-04-08 19:23:00,
2013-04-08 15:24:00,73.6,42.7,29.38,South,180,5.8,5.8,33,0.00,,,0.00,VWS V14.01,2013-04-08 19:24:00,
2013-04-08 15:25:00,73.9,43.0,29.38,South,180,4.3,4.3,33,0.00,,,0.00,VWS V14.01,2013-04-08 19:25:00,
2013-04-08 15:26:00,73.9,43.0,29.38,SSW,202,6.3,6.3,33,0.00,,,0.00,VWS V14.01,2013-04-08 19:26:00,
2013-04-08 15:27:00,74.3,43.4,29.38,South,180,9.8,9.8,33,0.00,,,0.00,VWS V14.01,2013-04-08 19:27:00,
2013-04-08 15:28:00,74.5,43.5,29.38,SSW,202,10.7,10.7,33,0.00,,,0.00,VWS V14.01,2013-04-08 19:28:00,
2013-04-08 15:29:00,74.7,43.7,29.38,SSW,202,6.0,6.0,33,0.00,,,0.00,VWS V14.01,2013-04-08 19:29:00,
2013-04-08 15:30:00,74.8,43.8,29.38,SSW,202,7.4,7.4,33,0.00,,,0.00,VWS V14.01,2013-04-08 19:30:00,
2013-04-08 15:31:00,74.8,43.8,29.38,WSW,248,2.9,2.9,33,0.00,,,0.00,VWS V14.01,2013-04-08 19:31:00,
2013-04-08 15:32:00,75.0,44.0,29.38,WSW,248,5.4,5.4,33,0.00,,,0.00,VWS V14.01,2013-04-08 19:32:00,
2013-04-08 15:33:00,75.0,43.2,29.38,South,180,7.8,7.8,32,0.00,,,0.00,VWS V14.01,2013-04-08 19:33:00,
2013-04-08 15:34:00,75.0,44.0,29.38,SSW,202,10.3,10.3,33,0.00,,,0.00,VWS V14.01,2013-04-08 19:34:00,
2013-04-08 15:35:00,75.2,43.3,29.38,South,180,8.5,8.5,32,0.00,,,0.00,VWS V14.01,2013-04-08 19:35:00,
2013-04-08 15:36:00,75.2,43.3,29.38,South,180,8.1,8.1,32,0.00,,,0.00,VWS V14.01,2013-04-08 19:36:00,
2013-04-08 15:37:00,75.2,43.3,29.38,SE,135,3.8,3.8,32,0.00,,,0.00,VWS V14.01,2013-04-08 19:37:00,
2013-04-08 15:38:00,75.2,43.3,29.38,SSE,158,6.0,6.0,32,0.00,,,0.00,VWS V14.01,2013-04-08 19:38:00,
2013-04-08 15:39:00,75.2,43.3,29.38,South,180,5.6,5.6,32,0.00,,,0.00,VWS V14.01,2013-04-08 19:39:00,
2013-04-08 15:40:00,75.2,43.3,29.38,SSE,158,4.0,4.0,32,0.00,,,0.00,VWS V14.01,2013-04-08 19:40:00,
2013-04-08 15:41:00,75.2,43.3,29.38,SSE,158,3.8,3.8,32,0.00,,,0.00,VWS V14.01,2013-04-08 19:41:00,
2013-04-08 15:42:00,75.2,43.3,29.38,SSW,202,6.0,6.0,32,0.00,,,0.00,VWS V14.01,2013-04-08 19:42:00,
2013-04-08 15:43:00,75.2,43.3,29.38,South,180,11.0,11.0,32,0.00,,,0.00,VWS V14.01,2013-04-08 19:43:00,
2013-04-08 15:44:00,75.2,43.3,29.38,South,180,4.3,4.3,32,0.00,,,0.00,VWS V14.01,2013-04-08 19:44:00,
2013-04-08 15:45:00,75.2,43.3,29.38,SSW,202,9.8,9.8,32,0.00,,,0.00,VWS V14.01,2013-04-08 19:45:00,
2013-04-08 15:46:00,75.0,43.2,29.38,SW,225,13.2,13.2,32,0.00,,,0.00,VWS V14.01,2013-04-08 19:46:00,
2013-04-08 15:47:00,75.0,43.2,29.38,SSW,202,5.6,5.6,32,0.00,,,0.00,VWS V14.01,2013-04-08 19:47:00,
2013-04-08 15:48:00,74.8,43.0,29.38,South,180,6.3,6.3,32,0.00,,,0.00,VWS V14.01,2013-04-08 19:48:00,
2013-04-08 15:49:00,74.8,43.0,29.38,South,180,4.0,4.0,32,0.00,,,0.00,VWS V14.01,2013-04-08 19:49:00,
2013-04-08 15:50:00,74.8,43.0,29.38,SSE,158,4.0,4.0,32,0.00,,,0.00,VWS V14.01,2013-04-08 19:50:00,
2013-04-08 15:51:00,74.8,43.0,29.38,SSW,202,5.6,5.6,32,0.00,,,0.00,VWS V14.01,2013-04-08 19:51:00,
2013-04-08 15:52:00,74.8,43.8,29.38,South,180,7.2,7.2,33,0.00,,,0.00,VWS V14.01,2013-04-08 19:52:00,
2013-04-08 15:53:00,75.0,44.0,29.38,South,180,8.7,8.7,33,0.00,,,0.00,VWS V14.01,2013-04-08 19:53:00,
2013-04-08 15:54:00,75.0,44.0,29.38,SSE,158,8.7,8.7,33,0.00,,,0.00,VWS V14.01,2013-04-08 19:54:00,
2013-04-08 15:55:00,75.2,43.3,29.38,South,180,5.8,5.8,32,0.00,,,0.00,VWS V14.01,2013-04-08 19:55:00,
2013-04-08 15:56:00,75.4,43.5,29.38,SSE,158,7.8,7.8,32,0.00,,,0.00,VWS V14.01,2013-04-08 19:56:00,
2013-04-08 15:57:00,75.4,43.5,29.38,SE,135,5.4,5.4,32,0.00,,,0.00,VWS V14.01,2013-04-08 19:57:00,
2013-04-08 15:58:00,75.6,43.7,29.38,SSE,158,5.8,5.8,32,0.00,,,0.00,VWS V14.01,2013-04-08 19:58:00,
2013-04-08 15:59:00,75.6,43.7,29.38,SSW,202,6.3,6.3,32,0.00,,,0.00,VWS V14.01,2013-04-08 19:59:00,
2013-04-08 16:00:00,75.6,43.7,29.35,SSW,202,7.4,7.4,32,0.00,,,0.00,VWS V14.01,2013-04-08 20:00:00,
2013-04-08 16:01:00,75.6,43.7,29.35,SSW,202,5.8,5.8,32,0.00,,,0.00,VWS V14.01,2013-04-08 20:01:00,
2013-04-08 16:02:00,75.6,43.7,29.35,South,180,5.4,5.4,32,0.00,,,0.00,VWS V14.01,2013-04-08 20:02:00,
2013-04-08 16:03:00,75.4,43.5,29.35,South,180,6.7,6.7,32,0.00,,,0.00,VWS V14.01,2013-04-08 20:03:00,
2013-04-08 16:04:00,75.0,43.2,29.35,South,180,7.2,7.2,32,0.00,,,0.00,VWS V14.01,2013-04-08 20:04:00,
2013-04-08 16:05:00,75.0,43.2,29.35,SSW,202,7.8,7.8,32,0.00,,,0.00,VWS V14.01,2013-04-08 20:05:00,
2013-04-08 16:06:00,74.8,43.0,29.35,South,180,6.3,6.3,32,0.00,,,0.00,VWS V14.01,2013-04-08 20:06:00,
2013-04-08 16:07:00,74.7,42.9,29.35,SSW,202,3.6,3.6,32,0.00,,,0.00,VWS V14.01,2013-04-08 20:07:00,
2013-04-08 16:08:00,74.7,42.9,29.35,South,180,5.8,5.8,32,0.00,,,0.00,VWS V14.01,2013-04-08 20:08:00,
2013-04-08 16:09:00,74.5,42.7,29.35,South,180,7.8,7.8,32,0.00,,,0.00,VWS V14.01,2013-04-08 20:09:00,
2013-04-08 16:10:00,74.3,42.6,29.35,SSE,158,9.6,9.6,32,0.00,,,0.00,VWS V14.01,2013-04-08 20:10:00,
2013-04-08 16:11:00,74.3,42.6,29.35,SE,135,3.6,3.6,32,0.00,,,0.00,VWS V14.01,2013-04-08 20:11:00,
2013-04-08 16:12:00,74.1,42.4,29.35,SSW,202,6.5,6.5,32,0.00,,,0.00,VWS V14.01,2013-04-08 20:12:00,
2013-04-08 16:13:00,74.1,42.4,29.35,South,180,7.8,7.8,32,0.00,,,0.00,VWS V14.01,2013-04-08 20:13:00,
2013-04-08 16:14:00,74.3,43.4,29.35,SSE,158,8.7,8.7,33,0.00,,,0.00,VWS V14.01,2013-04-08 20:14:00,
2013-04-08 16:15:00,74.3,43.4,29.38,SW,225,5.6,5.6,33,0.00,,,0.00,VWS V14.01,2013-04-08 20:15:00,
2013-04-08 16:16:00,74.3,43.4,29.38,SSE,158,11.9,11.9,33,0.00,,,0.00,VWS V14.01,2013-04-08 20:16:00,
2013-04-08 16:17:00,74.3,43.4,29.38,SSE,158,14.8,14.8,33,0.00,,,0.00,VWS V14.01,2013-04-08 20:17:00,
2013-04-08 16:18:00,74.3,43.4,29.38,SSE,158,6.7,6.7,33,0.00,,,0.00,VWS V14.01,2013-04-08 20:18:00,
2013-04-08 16:19:00,74.1,43.2,29.38,South,180,3.6,3.6,33,0.00,,,0.00,VWS V14.01,2013-04-08 20:19:00,
2013-04-08 16:20:00,74.1,43.2,29.38,South,180,6.0,6.0,33,0.00,,,0.00,VWS V14.01,2013-04-08 20:20:00,
2013-04-08 16:21:00,74.1,43.2,29.38,South,180,4.9,4.9,33,0.00,,,0.00,VWS V14.01,2013-04-08 20:21:00,
2013-04-08 16:22:00,74.1,43.2,29.38,West,270,3.8,3.8,33,0.00,,,0.00,VWS V14.01,2013-04-08 20:22:00,
2013-04-08 16:23:00,73.9,43.0,29.38,WSW,248,6.0,6.0,33,0.00,,,0.00,VWS V14.01,2013-04-08 20:23:00,
2013-04-08 16:24:00,73.9,43.0,29.38,South,180,7.2,7.2,33,0.00,,,0.00,VWS V14.01,2013-04-08 20:24:00,
2013-04-08 16:25:00,73.9,43.0,29.38,SSW,202,4.3,4.3,33,0.00,,,0.00,VWS V14.01,2013-04-08 20:25:00,
2013-04-08 16:26:00,73.8,42.9,29.38,South,180,12.3,12.3,33,0.00,,,0.00,VWS V14.01,2013-04-08 20:26:00,
2013-04-08 16:27:00,73.8,42.9,29.38,SSW,202,9.4,9.4,33,0.00,,,0.00,VWS V14.01,2013-04-08 20:27:00,
2013-04-08 16:28:00,73.8,42.9,29.38,South,180,6.5,6.5,33,0.00,,,0.00,VWS V14.01,2013-04-08 20:28:00,
2013-04-08 16:29:00,73.6,42.7,29.38,SSW,202,7.6,7.6,33,0.00,,,0.00,VWS V14.01,2013-04-08 20:29:00,
2013-04-08 16:30:00,73.6,42.7,29.38,SSW,202,6.5,6.5,33,0.00,,,0.00,VWS V14.01,2013-04-08 20:30:00,
2013-04-08 16:31:00,73.6,42.7,29.38,SSE,158,3.1,3.1,33,0.00,,,0.00,VWS V14.01,2013-04-08 20:31:00,
2013-04-08 16:32:00,73.4,42.6,29.38,South,180,9.0,9.0,33,0.00,,,0.00,VWS V14.01,2013-04-08 20:32:00,
2013-04-08 16:33:00,73.4,42.6,29.38,South,180,5.4,5.4,33,0.00,,,0.00,VWS V14.01,2013-04-08 20:33:00,
2013-04-08 16:34:00,73.2,42.4,29.38,South,180,3.8,3.8,33,0.00,,,0.00,VWS V14.01,2013-04-08 20:34:00,
2013-04-08 16:35:00,73.2,42.4,29.38,SSW,202,6.3,6.3,33,0.00,,,0.00,VWS V14.01,2013-04-08 20:35:00,
2013-04-08 16:36:00,73.2,42.4,29.38,SSW,202,5.4,5.4,33,0.00,,,0.00,VWS V14.01,2013-04-08 20:36:00,
2013-04-08 16:37:00,73.2,42.4,29.38,SSE,158,4.3,4.3,33,0.00,,,0.00,VWS V14.01,2013-04-08 20:37:00,
2013-04-08 16:38:00,73.2,42.4,29.38,SSE,158,6.5,6.5,33,0.00,,,0.00,VWS V14.01,2013-04-08 20:38:00,
2013-04-08 16:39:00,73.2,43.2,29.38,South,180,2.5,2.5,34,0.00,,,0.00,VWS V14.01,2013-04-08 20:39:00,
2013-04-08 16:40:00,73.2,43.2,29.38,South,180,7.4,7.4,34,0.00,,,0.00,VWS V14.01,2013-04-08 20:40:00,
2013-04-08 16:41:00,73.2,43.2,29.38,SSW,202,7.8,7.8,34,0.00,,,0.00,VWS V14.01,2013-04-08 20:41:00,
2013-04-08 16:42:00,73.4,42.6,29.38,NNE,22,3.1,3.1,33,0.00,,,0.00,VWS V14.01,2013-04-08 20:42:00,
2013-04-08 16:43:00,73.4,42.6,29.38,South,180,7.6,7.6,33,0.00,,,0.00,VWS V14.01,2013-04-08 20:43:00,
2013-04-08 16:44:00,73.4,42.6,29.38,South,180,8.7,8.7,33,0.00,,,0.00,VWS V14.01,2013-04-08 20:44:00,
2013-04-08 16:45:00,73.4,42.6,29.38,South,180,4.9,4.9,33,0.00,,,0.00,VWS V14.01,2013-04-08 20:45:00,
2013-04-08 16:46:00,73.4,42.6,29.38,South,180,4.9,4.9,33,0.00,,,0.00,VWS V14.01,2013-04-08 20:46:00,
2013-04-08 16:47:00,73.2,43.2,29.38,South,180,4.3,4.3,34,0.00,,,0.00,VWS V14.01,2013-04-08 20:47:00,
2013-04-08 16:48:00,73.2,43.2,29.38,South,180,4.3,4.3,34,0.00,,,0.00,VWS V14.01,2013-04-08 20:48:00,
2013-04-08 16:49:00,73.2,43.2,29.38,SSW,202,2.9,2.9,34,0.00,,,0.00,VWS V14.01,2013-04-08 20:49:00,
2013-04-08 16:50:00,73.2,43.2,29.38,SSE,158,1.6,1.6,34,0.00,,,0.00,VWS V14.01,2013-04-08 20:50:00,
2013-04-08 16:51:00,73.2,43.2,29.38,SSW,202,2.5,2.5,34,0.00,,,0.00,VWS V14.01,2013-04-08 20:51:00,
2013-04-08 16:52:00,73.2,43.2,29.38,South,180,6.5,6.5,34,0.00,,,0.00,VWS V14.01,2013-04-08 20:52:00,
2013-04-08 16:53:00,73.0,43.0,29.38,SSE,158,5.4,5.4,34,0.00,,,0.00,VWS V14.01,2013-04-08 20:53:00,
2013-04-08 16:54:00,73.0,43.0,29.38,South,180,7.4,7.4,34,0.00,,,0.00,VWS V14.01,2013-04-08 20:54:00,
2013-04-08 16:55:00,73.0,43.0,29.38,SSW,202,2.9,2.9,34,0.00,,,0.00,VWS V14.01,2013-04-08 20:55:00,
2013-04-08 16:56:00,73.0,43.0,29.38,SSW,202,5.8,5.8,34,0.00,,,0.00,VWS V14.01,2013-04-08 20:56:00,
2013-04-08 16:57:00,73.0,42.3,29.38,SW,225,2.5,2.5,33,0.00,,,0.00,VWS V14.01,2013-04-08 20:57:00,
2013-04-08 16:58:00,72.9,42.1,29.38,WSW,248,2.9,2.9,33,0.00,,,0.00,VWS V14.01,2013-04-08 20:58:00,
2013-04-08 16:59:00,72.9,42.1,29.38,SSW,202,3.4,3.4,33,0.00,,,0.00,VWS V14.01,2013-04-08 20:59:00,
2013-04-08 17:00:00,72.9,42.1,29.38,South,180,6.3,6.3,33,0.00,,,0.00,VWS V14.01,2013-04-08 21:00:00,
2013-04-08 17:01:00,72.9,42.1,29.38,South,180,3.4,3.4,33,0.00,,,0.00,VWS V14.01,2013-04-08 21:01:00,
2013-04-08 17:02:00,72.9,42.1,29.38,WSW,248,3.6,3.6,33,0.00,,,0.00,VWS V14.01,2013-04-08 21:02:00,
2013-04-08 17:03:00,72.7,42.0,29.38,SE,135,6.0,6.0,33,0.00,,,0.00,VWS V14.01,2013-04-08 21:03:00,
2013-04-08 17:04:00,72.7,42.0,29.38,SSW,202,3.4,3.4,33,0.00,,,0.00,VWS V14.01,2013-04-08 21:04:00,
2013-04-08 17:05:00,72.5,41.8,29.38,South,180,3.4,3.4,33,0.00,,,0.00,VWS V14.01,2013-04-08 21:05:00,
2013-04-08 17:06:00,72.5,41.8,29.38,South,180,3.1,3.1,33,0.00,,,0.00,VWS V14.01,2013-04-08 21:06:00,
2013-04-08 17:07:00,72.5,42.6,29.38,South,180,3.1,3.1,34,0.00,,,0.00,VWS V14.01,2013-04-08 21:07:00,
2013-04-08 17:08:00,72.5,42.6,29.38,South,180,3.8,3.8,34,0.00,,,0.00,VWS V14.01,2013-04-08 21:08:00,
2013-04-08 17:09:00,72.5,42.6,29.38,South,180,7.2,7.2,34,0.00,,,0.00,VWS V14.01,2013-04-08 21:09:00,
2013-04-08 17:10:00,72.5,42.6,29.38,SSE,158,4.0,4.0,34,0.00,,,0.00,VWS V14.01,2013-04-08 21:10:00,
2013-04-08 17:11:00,72.7,42.7,29.38,South,180,3.1,3.1,34,0.00,,,0.00,VWS V14.01,2013-04-08 21:11:00,
2013-04-08 17:12:00,72.7,42.7,29.38,SSW,202,2.7,2.7,34,0.00,,,0.00,VWS V14.01,2013-04-08 21:12:00,
2013-04-08 17:13:00,72.7,42.7,29.38,SSW,202,5.8,5.8,34,0.00,,,0.00,VWS V14.01,2013-04-08 21:13:00,
2013-04-08 17:14:00,72.7,42.7,29.38,South,180,4.7,4.7,34,0.00,,,0.00,VWS V14.01,2013-04-08 21:14:00,
2013-04-08 17:15:00,72.9,42.9,29.38,SSW,202,4.0,4.0,34,0.00,,,0.00,VWS V14.01,2013-04-08 21:15:00,
2013-04-08 17:16:00,72.9,42.9,29.38,SSW,202,4.9,4.9,34,0.00,,,0.00,VWS V14.01,2013-04-08 21:16:00,
2013-04-08 17:17:00,72.9,42.9,29.38,WSW,248,1.6,1.6,34,0.00,,,0.00,VWS V14.01,2013-04-08 21:17:00,
2013-04-08 17:18:00,72.9,42.9,29.38,SW,225,6.3,6.3,34,0.00,,,0.00,VWS V14.01,2013-04-08 21:18:00,
2013-04-08 17:19:00,73.0,43.0,29.38,SSW,202,2.5,2.5,34,0.00,,,0.00,VWS V14.01,2013-04-08 21:19:00,
2013-04-08 17:20:00,73.0,43.0,29.38,SSW,202,2.0,2.0,34,0.00,,,0.00,VWS V14.01,2013-04-08 21:20:00,
2013-04-08 17:21:00,73.0,43.0,29.38,SSW,202,3.8,3.8,34,0.00,,,0.00,VWS V14.01,2013-04-08 21:21:00,
2013-04-08 17:22:00,73.0,43.0,29.38,SSW,202,4.3,4.3,34,0.00,,,0.00,VWS V14.01,2013-04-08 21:22:00,
2013-04-08 17:23:00,73.0,43.0,29.38,South,180,6.3,6.3,34,0.00,,,0.00,VWS V14.01,2013-04-08 21:23:00,
2013-04-08 17:24:00,73.0,43.0,29.38,South,180,5.6,5.6,34,0.00,,,0.00,VWS V14.01,2013-04-08 21:24:00,
2013-04-08 17:25:00,73.0,43.0,29.38,SSE,158,3.4,3.4,34,0.00,,,0.00,VWS V14.01,2013-04-08 21:25:00,
2013-04-08 17:26:00,72.9,42.9,29.38,SSE,158,3.1,3.1,34,0.00,,,0.00,VWS V14.01,2013-04-08 21:26:00,
2013-04-08 17:27:00,72.9,42.9,29.38,SE,135,5.8,5.8,34,0.00,,,0.00,VWS V14.01,2013-04-08 21:27:00,
2013-04-08 17:28:00,72.9,42.9,29.38,South,180,5.4,5.4,34,0.00,,,0.00,VWS V14.01,2013-04-08 21:28:00,
2013-04-08 17:29:00,72.7,42.7,29.38,SSW,202,6.3,6.3,34,0.00,,,0.00,VWS V14.01,2013-04-08 21:29:00,
2013-04-08 17:30:00,72.7,42.7,29.38,SSW,202,3.1,3.1,34,0.00,,,0.00,VWS V14.01,2013-04-08 21:30:00,
2013-04-08 17:31:00,72.7,42.7,29.38,SSE,158,2.5,2.5,34,0.00,,,0.00,VWS V14.01,2013-04-08 21:31:00,
2013-04-08 17:32:00,72.7,42.7,29.38,SSW,202,5.6,5.6,34,0.00,,,0.00,VWS V14.01,2013-04-08 21:32:00,
2013-04-08 17:33:00,72.5,42.6,29.38,SSW,202,7.8,7.8,34,0.00,,,0.00,VWS V14.01,2013-04-08 21:33:00,
2013-04-08 17:34:00,72.5,42.6,29.38,South,180,9.4,9.4,34,0.00,,,0.00,VWS V14.01,2013-04-08 21:34:00,
2013-04-08 17:35:00,72.5,42.6,29.38,South,180,5.6,5.6,34,0.00,,,0.00,VWS V14.01,2013-04-08 21:35:00,
2013-04-08 17:36:00,72.5,42.6,29.38,South,180,4.3,4.3,34,0.00,,,0.00,VWS V14.01,2013-04-08 21:36:00,
2013-04-08 17:37:00,72.3,42.4,29.38,SSW,202,3.8,3.8,34,0.00,,,0.00,VWS V14.01,2013-04-08 21:37:00,
2013-04-08 17:38:00,72.3,42.4,29.38,SSE,158,2.9,2.9,34,0.00,,,0.00,VWS V14.01,2013-04-08 21:38:00,
2013-04-08 17:39:00,72.3,42.4,29.38,SSE,158,4.0,4.0,34,0.00,,,0.00,VWS V14.01,2013-04-08 21:39:00,
2013-04-08 17:40:00,72.1,42.2,29.38,SSW,202,6.5,6.5,34,0.00,,,0.00,VWS V14.01,2013-04-08 21:40:00,
2013-04-08 17:41:00,72.1,42.2,29.38,SSW,202,2.5,2.5,34,0.00,,,0.00,VWS V14.01,2013-04-08 21:41:00,
2013-04-08 17:42:00,72.1,42.2,29.38,SE,135,2.0,2.0,34,0.00,,,0.00,VWS V14.01,2013-04-08 21:42:00,
2013-04-08 17:43:00,72.1,42.2,29.38,South,180,3.6,3.6,34,0.00,,,0.00,VWS V14.01,2013-04-08 21:43:00,
2013-04-08 17:44:00,72.0,42.1,29.38,South,180,3.1,3.1,34,0.00,,,0.00,VWS V14.01,2013-04-08 21:44:00,
2013-04-08 17:45:00,72.0,42.1,29.38,SSW,202,3.1,3.1,34,0.00,,,0.00,VWS V14.01,2013-04-08 21:45:00,
2013-04-08 17:46:00,72.0,42.1,29.38,SSW,202,3.6,3.6,34,0.00,,,0.00,VWS V14.01,2013-04-08 21:46:00,
2013-04-08 17:47:00,72.0,42.1,29.38,South,180,3.6,3.6,34,0.00,,,0.00,VWS V14.01,2013-04-08 21:47:00,
2013-04-08 17:48:00,72.0,42.1,29.38,South,180,5.4,5.4,34,0.00,,,0.00,VWS V14.01,2013-04-08 21:48:00,
2013-04-08 17:49:00,71.8,41.9,29.38,SSW,202,5.6,5.6,34,0.00,,,0.00,VWS V14.01,2013-04-08 21:49:00,
2013-04-08 17:50:00,71.8,41.9,29.38,SE,135,2.5,2.5,34,0.00,,,0.00,VWS V14.01,2013-04-08 21:50:00,
2013-04-08 17:51:00,71.8,41.9,29.38,South,180,7.2,7.2,34,0.00,,,0.00,VWS V14.01,2013-04-08 21:51:00,
2013-04-08 17:52:00,71.6,41.8,29.38,SSE,158,4.3,4.3,34,0.00,,,0.00,VWS V14.01,2013-04-08 21:52:00,
2013-04-08 17:53:00,71.6,41.8,29.38,SE,135,3.6,3.6,34,0.00,,,0.00,VWS V14.01,2013-04-08 21:53:00,
2013-04-08 17:54:00,71.6,41.8,29.38,South,180,3.4,3.4,34,0.00,,,0.00,VWS V14.01,2013-04-08 21:54:00,
2013-04-08 17:55:00,71.4,42.4,29.38,SSW,202,2.9,2.9,35,0.00,,,0.00,VWS V14.01,2013-04-08 21:55:00,
2013-04-08 17:56:00,71.4,42.4,29.38,South,180,2.9,2.9,35,0.00,,,0.00,VWS V14.01,2013-04-08 21:56:00,
2013-04-08 17:57:00,71.4,42.4,29.38,SSE,158,3.6,3.6,35,0.00,,,0.00,VWS V14.01,2013-04-08 21:57:00,
2013-04-08 17:58:00,71.2,42.2,29.38,South,180,5.4,5.4,35,0.00,,,0.00,VWS V14.01,2013-04-08 21:58:00,
2013-04-08 17:59:00,71.2,42.2,29.38,SSE,158,2.7,2.7,35,0.00,,,0.00,VWS V14.01,2013-04-08 21:59:00,
2013-04-08 18:00:00,71.2,42.2,29.38,South,180,3.8,3.8,35,0.00,,,0.00,VWS V14.01,2013-04-08 22:00:00,
2013-04-08 18:01:00,71.2,42.2,29.38,SE,135,2.0,2.0,35,0.00,,,0.00,VWS V14.01,2013-04-08 22:01:00,
2013-04-08 18:02:00,71.1,42.0,29.38,SSW,202,4.3,4.3,35,0.00,,,0.00,VWS V14.01,2013-04-08 22:02:00,
2013-04-08 18:03:00,71.1,42.0,29.38,South,180,2.5,2.5,35,0.00,,,0.00,VWS V14.01,2013-04-08 22:03:00,
2013-04-08 18:04:00,71.1,42.0,29.38,SSW,202,3.1,3.1,35,0.00,,,0.00,VWS V14.01,2013-04-08 22:04:00,
2013-04-08 18:05:00,70.9,41.9,29.38,South,180,3.1,3.1,35,0.00,,,0.00,VWS V14.01,2013-04-08 22:05:00,
2013-04-08 18:06:00,70.9,41.9,29.38,SSW,202,1.1,1.1,35,0.00,,,0.00,VWS V14.01,2013-04-08 22:06:00,
2013-04-08 18:07:00,70.9,41.9,29.38,SSE,158,4.9,4.9,35,0.00,,,0.00,VWS V14.01,2013-04-08 22:07:00,
2013-04-08 18:08:00,70.9,41.9,29.38,SSE,158,4.5,4.5,35,0.00,,,0.00,VWS V14.01,2013-04-08 22:08:00,
2013-04-08 18:09:00,70.7,41.7,29.38,SSE,158,3.1,3.1,35,0.00,,,0.00,VWS V14.01,2013-04-08 22:09:00,
2013-04-08 18:10:00,70.7,41.7,29.38,SSW,202,6.3,6.3,35,0.00,,,0.00,VWS V14.01,2013-04-08 22:10:00,
2013-04-08 18:11:00,70.7,41.7,29.38,South,180,2.7,2.7,35,0.00,,,0.00,VWS V14.01,2013-04-08 22:11:00,
2013-04-08 18:12:00,70.7,41.7,29.38,WSW,248,2.7,2.7,35,0.00,,,0.00,VWS V14.01,2013-04-08 22:12:00,
2013-04-08 18:13:00,70.7,41.7,29.38,SSW,202,6.0,6.0,35,0.00,,,0.00,VWS V14.01,2013-04-08 22:13:00,
2013-04-08 18:14:00,70.7,41.7,29.38,SSE,158,6.0,6.0,35,0.00,,,0.00,VWS V14.01,2013-04-08 22:14:00,
2013-04-08 18:15:00,70.7,41.7,29.38,SSW,202,2.0,2.0,35,0.00,,,0.00,VWS V14.01,2013-04-08 22:15:00,
2013-04-08 18:16:00,70.5,41.6,29.38,SW,225,2.7,2.7,35,0.00,,,0.00,VWS V14.01,2013-04-08 22:16:00,
2013-04-08 18:17:00,70.5,41.6,29.38,SW,225,4.3,4.3,35,0.00,,,0.00,VWS V14.01,2013-04-08 22:17:00,
2013-04-08 18:18:00,70.5,41.6,29.38,South,180,4.9,4.9,35,0.00,,,0.00,VWS V14.01,2013-04-08 22:18:00,
2013-04-08 18:19:00,70.5,41.6,29.38,SSW,202,3.8,3.8,35,0.00,,,0.00,VWS V14.01,2013-04-08 22:19:00,
2013-04-08 18:20:00,70.5,41.6,29.38,South,180,7.4,7.4,35,0.00,,,0.00,VWS V14.01,2013-04-08 22:20:00,
2013-04-08 18:21:00,70.5,41.6,29.38,SW,225,3.8,3.8,35,0.00,,,0.00,VWS V14.01,2013-04-08 22:21:00,
2013-04-08 18:22:00,70.5,41.6,29.38,South,180,3.8,3.8,35,0.00,,,0.00,VWS V14.01,2013-04-08 22:22:00,
2013-04-08 18:23:00,70.5,41.6,29.38,SSW,202,4.9,4.9,35,0.00,,,0.00,VWS V14.01,2013-04-08 22:23:00,
2013-04-08 18:24:00,70.3,41.4,29.38,South,180,9.8,9.8,35,0.00,,,0.00,VWS V14.01,2013-04-08 22:24:00,
2013-04-08 18:25:00,70.3,41.4,29.38,SSW,202,5.8,5.8,35,0.00,,,0.00,VWS V14.01,2013-04-08 22:25:00,
2013-04-08 18:26:00,70.3,41.4,29.38,SSE,158,5.4,5.4,35,0.00,,,0.00,VWS V14.01,2013-04-08 22:26:00,
2013-04-08 18:27:00,70.5,41.6,29.38,SSW,202,3.4,3.4,35,0.00,,,0.00,VWS V14.01,2013-04-08 22:27:00,
2013-04-08 18:28:00,70.5,41.6,29.38,South,180,6.3,6.3,35,0.00,,,0.00,VWS V14.01,2013-04-08 22:28:00,
2013-04-08 18:29:00,70.5,41.6,29.38,South,180,5.4,5.4,35,0.00,,,0.00,VWS V14.01,2013-04-08 22:29:00,
2013-04-08 18:30:00,70.5,41.6,29.38,South,180,2.7,2.7,35,0.00,,,0.00,VWS V14.01,2013-04-08 22:30:00,
2013-04-08 18:31:00,70.3,41.4,29.38,South,180,3.8,3.8,35,0.00,,,0.00,VWS V14.01,2013-04-08 22:31:00,
2013-04-08 18:32:00,70.3,41.4,29.38,SSW,202,2.7,2.7,35,0.00,,,0.00,VWS V14.01,2013-04-08 22:32:00,
2013-04-08 18:33:00,70.3,41.4,29.38,SSW,202,2.9,2.9,35,0.00,,,0.00,VWS V14.01,2013-04-08 22:33:00,
2013-04-08 18:34:00,70.3,41.4,29.38,South,180,5.6,5.6,35,0.00,,,0.00,VWS V14.01,2013-04-08 22:34:00,
2013-04-08 18:35:00,70.3,41.4,29.38,South,180,5.8,5.8,35,0.00,,,0.00,VWS V14.01,2013-04-08 22:35:00,
2013-04-08 18:36:00,70.2,40.5,29.38,SSE,158,6.3,6.3,34,0.00,,,0.00,VWS V14.01,2013-04-08 22:36:00,
2013-04-08 18:37:00,70.2,40.5,29.38,SSW,202,10.1,10.1,34,0.00,,,0.00,VWS V14.01,2013-04-08 22:37:00,
2013-04-08 18:38:00,70.3,40.7,29.38,SSW,202,5.8,5.8,34,0.00,,,0.00,VWS V14.01,2013-04-08 22:38:00,
2013-04-08 18:39:00,70.3,40.7,29.38,South,180,4.9,4.9,34,0.00,,,0.00,VWS V14.01,2013-04-08 22:39:00,
2013-04-08 18:40:00,70.2,40.5,29.38,SSW,202,5.4,5.4,34,0.00,,,0.00,VWS V14.01,2013-04-08 22:40:00,
2013-04-08 18:41:00,70.2,40.5,29.38,SSW,202,6.3,6.3,34,0.00,,,0.00,VWS V14.01,2013-04-08 22:41:00,
2013-04-08 18:42:00,70.2,40.5,29.38,SSW,202,8.1,8.1,34,0.00,,,0.00,VWS V14.01,2013-04-08 22:42:00,
2013-04-08 18:43:00,70.2,40.5,29.38,SSW,202,6.3,6.3,34,0.00,,,0.00,VWS V14.01,2013-04-08 22:43:00,
2013-04-08 18:44:00,70.3,40.7,29.38,SSW,202,6.0,6.0,34,0.00,,,0.00,VWS V14.01,2013-04-08 22:44:00,
2013-04-08 18:45:00,70.3,40.7,29.38,SW,225,4.3,4.3,34,0.00,,,0.00,VWS V14.01,2013-04-08 22:45:00,
2013-04-08 18:46:00,70.3,40.7,29.38,SSE,158,8.1,8.1,34,0.00,,,0.00,VWS V14.01,2013-04-08 22:46:00,
2013-04-08 18:47:00,70.3,40.7,29.38,WSW,248,8.1,8.1,34,0.00,,,0.00,VWS V14.01,2013-04-08 22:47:00,
2013-04-08 18:48:00,70.3,40.7,29.38,South,180,4.9,4.9,34,0.00,,,0.00,VWS V14.01,2013-04-08 22:48:00,
2013-04-08 18:49:00,70.3,40.7,29.38,South,180,5.4,5.4,34,0.00,,,0.00,VWS V14.01,2013-04-08 22:49:00,
2013-04-08 18:50:00,70.3,40.7,29.38,SSW,202,8.1,8.1,34,0.00,,,0.00,VWS V14.01,2013-04-08 22:50:00,
2013-04-08 18:51:00,70.3,40.7,29.38,SSW,202,8.1,8.1,34,0.00,,,0.00,VWS V14.01,2013-04-08 22:51:00,
2013-04-08 18:52:00,70.3,40.7,29.38,South,180,3.4,3.4,34,0.00,,,0.00,VWS V14.01,2013-04-08 22:52:00,
2013-04-08 18:53:00,70.2,40.5,29.38,SSW,202,5.8,5.8,34,0.00,,,0.00,VWS V14.01,2013-04-08 22:53:00,
2013-04-08 18:54:00,70.2,40.5,29.38,South,180,3.8,3.8,34,0.00,,,0.00,VWS V14.01,2013-04-08 22:54:00,
2013-04-08 18:55:00,70.2,40.5,29.38,SSW,202,7.2,7.2,34,0.00,,,0.00,VWS V14.01,2013-04-08 22:55:00,
2013-04-08 18:56:00,70.2,40.5,29.38,South,180,4.0,4.0,34,0.00,,,0.00,VWS V14.01,2013-04-08 22:56:00,
2013-04-08 18:57:00,70.2,40.5,29.38,South,180,3.8,3.8,34,0.00,,,0.00,VWS V14.01,2013-04-08 22:57:00,
2013-04-08 18:58:00,70.0,40.3,29.38,South,180,2.9,2.9,34,0.00,,,0.00,VWS V14.01,2013-04-08 22:58:00,
2013-04-08 18:59:00,70.0,40.3,29.38,SSW,202,4.7,4.7,34,0.00,,,0.00,VWS V14.01,2013-04-08 22:59:00,
2013-04-08 19:00:00,70.0,40.3,29.38,SSW,202,2.5,2.5,34,0.00,,,0.00,VWS V14.01,2013-04-08 23:00:00,
2013-04-08 19:01:00,70.0,40.3,29.38,SSW,202,6.3,6.3,34,0.00,,,0.00,VWS V14.01,2013-04-08 23:01:00,
2013-04-08 19:02:00,70.0,40.3,29.38,South,180,4.7,4.7,34,0.00,,,0.00,VWS V14.01,2013-04-08 23:02:00,
2013-04-08 19:03:00,70.0,40.3,29.38,SSW,202,8.1,8.1,34,0.00,,,0.00,VWS V14.01,2013-04-08 23:03:00,
2013-04-08 19:04:00,69.8,40.2,29.38,SSW,202,5.6,5.6,34,0.00,,,0.00,VWS V14.01,2013-04-08 23:04:00,
2013-04-08 19:05:00,69.8,40.2,29.38,SSW,202,4.7,4.7,34,0.00,,,0.00,VWS V14.01,2013-04-08 23:05:00,
2013-04-08 19:06:00,69.8,40.2,29.38,SW,225,5.4,5.4,34,0.00,,,0.00,VWS V14.01,2013-04-08 23:06:00,
2013-04-08 19:07:00,69.8,40.2,29.38,South,180,3.4,3.4,34,0.00,,,0.00,VWS V14.01,2013-04-08 23:07:00,
2013-04-08 19:08:00,69.8,40.2,29.38,SSW,202,4.3,4.3,34,0.00,,,0.00,VWS V14.01,2013-04-08 23:08:00,
2013-04-08 19:09:00,69.6,40.0,29.38,South,180,3.4,3.4,34,0.00,,,0.00,VWS V14.01,2013-04-08 23:09:00,
2013-04-08 19:10:00,69.6,40.8,29.38,SSW,202,3.4,3.4,35,0.00,,,0.00,VWS V14.01,2013-04-08 23:10:00,
2013-04-08 19:11:00,69.6,40.8,29.38,South,180,4.3,4.3,35,0.00,,,0.00,VWS V14.01,2013-04-08 23:11:00,
2013-04-08 19:12:00,69.4,40.6,29.38,South,180,4.3,4.3,35,0.00,,,0.00,VWS V14.01,2013-04-08 23:12:00,
2013-04-08 19:13:00,69.4,40.6,29.38,SSW,202,3.6,3.6,35,0.00,,,0.00,VWS V14.01,2013-04-08 23:13:00,
2013-04-08 19:14:00,69.4,40.6,29.38,SSW,202,3.4,3.4,35,0.00,,,0.00,VWS V14.01,2013-04-08 23:14:00,
2013-04-08 19:15:00,69.4,40.6,29.38,SSW,202,4.7,4.7,35,0.00,,,0.00,VWS V14.01,2013-04-08 23:15:00,
2013-04-08 19:16:00,69.3,40.5,29.38,SW,225,3.8,3.8,35,0.00,,,0.00,VWS V14.01,2013-04-08 23:16:00,
2013-04-08 19:17:00,69.3,40.5,29.38,South,180,5.6,5.6,35,0.00,,,0.00,VWS V14.01,2013-04-08 23:17:00,
2013-04-08 19:18:00,69.3,40.5,29.38,South,180,6.3,6.3,35,0.00,,,0.00,VWS V14.01,2013-04-08 23:18:00,
2013-04-08 19:19:00,69.3,40.5,29.38,South,180,5.6,5.6,35,0.00,,,0.00,VWS V14.01,2013-04-08 23:19:00,
2013-04-08 19:20:00,69.1,40.3,29.38,SSW,202,3.8,3.8,35,0.00,,,0.00,VWS V14.01,2013-04-08 23:20:00,
2013-04-08 19:21:00,69.1,40.3,29.38,SSW,202,3.8,3.8,35,0.00,,,0.00,VWS V14.01,2013-04-08 23:21:00,
2013-04-08 19:22:00,69.1,40.3,29.38,South,180,4.0,4.0,35,0.00,,,0.00,VWS V14.01,2013-04-08 23:22:00,
2013-04-08 19:23:00,69.1,40.3,29.38,SSE,158,6.3,6.3,35,0.00,,,0.00,VWS V14.01,2013-04-08 23:23:00,
2013-04-08 19:24:00,69.1,40.3,29.38,SSW,202,3.8,3.8,35,0.00,,,0.00,VWS V14.01,2013-04-08 23:24:00,
2013-04-08 19:25:00,68.9,40.2,29.38,South,180,6.5,6.5,35,0.00,,,0.00,VWS V14.01,2013-04-08 23:25:00,
2013-04-08 19:26:00,68.9,40.2,29.38,South,180,3.4,3.4,35,0.00,,,0.00,VWS V14.01,2013-04-08 23:26:00,
2013-04-08 19:27:00,68.9,40.2,29.38,SSW,202,4.3,4.3,35,0.00,,,0.00,VWS V14.01,2013-04-08 23:27:00,
2013-04-08 19:28:00,68.9,40.2,29.38,South,180,5.8,5.8,35,0.00,,,0.00,VWS V14.01,2013-04-08 23:28:00,
2013-04-08 19:29:00,68.9,40.2,29.38,South,180,6.0,6.0,35,0.00,,,0.00,VWS V14.01,2013-04-08 23:29:00,
2013-04-08 19:30:00,68.9,40.2,29.38,SSE,158,3.6,3.6,35,0.00,,,0.00,VWS V14.01,2013-04-08 23:30:00,
2013-04-08 19:31:00,68.9,40.2,29.38,SSW,202,3.6,3.6,35,0.00,,,0.00,VWS V14.01,2013-04-08 23:31:00,
2013-04-08 19:32:00,68.9,40.2,29.38,SSW,202,2.7,2.7,35,0.00,,,0.00,VWS V14.01,2013-04-08 23:32:00,
2013-04-08 19:33:00,68.9,40.2,29.38,South,180,3.8,3.8,35,0.00,,,0.00,VWS V14.01,2013-04-08 23:33:00,
2013-04-08 19:34:00,68.9,40.2,29.38,South,180,3.6,3.6,35,0.00,,,0.00,VWS V14.01,2013-04-08 23:34:00,
2013-04-08 19:35:00,68.9,40.2,29.38,SSW,202,2.7,2.7,35,0.00,,,0.00,VWS V14.01,2013-04-08 23:35:00,
2013-04-08 19:36:00,68.7,40.0,29.38,SSW,202,4.0,4.0,35,0.00,,,0.00,VWS V14.01,2013-04-08 23:36:00,
2013-04-08 19:37:00,68.7,40.0,29.38,SSW,202,3.8,3.8,35,0.00,,,0.00,VWS V14.01,2013-04-08 23:37:00,
2013-04-08 19:38:00,68.7,40.0,29.38,SSW,202,3.4,3.4,35,0.00,,,0.00,VWS V14.01,2013-04-08 23:38:00,
2013-04-08 19:39:00,68.7,40.0,29.38,SSW,202,4.0,4.0,35,0.00,,,0.00,VWS V14.01,2013-04-08 23:39:00,
2013-04-08 19:40:00,68.7,40.0,29.38,South,180,4.3,4.3,35,0.00,,,0.00,VWS V14.01,2013-04-08 23:40:00,
2013-04-08 19:41:00,68.7,40.0,29.38,SSE,158,4.0,4.0,35,0.00,,,0.00,VWS V14.01,2013-04-08 23:41:00,
2013-04-08 19:42:00,68.5,39.8,29.38,SSE,158,4.3,4.3,35,0.00,,,0.00,VWS V14.01,2013-04-08 23:42:00,
2013-04-08 19:43:00,68.5,39.8,29.38,SSE,158,4.7,4.7,35,0.00,,,0.00,VWS V14.01,2013-04-08 23:43:00,
2013-04-08 19:44:00,68.5,39.8,29.38,South,180,6.0,6.0,35,0.00,,,0.00,VWS V14.01,2013-04-08 23:44:00,
2013-04-08 19:45:00,68.5,39.8,29.38,SSW,202,2.2,2.2,35,0.00,,,0.00,VWS V14.01,2013-04-08 23:45:00,
2013-04-08 19:46:00,68.5,39.8,29.38,SSW,202,2.7,2.7,35,0.00,,,0.00,VWS V14.01,2013-04-08 23:46:00,
2013-04-08 19:47:00,68.5,39.8,29.38,SSW,202,3.8,3.8,35,0.00,,,0.00,VWS V14.01,2013-04-08 23:47:00,
2013-04-08 19:48:00,68.4,39.7,29.38,South,180,3.6,3.6,35,0.00,,,0.00,VWS V14.01,2013-04-08 23:48:00,
2013-04-08 19:49:00,68.4,39.7,29.38,South,180,2.9,2.9,35,0.00,,,0.00,VWS V14.01,2013-04-08 23:49:00,
2013-04-08 19:50:00,68.4,39.7,29.38,South,180,3.6,3.6,35,0.00,,,0.00,VWS V14.01,2013-04-08 23:50:00,
2013-04-08 19:51:00,68.4,39.7,29.38,South,180,4.3,4.3,35,0.00,,,0.00,VWS V14.01,2013-04-08 23:51:00,
2013-04-08 19:52:00,68.4,39.7,29.38,South,180,5.4,5.4,35,0.00,,,0.00,VWS V14.01,2013-04-08 23:52:00,
2013-04-08 19:53:00,68.4,39.7,29.38,SSW,202,5.6,5.6,35,0.00,,,0.00,VWS V14.01,2013-04-08 23:53:00,
2013-04-08 19:54:00,68.2,39.5,29.38,South,180,2.5,2.5,35,0.00,,,0.00,VWS V14.01,2013-04-08 23:54:00,
2013-04-08 19:55:00,68.2,39.5,29.38,South,180,3.8,3.8,35,0.00,,,0.00,VWS V14.01,2013-04-08 23:55:00,
2013-04-08 19:56:00,68.2,39.5,29.38,SSW,202,5.8,5.8,35,0.00,,,0.00,VWS V14.01,2013-04-08 23:56:00,
2013-04-08 19:57:00,68.2,39.5,29.38,SSW,202,4.0,4.0,35,0.00,,,0.00,VWS V14.01,2013-04-08 23:57:00,
2013-04-08 19:58:00,68.2,39.5,29.38,South,180,4.3,4.3,35,0.00,,,0.00,VWS V14.01,2013-04-08 23:58:00,
2013-04-08 19:59:00,68.2,39.5,29.38,SW,225,3.6,3.6,35,0.00,,,0.00,VWS V14.01,2013-04-08 23:59:00,
2013-04-08 20:00:00,68.2,39.5,29.38,SSE,158,3.6,3.6,35,0.00,,,0.00,VWS V14.01,2013-04-09 00:00:00,
2013-04-08 20:01:00,68.0,39.3,29.38,SSE,158,3.4,3.4,35,0.00,,,0.00,VWS V14.01,2013-04-09 00:01:00,
2013-04-08 20:02:00,68.0,39.3,29.38,SSW,202,3.6,3.6,35,0.00,,,0.00,VWS V14.01,2013-04-09 00:02:00,
2013-04-08 20:03:00,68.0,39.3,29.38,South,180,2.2,2.2,35,0.00,,,0.00,VWS V14.01,2013-04-09 00:03:00,
2013-04-08 20:04:00,68.0,39.3,29.38,SSW,202,5.8,5.8,35,0.00,,,0.00,VWS V14.01,2013-04-09 00:04:00,
2013-04-08 20:05:00,68.0,39.3,29.38,South,180,3.4,3.4,35,0.00,,,0.00,VWS V14.01,2013-04-09 00:05:00,
2013-04-08 20:06:00,68.0,39.3,29.38,SSW,202,3.1,3.1,35,0.00,,,0.00,VWS V14.01,2013-04-09 00:06:00,
2013-04-08 20:07:00,68.0,39.3,29.38,South,180,2.9,2.9,35,0.00,,,0.00,VWS V14.01,2013-04-09 00:07:00,
2013-04-08 20:08:00,68.0,39.3,29.38,South,180,4.3,4.3,35,0.00,,,0.00,VWS V14.01,2013-04-09 00:08:00,
2013-04-08 20:09:00,68.0,39.3,29.38,South,180,4.3,4.3,35,0.00,,,0.00,VWS V14.01,2013-04-09 00:09:00,
2013-04-08 20:10:00,68.0,39.3,29.38,SSW,202,3.4,3.4,35,0.00,,,0.00,VWS V14.01,2013-04-09 00:10:00,
2013-04-08 20:11:00,68.0,39.3,29.38,SSW,202,7.2,7.2,35,0.00,,,0.00,VWS V14.01,2013-04-09 00:11:00,
2013-04-08 20:12:00,68.0,39.3,29.38,South,180,4.0,4.0,35,0.00,,,0.00,VWS V14.01,2013-04-09 00:12:00,
2013-04-08 20:13:00,68.0,39.3,29.38,SSE,158,4.3,4.3,35,0.00,,,0.00,VWS V14.01,2013-04-09 00:13:00,
2013-04-08 20:14:00,68.0,39.3,29.38,South,180,7.8,7.8,35,0.00,,,0.00,VWS V14.01,2013-04-09 00:14:00,
2013-04-08 20:15:00,68.0,39.3,29.38,SSE,158,4.0,4.0,35,0.00,,,0.00,VWS V14.01,2013-04-09 00:15:00,
2013-04-08 20:16:00,68.0,39.3,29.38,SW,225,3.8,3.8,35,0.00,,,0.00,VWS V14.01,2013-04-09 00:16:00,
2013-04-08 20:17:00,68.0,39.3,29.38,South,180,6.5,6.5,35,0.00,,,0.00,VWS V14.01,2013-04-09 00:17:00,
2013-04-08 20:18:00,68.0,39.3,29.38,SSW,202,6.3,6.3,35,0.00,,,0.00,VWS V14.01,2013-04-09 00:18:00,
2013-04-08 20:19:00,68.0,39.3,29.38,SSW,202,4.9,4.9,35,0.00,,,0.00,VWS V14.01,2013-04-09 00:19:00,
2013-04-08 20:20:00,68.0,39.3,29.38,South,180,3.6,3.6,35,0.00,,,0.00,VWS V14.01,2013-04-09 00:20:00,
2013-04-08 20:21:00,68.0,39.3,29.38,South,180,3.6,3.6,35,0.00,,,0.00,VWS V14.01,2013-04-09 00:21:00,
2013-04-08 20:22:00,67.8,39.9,29.38,South,180,3.8,3.8,36,0.00,,,0.00,VWS V14.01,2013-04-09 00:22:00,
2013-04-08 20:23:00,67.8,39.9,29.38,South,180,3.4,3.4,36,0.00,,,0.00,VWS V14.01,2013-04-09 00:23:00,
2013-04-08 20:24:00,67.8,39.9,29.38,SSW,202,3.1,3.1,36,0.00,,,0.00,VWS V14.01,2013-04-09 00:24:00,
2013-04-08 20:25:00,67.8,39.9,29.38,SSW,202,3.1,3.1,36,0.00,,,0.00,VWS V14.01,2013-04-09 00:25:00,
2013-04-08 20:26:00,67.8,39.9,29.38,SSW,202,4.3,4.3,36,0.00,,,0.00,VWS V14.01,2013-04-09 00:26:00,
2013-04-08 20:27:00,67.8,39.9,29.38,South,180,3.4,3.4,36,0.00,,,0.00,VWS V14.01,2013-04-09 00:27:00,
2013-04-08 20:28:00,67.8,39.9,29.38,SSW,202,5.4,5.4,36,0.00,,,0.00,VWS V14.01,2013-04-09 00:28:00,
2013-04-08 20:29:00,67.8,39.9,29.38,South,180,3.4,3.4,36,0.00,,,0.00,VWS V14.01,2013-04-09 00:29:00,
2013-04-08 20:30:00,67.8,39.9,29.38,SSW,202,4.3,4.3,36,0.00,,,0.00,VWS V14.01,2013-04-09 00:30:00,
2013-04-08 20:31:00,67.6,39.8,29.38,SSW,202,4.0,4.0,36,0.00,,,0.00,VWS V14.01,2013-04-09 00:31:00,
2013-04-08 20:32:00,67.6,39.8,29.38,South,180,4.0,4.0,36,0.00,,,0.00,VWS V14.01,2013-04-09 00:32:00,
2013-04-08 20:33:00,67.6,39.8,29.38,SSW,202,2.7,2.7,36,0.00,,,0.00,VWS V14.01,2013-04-09 00:33:00,
2013-04-08 20:34:00,67.6,39.8,29.38,South,180,4.3,4.3,36,0.00,,,0.00,VWS V14.01,2013-04-09 00:34:00,
2013-04-08 20:35:00,67.6,39.8,29.38,SSW,202,3.6,3.6,36,0.00,,,0.00,VWS V14.01,2013-04-09 00:35:00,
2013-04-08 20:36:00,67.6,39.8,29.38,SSW,202,3.8,3.8,36,0.00,,,0.00,VWS V14.01,2013-04-09 00:36:00,
2013-04-08 20:37:00,67.6,39.8,29.38,South,180,3.4,3.4,36,0.00,,,0.00,VWS V14.01,2013-04-09 00:37:00,
2013-04-08 20:38:00,67.6,39.8,29.38,SSW,202,6.0,6.0,36,0.00,,,0.00,VWS V14.01,2013-04-09 00:38:00,
2013-04-08 20:39:00,67.6,39.8,29.38,SSW,202,3.6,3.6,36,0.00,,,0.00,VWS V14.01,2013-04-09 00:39:00,
2013-04-08 20:40:00,67.6,39.8,29.38,South,180,4.9,4.9,36,0.00,,,0.00,VWS V14.01,2013-04-09 00:40:00,
2013-04-08 20:41:00,67.6,39.8,29.38,South,180,4.0,4.0,36,0.00,,,0.00,VWS V14.01,2013-04-09 00:41:00,
2013-04-08 20:42:00,67.6,39.8,29.38,SSW,202,3.4,3.4,36,0.00,,,0.00,VWS V14.01,2013-04-09 00:42:00,
2013-04-08 20:43:00,67.6,39.8,29.38,SSW,202,4.7,4.7,36,0.00,,,0.00,VWS V14.01,2013-04-09 00:43:00,
2013-04-08 20:44:00,67.5,39.6,29.38,South,180,4.0,4.0,36,0.00,,,0.00,VWS V14.01,2013-04-09 00:44:00,
2013-04-08 20:45:00,67.5,39.6,29.38,SSW,202,2.5,2.5,36,0.00,,,0.00,VWS V14.01,2013-04-09 00:45:00,
2013-04-08 20:46:00,67.5,39.6,29.38,SSW,202,3.1,3.1,36,0.00,,,0.00,VWS V14.01,2013-04-09 00:46:00,
2013-04-08 20:47:00,67.5,39.6,29.38,SSW,202,3.4,3.4,36,0.00,,,0.00,VWS V14.01,2013-04-09 00:47:00,
2013-04-08 20:48:00,67.5,39.6,29.38,SSW,202,3.8,3.8,36,0.00,,,0.00,VWS V14.01,2013-04-09 00:48:00,
2013-04-08 20:49:00,67.5,39.6,29.38,SSE,158,2.0,2.0,36,0.00,,,0.00,VWS V14.01,2013-04-09 00:49:00,
2013-04-08 20:50:00,67.3,39.4,29.38,South,180,4.0,4.0,36,0.00,,,0.00,VWS V14.01,2013-04-09 00:50:00,
2013-04-08 20:51:00,67.3,39.4,29.38,South,180,2.9,2.9,36,0.00,,,0.00,VWS V14.01,2013-04-09 00:51:00,
2013-04-08 20:52:00,67.3,39.4,29.38,SSE,158,2.9,2.9,36,0.00,,,0.00,VWS V14.01,2013-04-09 00:52:00,
2013-04-08 20:53:00,67.3,39.4,29.38,SSW,202,3.4,3.4,36,0.00,,,0.00,VWS V14.01,2013-04-09 00:53:00,
2013-04-08 20:54:00,67.3,39.4,29.38,South,180,4.3,4.3,36,0.00,,,0.00,VWS V14.01,2013-04-09 00:54:00,
2013-04-08 20:55:00,67.3,39.4,29.38,SSW,202,5.8,5.8,36,0.00,,,0.00,VWS V14.01,2013-04-09 00:55:00,
2013-04-08 20:56:00,67.3,39.4,29.38,SSE,158,2.5,2.5,36,0.00,,,0.00,VWS V14.01,2013-04-09 00:56:00,
2013-04-08 20:57:00,67.3,39.4,29.38,SSW,202,3.6,3.6,36,0.00,,,0.00,VWS V14.01,2013-04-09 00:57:00,
2013-04-08 20:58:00,67.3,39.4,29.38,SSW,202,3.6,3.6,36,0.00,,,0.00,VWS V14.01,2013-04-09 00:58:00,
2013-04-08 20:59:00,67.3,39.4,29.38,South,180,4.3,4.3,36,0.00,,,0.00,VWS V14.01,2013-04-09 00:59:00,
2013-04-08 21:00:00,67.1,39.3,29.38,South,180,3.8,3.8,36,0.00,,,0.00,VWS V14.01,2013-04-09 01:00:00,
2013-04-08 21:01:00,67.1,39.3,29.38,South,180,3.8,3.8,36,0.00,,,0.00,VWS V14.01,2013-04-09 01:01:00,
2013-04-08 21:02:00,67.1,39.3,29.38,SSW,202,4.3,4.3,36,0.00,,,0.00,VWS V14.01,2013-04-09 01:02:00,
2013-04-08 21:03:00,67.1,39.3,29.38,South,180,5.6,5.6,36,0.00,,,0.00,VWS V14.01,2013-04-09 01:03:00,
2013-04-08 21:04:00,67.1,39.3,29.38,SSE,158,3.6,3.6,36,0.00,,,0.00,VWS V14.01,2013-04-09 01:04:00,
2013-04-08 21:05:00,67.1,39.3,29.38,South,180,3.1,3.1,36,0.00,,,0.00,VWS V14.01,2013-04-09 01:05:00,
2013-04-08 21:06:00,67.1,39.3,29.38,South,180,2.7,2.7,36,0.00,,,0.00,VWS V14.01,2013-04-09 01:06:00,
2013-04-08 21:07:00,67.1,39.3,29.38,SW,225,3.4,3.4,36,0.00,,,0.00,VWS V14.01,2013-04-09 01:07:00,
2013-04-08 21:08:00,67.1,39.3,29.38,SSW,202,5.4,5.4,36,0.00,,,0.00,VWS V14.01,2013-04-09 01:08:00,
2013-04-08 21:09:00,67.1,39.3,29.38,South,180,2.5,2.5,36,0.00,,,0.00,VWS V14.01,2013-04-09 01:09:00,
2013-04-08 21:10:00,67.1,39.3,29.38,SSW,202,4.0,4.0,36,0.00,,,0.00,VWS V14.01,2013-04-09 01:10:00,
2013-04-08 21:11:00,67.1,39.3,29.38,South,180,5.4,5.4,36,0.00,,,0.00,VWS V14.01,2013-04-09 01:11:00,
2013-04-08 21:12:00,66.9,39.1,29.38,South,180,3.1,3.1,36,0.00,,,0.00,VWS V14.01,2013-04-09 01:12:00,
2013-04-08 21:13:00,66.9,39.1,29.38,SW,225,3.4,3.4,36,0.00,,,0.00,VWS V14.01,2013-04-09 01:13:00,
2013-04-08 21:14:00,67.1,39.3,29.38,SSW,202,6.3,6.3,36,0.00,,,0.00,VWS V14.01,2013-04-09 01:14:00,
2013-04-08 21:15:00,67.1,39.3,29.38,South,180,4.3,4.3,36,0.00,,,0.00,VWS V14.01,2013-04-09 01:15:00,
2013-04-08 21:16:00,67.1,39.3,29.38,South,180,3.4,3.4,36,0.00,,,0.00,VWS V14.01,2013-04-09 01:16:00,
2013-04-08 21:17:00,67.1,39.3,29.38,South,180,2.5,2.5,36,0.00,,,0.00,VWS V14.01,2013-04-09 01:17:00,
2013-04-08 21:18:00,67.1,39.3,29.38,SSW,202,2.5,2.5,36,0.00,,,0.00,VWS V14.01,2013-04-09 01:18:00,
2013-04-08 21:19:00,66.9,39.1,29.38,South,180,3.8,3.8,36,0.00,,,0.00,VWS V14.01,2013-04-09 01:19:00,
2013-04-08 21:20:00,66.9,39.1,29.38,SSW,202,4.3,4.3,36,0.00,,,0.00,VWS V14.01,2013-04-09 01:20:00,
2013-04-08 21:21:00,66.9,39.1,29.38,South,180,6.0,6.0,36,0.00,,,0.00,VWS V14.01,2013-04-09 01:21:00,
2013-04-08 21:22:00,66.9,39.1,29.38,SSW,202,2.2,2.2,36,0.00,,,0.00,VWS V14.01,2013-04-09 01:22:00,
2013-04-08 21:23:00,66.9,39.1,29.38,SSE,158,4.9,4.9,36,0.00,,,0.00,VWS V14.01,2013-04-09 01:23:00,
2013-04-08 21:24:00,66.9,39.1,29.38,SSW,202,2.9,2.9,36,0.00,,,0.00,VWS V14.01,2013-04-09 01:24:00,
2013-04-08 21:25:00,66.9,39.1,29.38,South,180,3.4,3.4,36,0.00,,,0.00,VWS V14.01,2013-04-09 01:25:00,
2013-04-08 21:26:00,66.9,39.1,29.38,SSW,202,3.4,3.4,36,0.00,,,0.00,VWS V14.01,2013-04-09 01:26:00,
2013-04-08 21:27:00,66.9,39.1,29.38,SSW,202,3.1,3.1,36,0.00,,,0.00,VWS V14.01,2013-04-09 01:27:00,
2013-04-08 21:28:00,66.9,39.1,29.38,SSW,202,6.5,6.5,36,0.00,,,0.00,VWS V14.01,2013-04-09 01:28:00,
2013-04-08 21:29:00,67.1,39.3,29.38,South,180,3.1,3.1,36,0.00,,,0.00,VWS V14.01,2013-04-09 01:29:00,
2013-04-08 21:30:00,67.1,39.3,29.35,SSW,202,5.6,5.6,36,0.00,,,0.00,VWS V14.01,2013-04-09 01:30:00,
2013-04-08 21:31:00,67.1,39.3,29.35,WSW,248,4.7,4.7,36,0.00,,,0.00,VWS V14.01,2013-04-09 01:31:00,
2013-04-08 21:32:00,67.1,39.3,29.35,SSW,202,4.7,4.7,36,0.00,,,0.00,VWS V14.01,2013-04-09 01:32:00,
2013-04-08 21:33:00,67.1,39.3,29.35,South,180,5.4,5.4,36,0.00,,,0.00,VWS V14.01,2013-04-09 01:33:00,
2013-04-08 21:34:00,67.1,39.3,29.35,SSW,202,2.9,2.9,36,0.00,,,0.00,VWS V14.01,2013-04-09 01:34:00,
2013-04-08 21:35:00,67.1,39.3,29.35,SSE,158,4.9,4.9,36,0.00,,,0.00,VWS V14.01,2013-04-09 01:35:00,
2013-04-08 21:36:00,67.1,39.3,29.35,SSW,202,2.9,2.9,36,0.00,,,0.00,VWS V14.01,2013-04-09 01:36:00,
2013-04-08 21:37:00,67.3,39.4,29.35,SSW,202,6.0,6.0,36,0.00,,,0.00,VWS V14.01,2013-04-09 01:37:00,
2013-04-08 21:38:00,67.3,39.4,29.35,SSW,202,3.8,3.8,36,0.00,,,0.00,VWS V14.01,2013-04-09 01:38:00,
2013-04-08 21:39:00,67.3,39.4,29.35,South,180,4.0,4.0,36,0.00,,,0.00,VWS V14.01,2013-04-09 01:39:00,
2013-04-08 21:40:00,67.3,39.4,29.35,WSW,248,2.9,2.9,36,0.00,,,0.00,VWS V14.01,2013-04-09 01:40:00,
2013-04-08 21:41:00,67.3,39.4,29.35,South,180,4.3,4.3,36,0.00,,,0.00,VWS V14.01,2013-04-09 01:41:00,
2013-04-08 21:42:00,67.3,39.4,29.35,SSW,202,5.6,5.6,36,0.00,,,0.00,VWS V14.01,2013-04-09 01:42:00,
2013-04-08 21:43:00,67.3,39.4,29.35,WSW,248,2.0,2.0,36,0.00,,,0.00,VWS V14.01,2013-04-09 01:43:00,
2013-04-08 21:44:00,67.5,39.6,29.35,SSW,202,2.9,2.9,36,0.00,,,0.00,VWS V14.01,2013-04-09 01:44:00,
2013-04-08 21:45:00,67.5,39.6,29.38,SW,225,4.3,4.3,36,0.00,,,0.00,VWS V14.01,2013-04-09 01:45:00,
2013-04-08 21:46:00,67.5,39.6,29.38,SSW,202,2.9,2.9,36,0.00,,,0.00,VWS V14.01,2013-04-09 01:46:00,
2013-04-08 21:47:00,67.5,39.6,29.38,South,180,3.1,3.1,36,0.00,,,0.00,VWS V14.01,2013-04-09 01:47:00,
2013-04-08 21:48:00,67.5,39.6,29.38,South,180,4.0,4.0,36,0.00,,,0.00,VWS V14.01,2013-04-09 01:48:00,
2013-04-08 21:49:00,67.5,39.6,29.38,SW,225,4.3,4.3,36,0.00,,,0.00,VWS V14.01,2013-04-09 01:49:00,
2013-04-08 21:50:00,67.5,39.6,29.38,WSW,248,5.6,5.6,36,0.00,,,0.00,VWS V14.01,2013-04-09 01:50:00,
2013-04-08 21:51:00,67.5,39.6,29.38,SSW,202,3.1,3.1,36,0.00,,,0.00,VWS V14.01,2013-04-09 01:51:00,
2013-04-08 21:52:00,67.6,39.8,29.38,SSW,202,5.8,5.8,36,0.00,,,0.00,VWS V14.01,2013-04-09 01:52:00,
2013-04-08 21:53:00,67.6,39.8,29.38,SSW,202,4.9,4.9,36,0.00,,,0.00,VWS V14.01,2013-04-09 01:53:00,
2013-04-08 21:54:00,67.6,39.8,29.38,SSW,202,6.3,6.3,36,0.00,,,0.00,VWS V14.01,2013-04-09 01:54:00,
2013-04-08 21:55:00,67.6,39.8,29.38,SSW,202,5.6,5.6,36,0.00,,,0.00,VWS V14.01,2013-04-09 01:55:00,
2013-04-08 21:56:00,67.6,39.8,29.38,South,180,4.3,4.3,36,0.00,,,0.00,VWS V14.01,2013-04-09 01:56:00,
2013-04-08 21:57:00,67.6,39.8,29.38,SSW,202,7.4,7.4,36,0.00,,,0.00,VWS V14.01,2013-04-09 01:57:00,
2013-04-08 21:58:00,67.6,39.8,29.38,SSE,158,5.8,5.8,36,0.00,,,0.00,VWS V14.01,2013-04-09 01:58:00,
2013-04-08 21:59:00,67.6,39.8,29.38,South,180,4.0,4.0,36,0.00,,,0.00,VWS V14.01,2013-04-09 01:59:00,
2013-04-08 22:00:00,67.6,39.8,29.38,WSW,248,6.0,6.0,36,0.00,,,0.00,VWS V14.01,2013-04-09 02:00:00,
2013-04-08 22:01:00,67.6,39.8,29.38,SSW,202,5.4,5.4,36,0.00,,,0.00,VWS V14.01,2013-04-09 02:01:00,
2013-04-08 22:02:00,67.6,39.8,29.38,South,180,7.4,7.4,36,0.00,,,0.00,VWS V14.01,2013-04-09 02:02:00,
2013-04-08 22:03:00,67.6,39.8,29.38,SSW,202,8.1,8.1,36,0.00,,,0.00,VWS V14.01,2013-04-09 02:03:00,
2013-04-08 22:04:00,67.6,39.8,29.38,SSW,202,5.4,5.4,36,0.00,,,0.00,VWS V14.01,2013-04-09 02:04:00,
2013-04-08 22:05:00,67.6,39.8,29.38,SW,225,8.5,8.5,36,0.00,,,0.00,VWS V14.01,2013-04-09 02:05:00,
2013-04-08 22:06:00,67.6,39.8,29.38,SW,225,7.6,7.6,36,0.00,,,0.00,VWS V14.01,2013-04-09 02:06:00,
2013-04-08 22:07:00,67.6,40.5,29.38,South,180,4.9,4.9,37,0.00,,,0.00,VWS V14.01,2013-04-09 02:07:00,
2013-04-08 22:08:00,67.6,39.8,29.38,South,180,6.0,6.0,36,0.00,,,0.00,VWS V14.01,2013-04-09 02:08:00,
2013-04-08 22:09:00,67.6,40.5,29.38,WSW,248,8.1,8.1,37,0.00,,,0.00,VWS V14.01,2013-04-09 02:09:00,
2013-04-08 22:10:00,67.6,40.5,29.38,SSW,202,6.3,6.3,37,0.00,,,0.00,VWS V14.01,2013-04-09 02:10:00,
2013-04-08 22:11:00,67.8,40.6,29.38,SSW,202,5.8,5.8,37,0.00,,,0.00,VWS V14.01,2013-04-09 02:11:00,
2013-04-08 22:12:00,67.8,40.6,29.38,SSW,202,8.1,8.1,37,0.00,,,0.00,VWS V14.01,2013-04-09 02:12:00,
2013-04-08 22:13:00,67.8,40.6,29.38,SSE,158,5.6,5.6,37,0.00,,,0.00,VWS V14.01,2013-04-09 02:13:00,
2013-04-08 22:14:00,67.8,40.6,29.38,SSW,202,6.5,6.5,37,0.00,,,0.00,VWS V14.01,2013-04-09 02:14:00,
2013-04-08 22:15:00,67.8,40.6,29.38,SW,225,5.6,5.6,37,0.00,,,0.00,VWS V14.01,2013-04-09 02:15:00,
2013-04-08 22:16:00,67.8,40.6,29.38,SW,225,5.4,5.4,37,0.00,,,0.00,VWS V14.01,2013-04-09 02:16:00,
2013-04-08 22:17:00,67.8,40.6,29.38,South,180,6.3,6.3,37,0.00,,,0.00,VWS V14.01,2013-04-09 02:17:00,
2013-04-08 22:18:00,67.8,40.6,29.38,SSW,202,5.4,5.4,37,0.00,,,0.00,VWS V14.01,2013-04-09 02:18:00,
2013-04-08 22:19:00,67.8,40.6,29.38,SSW,202,9.6,9.6,37,0.00,,,0.00,VWS V14.01,2013-04-09 02:19:00,
2013-04-08 22:20:00,67.8,40.6,29.38,SSW,202,9.8,9.8,37,0.00,,,0.00,VWS V14.01,2013-04-09 02:20:00,
2013-04-08 22:21:00,67.8,40.6,29.38,South,180,7.6,7.6,37,0.00,,,0.00,VWS V14.01,2013-04-09 02:21:00,
2013-04-08 22:22:00,67.8,40.6,29.38,South,180,4.9,4.9,37,0.00,,,0.00,VWS V14.01,2013-04-09 02:22:00,
2013-04-08 22:23:00,67.8,40.6,29.38,SSW,202,3.6,3.6,37,0.00,,,0.00,VWS V14.01,2013-04-09 02:23:00,
2013-04-08 22:24:00,67.6,40.5,29.38,SSW,202,9.8,9.8,37,0.00,,,0.00,VWS V14.01,2013-04-09 02:24:00,
2013-04-08 22:25:00,67.6,40.5,29.38,South,180,7.6,7.6,37,0.00,,,0.00,VWS V14.01,2013-04-09 02:25:00,
2013-04-08 22:26:00,67.6,40.5,29.38,South,180,7.8,7.8,37,0.00,,,0.00,VWS V14.01,2013-04-09 02:26:00,
2013-04-08 22:27:00,67.8,40.6,29.38,South,180,6.0,6.0,37,0.00,,,0.00,VWS V14.01,2013-04-09 02:27:00,
2013-04-08 22:28:00,67.8,40.6,29.38,South,180,8.1,8.1,37,0.00,,,0.00,VWS V14.01,2013-04-09 02:28:00,
2013-04-08 22:29:00,67.8,40.6,29.38,SSW,202,3.6,3.6,37,0.00,,,0.00,VWS V14.01,2013-04-09 02:29:00,
2013-04-08 22:30:00,67.6,40.5,29.38,SSW,202,6.3,6.3,37,0.00,,,0.00,VWS V14.01,2013-04-09 02:30:00,
2013-04-08 22:31:00,67.6,40.5,29.38,SW,225,6.0,6.0,37,0.00,,,0.00,VWS V14.01,2013-04-09 02:31:00,
2013-04-08 22:32:00,67.8,40.6,29.38,SSW,202,5.6,5.6,37,0.00,,,0.00,VWS V14.01,2013-04-09 02:32:00,
2013-04-08 22:33:00,67.8,40.6,29.38,SSW,202,5.4,5.4,37,0.00,,,0.00,VWS V14.01,2013-04-09 02:33:00,
2013-04-08 22:34:00,67.8,40.6,29.38,South,180,7.6,7.6,37,0.00,,,0.00,VWS V14.01,2013-04-09 02:34:00,
2013-04-08 22:35:00,67.8,40.6,29.38,South,180,5.4,5.4,37,0.00,,,0.00,VWS V14.01,2013-04-09 02:35:00,
2013-04-08 22:36:00,67.8,40.6,29.38,SW,225,10.7,10.7,37,0.00,,,0.00,VWS V14.01,2013-04-09 02:36:00,
2013-04-08 22:37:00,67.8,40.6,29.38,SSW,202,8.5,8.5,37,0.00,,,0.00,VWS V14.01,2013-04-09 02:37:00,
2013-04-08 22:38:00,67.8,40.6,29.38,SSW,202,6.5,6.5,37,0.00,,,0.00,VWS V14.01,2013-04-09 02:38:00,
2013-04-08 22:39:00,67.8,40.6,29.38,SSW,202,3.1,3.1,37,0.00,,,0.00,VWS V14.01,2013-04-09 02:39:00,
2013-04-08 22:40:00,67.8,40.6,29.38,WSW,248,5.8,5.8,37,0.00,,,0.00,VWS V14.01,2013-04-09 02:40:00,
2013-04-08 22:41:00,67.6,40.5,29.38,SSW,202,4.0,4.0,37,0.00,,,0.00,VWS V14.01,2013-04-09 02:41:00,
2013-04-08 22:42:00,67.5,40.3,29.38,SSW,202,6.5,6.5,37,0.00,,,0.00,VWS V14.01,2013-04-09 02:42:00,
2013-04-08 22:43:00,67.5,40.3,29.38,SSW,202,6.3,6.3,37,0.00,,,0.00,VWS V14.01,2013-04-09 02:43:00,
2013-04-08 22:44:00,67.5,40.3,29.38,SW,225,6.3,6.3,37,0.00,,,0.00,VWS V14.01,2013-04-09 02:44:00,
2013-04-08 22:45:00,67.5,40.3,29.38,SSW,202,6.3,6.3,37,0.00,,,0.00,VWS V14.01,2013-04-09 02:45:00,
2013-04-08 22:46:00,67.5,40.3,29.38,South,180,7.4,7.4,37,0.00,,,0.00,VWS V14.01,2013-04-09 02:46:00,
2013-04-08 22:47:00,67.3,40.1,29.38,SSW,202,5.6,5.6,37,0.00,,,0.00,VWS V14.01,2013-04-09 02:47:00,
2013-04-08 22:48:00,67.3,40.1,29.38,SSW,202,3.1,3.1,37,0.00,,,0.00,VWS V14.01,2013-04-09 02:48:00,
2013-04-08 22:49:00,67.3,40.1,29.38,South,180,4.3,4.3,37,0.00,,,0.00,VWS V14.01,2013-04-09 02:49:00,
2013-04-08 22:50:00,67.3,40.1,29.38,WSW,248,5.4,5.4,37,0.00,,,0.00,VWS V14.01,2013-04-09 02:50:00,
2013-04-08 22:51:00,67.3,40.1,29.38,SSE,158,5.8,5.8,37,0.00,,,0.00,VWS V14.01,2013-04-09 02:51:00,
2013-04-08 22:52:00,67.3,40.1,29.38,SW,225,3.4,3.4,37,0.00,,,0.00,VWS V14.01,2013-04-09 02:52:00,
2013-04-08 22:53:00,67.1,40.0,29.38,South,180,4.3,4.3,37,0.00,,,0.00,VWS V14.01,2013-04-09 02:53:00,
2013-04-08 22:54:00,67.1,40.0,29.38,South,180,5.8,5.8,37,0.00,,,0.00,VWS V14.01,2013-04-09 02:54:00,
2013-04-08 22:55:00,67.1,40.0,29.38,SSE,158,6.9,6.9,37,0.00,,,0.00,VWS V14.01,2013-04-09 02:55:00,
2013-04-08 22:56:00,67.1,40.0,29.38,SSW,202,1.6,1.6,37,0.00,,,0.00,VWS V14.01,2013-04-09 02:56:00,
2013-04-08 22:57:00,67.1,40.0,29.38,South,180,9.6,9.6,37,0.00,,,0.00,VWS V14.01,2013-04-09 02:57:00,
2013-04-08 22:58:00,67.1,40.0,29.38,South,180,6.5,6.5,37,0.00,,,0.00,VWS V14.01,2013-04-09 02:58:00,
2013-04-08 22:59:00,67.1,40.0,29.38,SSW,202,7.8,7.8,37,0.00,,,0.00,VWS V14.01,2013-04-09 02:59:00,
2013-04-08 23:00:00,67.1,40.0,29.38,SSE,158,7.2,7.2,37,0.00,,,0.00,VWS V14.01,2013-04-09 03:00:00,
2013-04-08 23:01:00,66.9,39.8,29.35,SSE,158,5.4,5.4,37,0.00,,,0.00,VWS V14.01,2013-04-09 03:01:00,
2013-04-08 23:02:00,66.9,39.8,29.35,SW,225,8.5,8.5,37,0.00,,,0.00,VWS V14.01,2013-04-09 03:02:00,
2013-04-08 23:03:00,66.9,39.8,29.35,WSW,248,2.5,2.5,37,0.00,,,0.00,VWS V14.01,2013-04-09 03:03:00,
2013-04-08 23:04:00,66.9,39.8,29.35,South,180,6.0,6.0,37,0.00,,,0.00,VWS V14.01,2013-04-09 03:04:00,
2013-04-08 23:05:00,66.9,39.8,29.35,SSW,202,4.7,4.7,37,0.00,,,0.00,VWS V14.01,2013-04-09 03:05:00,
2013-04-08 23:06:00,66.9,39.8,29.35,South,180,9.8,9.8,37,0.00,,,0.00,VWS V14.01,2013-04-09 03:06:00,
2013-04-08 23:07:00,66.9,39.8,29.35,South,180,8.1,8.1,37,0.00,,,0.00,VWS V14.01,2013-04-09 03:07:00,
2013-04-08 23:08:00,66.9,39.8,29.35,SSW,202,2.9,2.9,37,0.00,,,0.00,VWS V14.01,2013-04-09 03:08:00,
2013-04-08 23:09:00,66.9,39.8,29.35,SSW,202,3.8,3.8,37,0.00,,,0.00,VWS V14.01,2013-04-09 03:09:00,
2013-04-08 23:10:00,66.9,39.8,29.35,South,180,6.5,6.5,37,0.00,,,0.00,VWS V14.01,2013-04-09 03:10:00,
2013-04-08 23:11:00,66.9,39.8,29.35,SSW,202,2.9,2.9,37,0.00,,,0.00,VWS V14.01,2013-04-09 03:11:00,
2013-04-08 23:12:00,66.7,39.7,29.35,SSW,202,5.4,5.4,37,0.00,,,0.00,VWS V14.01,2013-04-09 03:12:00,
2013-04-08 23:13:00,66.7,39.7,29.35,West,270,9.8,9.8,37,0.00,,,0.00,VWS V14.01,2013-04-09 03:13:00,
2013-04-08 23:14:00,66.7,39.7,29.35,SW,225,6.3,6.3,37,0.00,,,0.00,VWS V14.01,2013-04-09 03:14:00,
2013-04-08 23:15:00,66.7,39.7,29.38,SSW,202,2.5,2.5,37,0.00,,,0.00,VWS V14.01,2013-04-09 03:15:00,
2013-04-08 23:16:00,66.7,39.7,29.38,SSW,202,3.4,3.4,37,0.00,,,0.00,VWS V14.01,2013-04-09 03:16:00,
2013-04-08 23:17:00,66.7,39.7,29.38,SSW,202,3.6,3.6,37,0.00,,,0.00,VWS V14.01,2013-04-09 03:17:00,
2013-04-08 23:18:00,66.7,40.3,29.38,SSW,202,8.5,8.5,38,0.00,,,0.00,VWS V14.01,2013-04-09 03:18:00,
2013-04-08 23:19:00,66.7,40.3,29.38,SSW,202,8.1,8.1,38,0.00,,,0.00,VWS V14.01,2013-04-09 03:19:00,
2013-04-08 23:20:00,66.7,40.3,29.38,SSW,202,5.6,5.6,38,0.00,,,0.00,VWS V14.01,2013-04-09 03:20:00,
2013-04-08 23:21:00,66.7,40.3,29.38,SSE,158,6.3,6.3,38,0.00,,,0.00,VWS V14.01,2013-04-09 03:21:00,
2013-04-08 23:22:00,66.6,40.2,29.38,SE,135,2.0,2.0,38,0.00,,,0.00,VWS V14.01,2013-04-09 03:22:00,
2013-04-08 23:23:00,66.6,40.2,29.38,SSW,202,3.6,3.6,38,0.00,,,0.00,VWS V14.01,2013-04-09 03:23:00,
2013-04-08 23:24:00,66.6,40.2,29.38,SSW,202,7.4,7.4,38,0.00,,,0.00,VWS V14.01,2013-04-09 03:24:00,
2013-04-08 23:25:00,66.6,40.2,29.38,SSW,202,6.0,6.0,38,0.00,,,0.00,VWS V14.01,2013-04-09 03:25:00,
2013-04-08 23:26:00,66.6,40.2,29.38,South,180,4.0,4.0,38,0.00,,,0.00,VWS V14.01,2013-04-09 03:26:00,
2013-04-08 23:27:00,66.6,40.2,29.38,SSW,202,2.0,2.0,38,0.00,,,0.00,VWS V14.01,2013-04-09 03:27:00,
2013-04-08 23:28:00,66.6,40.2,29.38,WSW,248,0.0,0.0,38,0.00,,,0.00,VWS V14.01,2013-04-09 03:28:00,
2013-04-08 23:29:00,66.4,40.0,29.38,SSW,202,6.0,6.0,38,0.00,,,0.00,VWS V14.01,2013-04-09 03:29:00,
2013-04-08 23:30:00,66.4,40.0,29.38,SW,225,6.0,6.0,38,0.00,,,0.00,VWS V14.01,2013-04-09 03:30:00,
2013-04-08 23:31:00,66.4,40.0,29.38,SSW,202,1.1,1.1,38,0.00,,,0.00,VWS V14.01,2013-04-09 03:31:00,
2013-04-08 23:32:00,66.2,39.9,29.38,WSW,248,1.1,1.1,38,0.00,,,0.00,VWS V14.01,2013-04-09 03:32:00,
2013-04-08 23:33:00,66.2,39.9,29.38,WSW,248,2.0,2.0,38,0.00,,,0.00,VWS V14.01,2013-04-09 03:33:00,
2013-04-08 23:34:00,66.2,39.9,29.38,South,180,2.0,2.0,38,0.00,,,0.00,VWS V14.01,2013-04-09 03:34:00,
2013-04-08 23:35:00,66.2,39.9,29.38,SSW,202,4.0,4.0,38,0.00,,,0.00,VWS V14.01,2013-04-09 03:35:00,
2013-04-08 23:36:00,66.0,39.7,29.38,SSW,202,2.7,2.7,38,0.00,,,0.00,VWS V14.01,2013-04-09 03:36:00,
2013-04-08 23:37:00,66.0,40.4,29.38,SSW,202,4.9,4.9,39,0.00,,,0.00,VWS V14.01,2013-04-09 03:37:00,
2013-04-08 23:38:00,66.0,40.4,29.38,West,270,2.0,2.0,39,0.00,,,0.00,VWS V14.01,2013-04-09 03:38:00,
2013-04-08 23:39:00,66.0,40.4,29.38,SSE,158,3.6,3.6,39,0.00,,,0.00,VWS V14.01,2013-04-09 03:39:00,
2013-04-08 23:40:00,66.0,40.4,29.38,South,180,4.9,4.9,39,0.00,,,0.00,VWS V14.01,2013-04-09 03:40:00,
2013-04-08 23:41:00,65.8,40.2,29.38,South,180,7.2,7.2,39,0.00,,,0.00,VWS V14.01,2013-04-09 03:41:00,
2013-04-08 23:42:00,65.8,40.2,29.38,South,180,4.3,4.3,39,0.00,,,0.00,VWS V14.01,2013-04-09 03:42:00,
2013-04-08 23:43:00,65.8,40.2,29.38,SSE,158,3.6,3.6,39,0.00,,,0.00,VWS V14.01,2013-04-09 03:43:00,
2013-04-08 23:44:00,65.8,40.2,29.38,WSW,248,3.1,3.1,39,0.00,,,0.00,VWS V14.01,2013-04-09 03:44:00,
2013-04-08 23:45:00,65.8,40.2,29.35,South,180,2.9,2.9,39,0.00,,,0.00,VWS V14.01,2013-04-09 03:45:00,
2013-04-08 23:46:00,65.7,40.0,29.35,South,180,6.0,6.0,39,0.00,,,0.00,VWS V14.01,2013-04-09 03:46:00,
2013-04-08 23:47:00,65.7,40.0,29.35,SSW,202,3.6,3.6,39,0.00,,,0.00,VWS V14.01,2013-04-09 03:47:00,
2013-04-08 23:48:00,65.7,40.0,29.35,South,180,5.8,5.8,39,0.00,,,0.00,VWS V14.01,2013-04-09 03:48:00,
2013-04-08 23:49:00,65.7,40.0,29.35,SSW,202,3.8,3.8,39,0.00,,,0.00,VWS V14.01,2013-04-09 03:49:00,
2013-04-08 23:50:00,65.5,39.9,29.35,SSW,202,2.0,2.0,39,0.00,,,0.00,VWS V14.01,2013-04-09 03:50:00,
2013-04-08 23:51:00,65.5,39.9,29.35,SSW,202,3.4,3.4,39,0.00,,,0.00,VWS V14.01,2013-04-09 03:51:00,
2013-04-08 23:52:00,65.5,39.9,29.35,SW,225,1.6,1.6,39,0.00,,,0.00,VWS V14.01,2013-04-09 03:52:00,
2013-04-08 23:53:00,65.3,39.7,29.35,NW,315,2.0,2.0,39,0.00,,,0.00,VWS V14.01,2013-04-09 03:53:00,
2013-04-08 23:54:00,65.3,39.7,29.35,SSW,202,1.1,1.1,39,0.00,,,0.00,VWS V14.01,2013-04-09 03:54:00,
2013-04-08 23:55:00,65.3,39.7,29.35,SSW,202,4.0,4.0,39,0.00,,,0.00,VWS V14.01,2013-04-09 03:55:00,
2013-04-08 23:56:00,65.1,39.6,29.35,SSW,202,2.2,2.2,39,0.00,,,0.00,VWS V14.01,2013-04-09 03:56:00,
2013-04-08 23:57:00,65.1,39.6,29.35,SSW,202,2.0,2.0,39,0.00,,,0.00,VWS V14.01,2013-04-09 03:57:00,
2013-04-08 23:58:00,65.1,39.6,29.35,SSW,202,1.1,1.1,39,0.00,,,0.00,VWS V14.01,2013-04-09 03:58:00,
2013-04-08 23:59:00,65.1,39.6,29.35,SE,135,2.0,2.0,39,0.00,,,0.00,VWS V14.01,2013-04-09 03:59:00,